<?xml version="1.0" encoding="UTF-8" standalone="no" ?>
<gpx xmlns="http://www.topografix.com/GPX/1/1" xmlns:xsi="http://www.w3.org/2001/XMLSchema-instance" xsi:schemaLocation="http://www.topografix.com/GPX/1/1 http://www.topografix.com/GPX/1/1/gpx.xsd" version="1.1" creator="VisuGPX - https://www.visugpx.com">
  <metadata>
    <name>20eme rando nature vtt</name>
    <desc><![CDATA[rando assez facile , roulante et accessible .]]></desc>
  </metadata>
  <trk>
    <name><![CDATA[20eme rando nature vtt]]></name>
    <trkseg>
      <trkpt lat="48.03004" lon="5.81787">
        <ele>280.6</ele>
        <time>2019-05-30T08:59:05Z</time>
      </trkpt>
      <trkpt lat="48.03004" lon="5.81787">
        <ele>280.6</ele>
        <time>2019-05-30T08:59:06Z</time>
      </trkpt>
      <trkpt lat="48.03004" lon="5.81787">
        <ele>280.6</ele>
        <time>2019-05-30T08:59:09Z</time>
      </trkpt>
      <trkpt lat="48.03004" lon="5.81787">
        <ele>280.6</ele>
        <time>2019-05-30T08:59:13Z</time>
      </trkpt>
      <trkpt lat="48.03" lon="5.81785">
        <ele>280</ele>
        <time>2019-05-30T08:59:17Z</time>
      </trkpt>
      <trkpt lat="48.02995" lon="5.81783">
        <ele>279.8</ele>
        <time>2019-05-30T08:59:21Z</time>
      </trkpt>
      <trkpt lat="48.02989" lon="5.81779">
        <ele>279.6</ele>
        <time>2019-05-30T08:59:25Z</time>
      </trkpt>
      <trkpt lat="48.02985" lon="5.81776">
        <ele>279.4</ele>
        <time>2019-05-30T08:59:29Z</time>
      </trkpt>
      <trkpt lat="48.02981" lon="5.81772">
        <ele>279.6</ele>
        <time>2019-05-30T08:59:33Z</time>
      </trkpt>
      <trkpt lat="48.02977" lon="5.81769">
        <ele>280</ele>
        <time>2019-05-30T08:59:37Z</time>
      </trkpt>
      <trkpt lat="48.02974" lon="5.81774">
        <ele>280.2</ele>
        <time>2019-05-30T08:59:41Z</time>
      </trkpt>
      <trkpt lat="48.02976" lon="5.8178">
        <ele>280.4</ele>
        <time>2019-05-30T08:59:45Z</time>
      </trkpt>
      <trkpt lat="48.02978" lon="5.81789">
        <ele>280.8</ele>
        <time>2019-05-30T08:59:49Z</time>
      </trkpt>
      <trkpt lat="48.02981" lon="5.818">
        <ele>281</ele>
        <time>2019-05-30T08:59:53Z</time>
      </trkpt>
      <trkpt lat="48.02984" lon="5.8181">
        <ele>281.6</ele>
        <time>2019-05-30T08:59:57Z</time>
      </trkpt>
      <trkpt lat="48.02986" lon="5.81819">
        <ele>283</ele>
        <time>2019-05-30T09:00:01Z</time>
      </trkpt>
      <trkpt lat="48.02989" lon="5.81829">
        <ele>283.4</ele>
        <time>2019-05-30T09:00:05Z</time>
      </trkpt>
      <trkpt lat="48.02996" lon="5.81841">
        <ele>284.6</ele>
        <time>2019-05-30T09:00:09Z</time>
      </trkpt>
      <trkpt lat="48.03002" lon="5.81852">
        <ele>285.6</ele>
        <time>2019-05-30T09:00:13Z</time>
      </trkpt>
      <trkpt lat="48.03008" lon="5.8186">
        <ele>286</ele>
        <time>2019-05-30T09:00:17Z</time>
      </trkpt>
      <trkpt lat="48.03012" lon="5.81869">
        <ele>287</ele>
        <time>2019-05-30T09:00:21Z</time>
      </trkpt>
      <trkpt lat="48.03016" lon="5.81877">
        <ele>287.6</ele>
        <time>2019-05-30T09:00:25Z</time>
      </trkpt>
      <trkpt lat="48.03021" lon="5.81886">
        <ele>288.4</ele>
        <time>2019-05-30T09:00:29Z</time>
      </trkpt>
      <trkpt lat="48.03026" lon="5.81895">
        <ele>289</ele>
        <time>2019-05-30T09:00:33Z</time>
      </trkpt>
      <trkpt lat="48.03031" lon="5.81905">
        <ele>289.4</ele>
        <time>2019-05-30T09:00:37Z</time>
      </trkpt>
      <trkpt lat="48.03036" lon="5.81913">
        <ele>290</ele>
        <time>2019-05-30T09:00:41Z</time>
      </trkpt>
      <trkpt lat="48.03042" lon="5.81922">
        <ele>291.2</ele>
        <time>2019-05-30T09:00:45Z</time>
      </trkpt>
      <trkpt lat="48.03048" lon="5.8193">
        <ele>291.8</ele>
        <time>2019-05-30T09:00:49Z</time>
      </trkpt>
      <trkpt lat="48.03053" lon="5.81938">
        <ele>292.2</ele>
        <time>2019-05-30T09:00:53Z</time>
      </trkpt>
      <trkpt lat="48.0306" lon="5.81945">
        <ele>293</ele>
        <time>2019-05-30T09:00:57Z</time>
      </trkpt>
      <trkpt lat="48.03067" lon="5.81951">
        <ele>293.6</ele>
        <time>2019-05-30T09:01:01Z</time>
      </trkpt>
      <trkpt lat="48.03073" lon="5.81957">
        <ele>294.4</ele>
        <time>2019-05-30T09:01:05Z</time>
      </trkpt>
      <trkpt lat="48.0308" lon="5.81963">
        <ele>295.2</ele>
        <time>2019-05-30T09:01:09Z</time>
      </trkpt>
      <trkpt lat="48.03086" lon="5.81969">
        <ele>295.8</ele>
        <time>2019-05-30T09:01:13Z</time>
      </trkpt>
      <trkpt lat="48.03093" lon="5.81975">
        <ele>296.8</ele>
        <time>2019-05-30T09:01:17Z</time>
      </trkpt>
      <trkpt lat="48.031" lon="5.8198">
        <ele>297.4</ele>
        <time>2019-05-30T09:01:21Z</time>
      </trkpt>
      <trkpt lat="48.03107" lon="5.81986">
        <ele>297.2</ele>
        <time>2019-05-30T09:01:25Z</time>
      </trkpt>
      <trkpt lat="48.03114" lon="5.81992">
        <ele>298.2</ele>
        <time>2019-05-30T09:01:29Z</time>
      </trkpt>
      <trkpt lat="48.03121" lon="5.81999">
        <ele>298.6</ele>
        <time>2019-05-30T09:01:33Z</time>
      </trkpt>
      <trkpt lat="48.03127" lon="5.82004">
        <ele>299.2</ele>
        <time>2019-05-30T09:01:37Z</time>
      </trkpt>
      <trkpt lat="48.03134" lon="5.8201">
        <ele>299.6</ele>
        <time>2019-05-30T09:01:41Z</time>
      </trkpt>
      <trkpt lat="48.03141" lon="5.82016">
        <ele>300.2</ele>
        <time>2019-05-30T09:01:45Z</time>
      </trkpt>
      <trkpt lat="48.03148" lon="5.82023">
        <ele>300.4</ele>
        <time>2019-05-30T09:01:49Z</time>
      </trkpt>
      <trkpt lat="48.03155" lon="5.8203">
        <ele>301.2</ele>
        <time>2019-05-30T09:01:53Z</time>
      </trkpt>
      <trkpt lat="48.03162" lon="5.82037">
        <ele>301.8</ele>
        <time>2019-05-30T09:01:57Z</time>
      </trkpt>
      <trkpt lat="48.03169" lon="5.82045">
        <ele>301.8</ele>
        <time>2019-05-30T09:02:01Z</time>
      </trkpt>
      <trkpt lat="48.03176" lon="5.82052">
        <ele>302</ele>
        <time>2019-05-30T09:02:05Z</time>
      </trkpt>
      <trkpt lat="48.03181" lon="5.82062">
        <ele>302.4</ele>
        <time>2019-05-30T09:02:09Z</time>
      </trkpt>
      <trkpt lat="48.03178" lon="5.82072">
        <ele>302.6</ele>
        <time>2019-05-30T09:02:13Z</time>
      </trkpt>
      <trkpt lat="48.0317" lon="5.82084">
        <ele>302.6</ele>
        <time>2019-05-30T09:02:17Z</time>
      </trkpt>
      <trkpt lat="48.03161" lon="5.82102">
        <ele>302.6</ele>
        <time>2019-05-30T09:02:21Z</time>
      </trkpt>
      <trkpt lat="48.03148" lon="5.82126">
        <ele>300.6</ele>
        <time>2019-05-30T09:02:25Z</time>
      </trkpt>
      <trkpt lat="48.03132" lon="5.82156">
        <ele>300</ele>
        <time>2019-05-30T09:02:29Z</time>
      </trkpt>
      <trkpt lat="48.03107" lon="5.82179">
        <ele>298.2</ele>
        <time>2019-05-30T09:02:33Z</time>
      </trkpt>
      <trkpt lat="48.03075" lon="5.82194">
        <ele>297.4</ele>
        <time>2019-05-30T09:02:37Z</time>
      </trkpt>
      <trkpt lat="48.03046" lon="5.82207">
        <ele>298.6</ele>
        <time>2019-05-30T09:02:41Z</time>
      </trkpt>
      <trkpt lat="48.03023" lon="5.82219">
        <ele>300.4</ele>
        <time>2019-05-30T09:02:45Z</time>
      </trkpt>
      <trkpt lat="48.03004" lon="5.82228">
        <ele>301</ele>
        <time>2019-05-30T09:02:49Z</time>
      </trkpt>
      <trkpt lat="48.02985" lon="5.82237">
        <ele>300.8</ele>
        <time>2019-05-30T09:02:53Z</time>
      </trkpt>
      <trkpt lat="48.02967" lon="5.82246">
        <ele>301.8</ele>
        <time>2019-05-30T09:02:57Z</time>
      </trkpt>
      <trkpt lat="48.02948" lon="5.82255">
        <ele>301.4</ele>
        <time>2019-05-30T09:03:01Z</time>
      </trkpt>
      <trkpt lat="48.02927" lon="5.82265">
        <ele>300.8</ele>
        <time>2019-05-30T09:03:05Z</time>
      </trkpt>
      <trkpt lat="48.02905" lon="5.82278">
        <ele>300.2</ele>
        <time>2019-05-30T09:03:09Z</time>
      </trkpt>
      <trkpt lat="48.02884" lon="5.82298">
        <ele>299.8</ele>
        <time>2019-05-30T09:03:13Z</time>
      </trkpt>
      <trkpt lat="48.02863" lon="5.82319">
        <ele>299.2</ele>
        <time>2019-05-30T09:03:17Z</time>
      </trkpt>
      <trkpt lat="48.02842" lon="5.82339">
        <ele>298.6</ele>
        <time>2019-05-30T09:03:21Z</time>
      </trkpt>
      <trkpt lat="48.02821" lon="5.8236">
        <ele>297</ele>
        <time>2019-05-30T09:03:25Z</time>
      </trkpt>
      <trkpt lat="48.02799" lon="5.82381">
        <ele>296.8</ele>
        <time>2019-05-30T09:03:29Z</time>
      </trkpt>
      <trkpt lat="48.02776" lon="5.82402">
        <ele>295.6</ele>
        <time>2019-05-30T09:03:33Z</time>
      </trkpt>
      <trkpt lat="48.02753" lon="5.82421">
        <ele>296.4</ele>
        <time>2019-05-30T09:03:37Z</time>
      </trkpt>
      <trkpt lat="48.02731" lon="5.82439">
        <ele>296.6</ele>
        <time>2019-05-30T09:03:41Z</time>
      </trkpt>
      <trkpt lat="48.02712" lon="5.82456">
        <ele>297.4</ele>
        <time>2019-05-30T09:03:45Z</time>
      </trkpt>
      <trkpt lat="48.02693" lon="5.82473">
        <ele>297.4</ele>
        <time>2019-05-30T09:03:49Z</time>
      </trkpt>
      <trkpt lat="48.02676" lon="5.8249">
        <ele>297.4</ele>
        <time>2019-05-30T09:03:53Z</time>
      </trkpt>
      <trkpt lat="48.02656" lon="5.82504">
        <ele>297.6</ele>
        <time>2019-05-30T09:03:57Z</time>
      </trkpt>
      <trkpt lat="48.02631" lon="5.82516">
        <ele>295.8</ele>
        <time>2019-05-30T09:04:01Z</time>
      </trkpt>
      <trkpt lat="48.02601" lon="5.82519">
        <ele>295.2</ele>
        <time>2019-05-30T09:04:05Z</time>
      </trkpt>
      <trkpt lat="48.02568" lon="5.82517">
        <ele>292.6</ele>
        <time>2019-05-30T09:04:09Z</time>
      </trkpt>
      <trkpt lat="48.02533" lon="5.82513">
        <ele>290.4</ele>
        <time>2019-05-30T09:04:13Z</time>
      </trkpt>
      <trkpt lat="48.02494" lon="5.8251">
        <ele>287.6</ele>
        <time>2019-05-30T09:04:17Z</time>
      </trkpt>
      <trkpt lat="48.02453" lon="5.82517">
        <ele>283.4</ele>
        <time>2019-05-30T09:04:21Z</time>
      </trkpt>
      <trkpt lat="48.02415" lon="5.82545">
        <ele>281.2</ele>
        <time>2019-05-30T09:04:25Z</time>
      </trkpt>
      <trkpt lat="48.02382" lon="5.82581">
        <ele>280</ele>
        <time>2019-05-30T09:04:29Z</time>
      </trkpt>
      <trkpt lat="48.02355" lon="5.82611">
        <ele>280.8</ele>
        <time>2019-05-30T09:04:33Z</time>
      </trkpt>
      <trkpt lat="48.02333" lon="5.82638">
        <ele>282</ele>
        <time>2019-05-30T09:04:37Z</time>
      </trkpt>
      <trkpt lat="48.02314" lon="5.8266">
        <ele>282.4</ele>
        <time>2019-05-30T09:04:41Z</time>
      </trkpt>
      <trkpt lat="48.02293" lon="5.82673">
        <ele>283.6</ele>
        <time>2019-05-30T09:04:45Z</time>
      </trkpt>
      <trkpt lat="48.0227" lon="5.82684">
        <ele>282.6</ele>
        <time>2019-05-30T09:04:49Z</time>
      </trkpt>
      <trkpt lat="48.02248" lon="5.82702">
        <ele>282.4</ele>
        <time>2019-05-30T09:04:53Z</time>
      </trkpt>
      <trkpt lat="48.02225" lon="5.82723">
        <ele>281</ele>
        <time>2019-05-30T09:04:57Z</time>
      </trkpt>
      <trkpt lat="48.02199" lon="5.82749">
        <ele>280.2</ele>
        <time>2019-05-30T09:05:01Z</time>
      </trkpt>
      <trkpt lat="48.02173" lon="5.82777">
        <ele>278.6</ele>
        <time>2019-05-30T09:05:05Z</time>
      </trkpt>
      <trkpt lat="48.02149" lon="5.82799">
        <ele>279.2</ele>
        <time>2019-05-30T09:05:09Z</time>
      </trkpt>
      <trkpt lat="48.02126" lon="5.82819">
        <ele>280</ele>
        <time>2019-05-30T09:05:13Z</time>
      </trkpt>
      <trkpt lat="48.02107" lon="5.82835">
        <ele>281.8</ele>
        <time>2019-05-30T09:05:17Z</time>
      </trkpt>
      <trkpt lat="48.02089" lon="5.8285">
        <ele>283</ele>
        <time>2019-05-30T09:05:21Z</time>
      </trkpt>
      <trkpt lat="48.02074" lon="5.82866">
        <ele>283.4</ele>
        <time>2019-05-30T09:05:25Z</time>
      </trkpt>
      <trkpt lat="48.02059" lon="5.82883">
        <ele>283.6</ele>
        <time>2019-05-30T09:05:29Z</time>
      </trkpt>
      <trkpt lat="48.02042" lon="5.82901">
        <ele>283.4</ele>
        <time>2019-05-30T09:05:33Z</time>
      </trkpt>
      <trkpt lat="48.02025" lon="5.82918">
        <ele>283</ele>
        <time>2019-05-30T09:05:37Z</time>
      </trkpt>
      <trkpt lat="48.02007" lon="5.82936">
        <ele>282</ele>
        <time>2019-05-30T09:05:41Z</time>
      </trkpt>
      <trkpt lat="48.01987" lon="5.82954">
        <ele>281.2</ele>
        <time>2019-05-30T09:05:45Z</time>
      </trkpt>
      <trkpt lat="48.01977" lon="5.82965">
        <ele>280.2</ele>
        <time>2019-05-30T09:05:49Z</time>
      </trkpt>
      <trkpt lat="48.01967" lon="5.82964">
        <ele>280.2</ele>
        <time>2019-05-30T09:05:53Z</time>
      </trkpt>
      <trkpt lat="48.01953" lon="5.82958">
        <ele>279</ele>
        <time>2019-05-30T09:05:57Z</time>
      </trkpt>
      <trkpt lat="48.01935" lon="5.82947">
        <ele>278.2</ele>
        <time>2019-05-30T09:06:01Z</time>
      </trkpt>
      <trkpt lat="48.01915" lon="5.82935">
        <ele>276.8</ele>
        <time>2019-05-30T09:06:05Z</time>
      </trkpt>
      <trkpt lat="48.01891" lon="5.82935">
        <ele>276</ele>
        <time>2019-05-30T09:06:09Z</time>
      </trkpt>
      <trkpt lat="48.01871" lon="5.82956">
        <ele>275.6</ele>
        <time>2019-05-30T09:06:13Z</time>
      </trkpt>
      <trkpt lat="48.01854" lon="5.8298">
        <ele>275.4</ele>
        <time>2019-05-30T09:06:17Z</time>
      </trkpt>
      <trkpt lat="48.01839" lon="5.83003">
        <ele>274</ele>
        <time>2019-05-30T09:06:21Z</time>
      </trkpt>
      <trkpt lat="48.01823" lon="5.83027">
        <ele>274</ele>
        <time>2019-05-30T09:06:25Z</time>
      </trkpt>
      <trkpt lat="48.01806" lon="5.83051">
        <ele>273</ele>
        <time>2019-05-30T09:06:29Z</time>
      </trkpt>
      <trkpt lat="48.01784" lon="5.83076">
        <ele>272</ele>
        <time>2019-05-30T09:06:33Z</time>
      </trkpt>
      <trkpt lat="48.01757" lon="5.83099">
        <ele>269.6</ele>
        <time>2019-05-30T09:06:37Z</time>
      </trkpt>
      <trkpt lat="48.0172" lon="5.83117">
        <ele>267.4</ele>
        <time>2019-05-30T09:06:41Z</time>
      </trkpt>
      <trkpt lat="48.01685" lon="5.83135">
        <ele>263.6</ele>
        <time>2019-05-30T09:06:45Z</time>
      </trkpt>
      <trkpt lat="48.01677" lon="5.83159">
        <ele>264.2</ele>
        <time>2019-05-30T09:06:49Z</time>
      </trkpt>
      <trkpt lat="48.01688" lon="5.83182">
        <ele>265.4</ele>
        <time>2019-05-30T09:06:53Z</time>
      </trkpt>
      <trkpt lat="48.01698" lon="5.83197">
        <ele>266.4</ele>
        <time>2019-05-30T09:06:57Z</time>
      </trkpt>
      <trkpt lat="48.01706" lon="5.8321">
        <ele>266.4</ele>
        <time>2019-05-30T09:07:01Z</time>
      </trkpt>
      <trkpt lat="48.01715" lon="5.83222">
        <ele>267.4</ele>
        <time>2019-05-30T09:07:05Z</time>
      </trkpt>
      <trkpt lat="48.01726" lon="5.83235">
        <ele>268.2</ele>
        <time>2019-05-30T09:07:09Z</time>
      </trkpt>
      <trkpt lat="48.01737" lon="5.83249">
        <ele>269</ele>
        <time>2019-05-30T09:07:13Z</time>
      </trkpt>
      <trkpt lat="48.01742" lon="5.83266">
        <ele>269.4</ele>
        <time>2019-05-30T09:07:17Z</time>
      </trkpt>
      <trkpt lat="48.01738" lon="5.83285">
        <ele>269</ele>
        <time>2019-05-30T09:07:21Z</time>
      </trkpt>
      <trkpt lat="48.01733" lon="5.83311">
        <ele>268.6</ele>
        <time>2019-05-30T09:07:25Z</time>
      </trkpt>
      <trkpt lat="48.01726" lon="5.83343">
        <ele>268</ele>
        <time>2019-05-30T09:07:29Z</time>
      </trkpt>
      <trkpt lat="48.01726" lon="5.8338">
        <ele>268</ele>
        <time>2019-05-30T09:07:33Z</time>
      </trkpt>
      <trkpt lat="48.01734" lon="5.83412">
        <ele>268</ele>
        <time>2019-05-30T09:07:37Z</time>
      </trkpt>
      <trkpt lat="48.01745" lon="5.83438">
        <ele>268.6</ele>
        <time>2019-05-30T09:07:41Z</time>
      </trkpt>
      <trkpt lat="48.01759" lon="5.83459">
        <ele>269.6</ele>
        <time>2019-05-30T09:07:45Z</time>
      </trkpt>
      <trkpt lat="48.01772" lon="5.83479">
        <ele>270.2</ele>
        <time>2019-05-30T09:07:49Z</time>
      </trkpt>
      <trkpt lat="48.01784" lon="5.83497">
        <ele>271.2</ele>
        <time>2019-05-30T09:07:53Z</time>
      </trkpt>
      <trkpt lat="48.01795" lon="5.83514">
        <ele>272</ele>
        <time>2019-05-30T09:07:57Z</time>
      </trkpt>
      <trkpt lat="48.01806" lon="5.83531">
        <ele>272.8</ele>
        <time>2019-05-30T09:08:01Z</time>
      </trkpt>
      <trkpt lat="48.01816" lon="5.83548">
        <ele>273.6</ele>
        <time>2019-05-30T09:08:05Z</time>
      </trkpt>
      <trkpt lat="48.01827" lon="5.83564">
        <ele>274.6</ele>
        <time>2019-05-30T09:08:09Z</time>
      </trkpt>
      <trkpt lat="48.01838" lon="5.8358">
        <ele>275.2</ele>
        <time>2019-05-30T09:08:13Z</time>
      </trkpt>
      <trkpt lat="48.0185" lon="5.83595">
        <ele>275.8</ele>
        <time>2019-05-30T09:08:17Z</time>
      </trkpt>
      <trkpt lat="48.01861" lon="5.8361">
        <ele>276.2</ele>
        <time>2019-05-30T09:08:21Z</time>
      </trkpt>
      <trkpt lat="48.01873" lon="5.83625">
        <ele>276.8</ele>
        <time>2019-05-30T09:08:25Z</time>
      </trkpt>
      <trkpt lat="48.01885" lon="5.8364">
        <ele>277.8</ele>
        <time>2019-05-30T09:08:30Z</time>
      </trkpt>
      <trkpt lat="48.01897" lon="5.83654">
        <ele>278.2</ele>
        <time>2019-05-30T09:08:33Z</time>
      </trkpt>
      <trkpt lat="48.01908" lon="5.8367">
        <ele>279</ele>
        <time>2019-05-30T09:08:37Z</time>
      </trkpt>
      <trkpt lat="48.0192" lon="5.83686">
        <ele>279.4</ele>
        <time>2019-05-30T09:08:41Z</time>
      </trkpt>
      <trkpt lat="48.01931" lon="5.83707">
        <ele>280</ele>
        <time>2019-05-30T09:08:45Z</time>
      </trkpt>
      <trkpt lat="48.01938" lon="5.83731">
        <ele>280.2</ele>
        <time>2019-05-30T09:08:49Z</time>
      </trkpt>
      <trkpt lat="48.01947" lon="5.83756">
        <ele>279.6</ele>
        <time>2019-05-30T09:08:53Z</time>
      </trkpt>
      <trkpt lat="48.0196" lon="5.83781">
        <ele>279</ele>
        <time>2019-05-30T09:08:57Z</time>
      </trkpt>
      <trkpt lat="48.01978" lon="5.83806">
        <ele>278.8</ele>
        <time>2019-05-30T09:09:01Z</time>
      </trkpt>
      <trkpt lat="48.01998" lon="5.83837">
        <ele>275.2</ele>
        <time>2019-05-30T09:09:05Z</time>
      </trkpt>
      <trkpt lat="48.02017" lon="5.83873">
        <ele>270.6</ele>
        <time>2019-05-30T09:09:09Z</time>
      </trkpt>
      <trkpt lat="48.02044" lon="5.83916">
        <ele>266.6</ele>
        <time>2019-05-30T09:09:13Z</time>
      </trkpt>
      <trkpt lat="48.02075" lon="5.83958">
        <ele>265.4</ele>
        <time>2019-05-30T09:09:17Z</time>
      </trkpt>
      <trkpt lat="48.02101" lon="5.84001">
        <ele>263.8</ele>
        <time>2019-05-30T09:09:21Z</time>
      </trkpt>
      <trkpt lat="48.02114" lon="5.84043">
        <ele>261.8</ele>
        <time>2019-05-30T09:09:25Z</time>
      </trkpt>
      <trkpt lat="48.02137" lon="5.84077">
        <ele>260.8</ele>
        <time>2019-05-30T09:09:29Z</time>
      </trkpt>
      <trkpt lat="48.02161" lon="5.84109">
        <ele>259.6</ele>
        <time>2019-05-30T09:09:33Z</time>
      </trkpt>
      <trkpt lat="48.02184" lon="5.8414">
        <ele>257.6</ele>
        <time>2019-05-30T09:09:37Z</time>
      </trkpt>
      <trkpt lat="48.02191" lon="5.8418">
        <ele>253.8</ele>
        <time>2019-05-30T09:09:41Z</time>
      </trkpt>
      <trkpt lat="48.02193" lon="5.84225">
        <ele>251</ele>
        <time>2019-05-30T09:09:45Z</time>
      </trkpt>
      <trkpt lat="48.02212" lon="5.84252">
        <ele>250.4</ele>
        <time>2019-05-30T09:09:49Z</time>
      </trkpt>
      <trkpt lat="48.02235" lon="5.84266">
        <ele>248.8</ele>
        <time>2019-05-30T09:09:53Z</time>
      </trkpt>
      <trkpt lat="48.02257" lon="5.84294">
        <ele>245.6</ele>
        <time>2019-05-30T09:09:57Z</time>
      </trkpt>
      <trkpt lat="48.02272" lon="5.8434">
        <ele>243.8</ele>
        <time>2019-05-30T09:10:01Z</time>
      </trkpt>
      <trkpt lat="48.02286" lon="5.84387">
        <ele>241.6</ele>
        <time>2019-05-30T09:10:05Z</time>
      </trkpt>
      <trkpt lat="48.02302" lon="5.84434">
        <ele>240.2</ele>
        <time>2019-05-30T09:10:09Z</time>
      </trkpt>
      <trkpt lat="48.02325" lon="5.84471">
        <ele>238.8</ele>
        <time>2019-05-30T09:10:13Z</time>
      </trkpt>
      <trkpt lat="48.02352" lon="5.84497">
        <ele>238.2</ele>
        <time>2019-05-30T09:10:17Z</time>
      </trkpt>
      <trkpt lat="48.0238" lon="5.84521">
        <ele>238.4</ele>
        <time>2019-05-30T09:10:21Z</time>
      </trkpt>
      <trkpt lat="48.02404" lon="5.84538">
        <ele>237</ele>
        <time>2019-05-30T09:10:25Z</time>
      </trkpt>
      <trkpt lat="48.02427" lon="5.84554">
        <ele>237</ele>
        <time>2019-05-30T09:10:29Z</time>
      </trkpt>
      <trkpt lat="48.0245" lon="5.84568">
        <ele>236</ele>
        <time>2019-05-30T09:10:33Z</time>
      </trkpt>
      <trkpt lat="48.02472" lon="5.84582">
        <ele>235.4</ele>
        <time>2019-05-30T09:10:37Z</time>
      </trkpt>
      <trkpt lat="48.02482" lon="5.84603">
        <ele>235</ele>
        <time>2019-05-30T09:10:41Z</time>
      </trkpt>
      <trkpt lat="48.02482" lon="5.84629">
        <ele>234</ele>
        <time>2019-05-30T09:10:45Z</time>
      </trkpt>
      <trkpt lat="48.02483" lon="5.84657">
        <ele>234.8</ele>
        <time>2019-05-30T09:10:49Z</time>
      </trkpt>
      <trkpt lat="48.0248" lon="5.8468">
        <ele>235</ele>
        <time>2019-05-30T09:10:53Z</time>
      </trkpt>
      <trkpt lat="48.02483" lon="5.847">
        <ele>237</ele>
        <time>2019-05-30T09:10:57Z</time>
      </trkpt>
      <trkpt lat="48.02488" lon="5.84717">
        <ele>237.8</ele>
        <time>2019-05-30T09:11:01Z</time>
      </trkpt>
      <trkpt lat="48.02492" lon="5.84736">
        <ele>237.6</ele>
        <time>2019-05-30T09:11:05Z</time>
      </trkpt>
      <trkpt lat="48.02496" lon="5.84751">
        <ele>239.2</ele>
        <time>2019-05-30T09:11:09Z</time>
      </trkpt>
      <trkpt lat="48.02502" lon="5.84768">
        <ele>239.2</ele>
        <time>2019-05-30T09:11:13Z</time>
      </trkpt>
      <trkpt lat="48.02504" lon="5.84782">
        <ele>240.2</ele>
        <time>2019-05-30T09:11:17Z</time>
      </trkpt>
      <trkpt lat="48.02508" lon="5.84796">
        <ele>240.6</ele>
        <time>2019-05-30T09:11:21Z</time>
      </trkpt>
      <trkpt lat="48.02514" lon="5.84812">
        <ele>241</ele>
        <time>2019-05-30T09:11:25Z</time>
      </trkpt>
      <trkpt lat="48.02521" lon="5.84829">
        <ele>241.6</ele>
        <time>2019-05-30T09:11:29Z</time>
      </trkpt>
      <trkpt lat="48.0253" lon="5.84846">
        <ele>242.2</ele>
        <time>2019-05-30T09:11:33Z</time>
      </trkpt>
      <trkpt lat="48.02534" lon="5.84859">
        <ele>242.6</ele>
        <time>2019-05-30T09:11:37Z</time>
      </trkpt>
      <trkpt lat="48.02541" lon="5.84875">
        <ele>243.6</ele>
        <time>2019-05-30T09:11:41Z</time>
      </trkpt>
      <trkpt lat="48.02547" lon="5.84888">
        <ele>244.2</ele>
        <time>2019-05-30T09:11:45Z</time>
      </trkpt>
      <trkpt lat="48.02556" lon="5.84901">
        <ele>244.2</ele>
        <time>2019-05-30T09:11:49Z</time>
      </trkpt>
      <trkpt lat="48.02561" lon="5.84915">
        <ele>244.8</ele>
        <time>2019-05-30T09:11:53Z</time>
      </trkpt>
      <trkpt lat="48.02567" lon="5.84922">
        <ele>244.6</ele>
        <time>2019-05-30T09:11:57Z</time>
      </trkpt>
      <trkpt lat="48.02575" lon="5.8493">
        <ele>244.6</ele>
        <time>2019-05-30T09:12:01Z</time>
      </trkpt>
      <trkpt lat="48.02581" lon="5.84937">
        <ele>245.2</ele>
        <time>2019-05-30T09:12:05Z</time>
      </trkpt>
      <trkpt lat="48.02591" lon="5.8494">
        <ele>245.2</ele>
        <time>2019-05-30T09:12:09Z</time>
      </trkpt>
      <trkpt lat="48.02603" lon="5.84943">
        <ele>245.2</ele>
        <time>2019-05-30T09:12:13Z</time>
      </trkpt>
      <trkpt lat="48.02614" lon="5.84952">
        <ele>245.2</ele>
        <time>2019-05-30T09:12:17Z</time>
      </trkpt>
      <trkpt lat="48.02623" lon="5.84961">
        <ele>246.2</ele>
        <time>2019-05-30T09:12:21Z</time>
      </trkpt>
      <trkpt lat="48.02632" lon="5.84966">
        <ele>245.8</ele>
        <time>2019-05-30T09:12:25Z</time>
      </trkpt>
      <trkpt lat="48.02642" lon="5.84972">
        <ele>245.2</ele>
        <time>2019-05-30T09:12:29Z</time>
      </trkpt>
      <trkpt lat="48.02652" lon="5.84979">
        <ele>246.2</ele>
        <time>2019-05-30T09:12:33Z</time>
      </trkpt>
      <trkpt lat="48.02663" lon="5.8499">
        <ele>246.8</ele>
        <time>2019-05-30T09:12:37Z</time>
      </trkpt>
      <trkpt lat="48.02672" lon="5.84998">
        <ele>247</ele>
        <time>2019-05-30T09:12:41Z</time>
      </trkpt>
      <trkpt lat="48.02682" lon="5.85008">
        <ele>247</ele>
        <time>2019-05-30T09:12:45Z</time>
      </trkpt>
      <trkpt lat="48.02692" lon="5.85012">
        <ele>247.8</ele>
        <time>2019-05-30T09:12:49Z</time>
      </trkpt>
      <trkpt lat="48.02702" lon="5.85017">
        <ele>247.6</ele>
        <time>2019-05-30T09:12:53Z</time>
      </trkpt>
      <trkpt lat="48.02712" lon="5.8502">
        <ele>247.4</ele>
        <time>2019-05-30T09:12:57Z</time>
      </trkpt>
      <trkpt lat="48.02725" lon="5.85025">
        <ele>247.8</ele>
        <time>2019-05-30T09:13:01Z</time>
      </trkpt>
      <trkpt lat="48.02737" lon="5.8503">
        <ele>248</ele>
        <time>2019-05-30T09:13:05Z</time>
      </trkpt>
      <trkpt lat="48.02742" lon="5.85044">
        <ele>248.6</ele>
        <time>2019-05-30T09:13:09Z</time>
      </trkpt>
      <trkpt lat="48.02739" lon="5.85055">
        <ele>249.2</ele>
        <time>2019-05-30T09:13:13Z</time>
      </trkpt>
      <trkpt lat="48.0274" lon="5.85068">
        <ele>250</ele>
        <time>2019-05-30T09:13:17Z</time>
      </trkpt>
      <trkpt lat="48.02736" lon="5.85076">
        <ele>250.8</ele>
        <time>2019-05-30T09:13:21Z</time>
      </trkpt>
      <trkpt lat="48.02732" lon="5.85084">
        <ele>252.2</ele>
        <time>2019-05-30T09:13:25Z</time>
      </trkpt>
      <trkpt lat="48.02729" lon="5.85094">
        <ele>253.2</ele>
        <time>2019-05-30T09:13:29Z</time>
      </trkpt>
      <trkpt lat="48.02724" lon="5.85105">
        <ele>254.6</ele>
        <time>2019-05-30T09:13:33Z</time>
      </trkpt>
      <trkpt lat="48.02721" lon="5.85116">
        <ele>256</ele>
        <time>2019-05-30T09:13:37Z</time>
      </trkpt>
      <trkpt lat="48.02717" lon="5.85126">
        <ele>257.2</ele>
        <time>2019-05-30T09:13:41Z</time>
      </trkpt>
      <trkpt lat="48.02713" lon="5.85137">
        <ele>259.2</ele>
        <time>2019-05-30T09:13:45Z</time>
      </trkpt>
      <trkpt lat="48.02709" lon="5.85148">
        <ele>260.4</ele>
        <time>2019-05-30T09:13:49Z</time>
      </trkpt>
      <trkpt lat="48.02705" lon="5.85158">
        <ele>261</ele>
        <time>2019-05-30T09:13:53Z</time>
      </trkpt>
      <trkpt lat="48.02701" lon="5.85166">
        <ele>262</ele>
        <time>2019-05-30T09:13:57Z</time>
      </trkpt>
      <trkpt lat="48.02695" lon="5.85175">
        <ele>262.6</ele>
        <time>2019-05-30T09:14:01Z</time>
      </trkpt>
      <trkpt lat="48.02689" lon="5.85184">
        <ele>263</ele>
        <time>2019-05-30T09:14:05Z</time>
      </trkpt>
      <trkpt lat="48.0268" lon="5.85192">
        <ele>263.2</ele>
        <time>2019-05-30T09:14:09Z</time>
      </trkpt>
      <trkpt lat="48.02671" lon="5.852">
        <ele>263.6</ele>
        <time>2019-05-30T09:14:13Z</time>
      </trkpt>
      <trkpt lat="48.02664" lon="5.85209">
        <ele>263.6</ele>
        <time>2019-05-30T09:14:17Z</time>
      </trkpt>
      <trkpt lat="48.02658" lon="5.85221">
        <ele>263.6</ele>
        <time>2019-05-30T09:14:21Z</time>
      </trkpt>
      <trkpt lat="48.02657" lon="5.85236">
        <ele>264.4</ele>
        <time>2019-05-30T09:14:25Z</time>
      </trkpt>
      <trkpt lat="48.0265" lon="5.85247">
        <ele>263.6</ele>
        <time>2019-05-30T09:14:29Z</time>
      </trkpt>
      <trkpt lat="48.02645" lon="5.85259">
        <ele>263.4</ele>
        <time>2019-05-30T09:14:33Z</time>
      </trkpt>
      <trkpt lat="48.0264" lon="5.8527">
        <ele>263</ele>
        <time>2019-05-30T09:14:37Z</time>
      </trkpt>
      <trkpt lat="48.02636" lon="5.85282">
        <ele>262.6</ele>
        <time>2019-05-30T09:14:41Z</time>
      </trkpt>
      <trkpt lat="48.02628" lon="5.85297">
        <ele>261</ele>
        <time>2019-05-30T09:14:45Z</time>
      </trkpt>
      <trkpt lat="48.02618" lon="5.85321">
        <ele>260.2</ele>
        <time>2019-05-30T09:14:49Z</time>
      </trkpt>
      <trkpt lat="48.02607" lon="5.85345">
        <ele>260.4</ele>
        <time>2019-05-30T09:14:53Z</time>
      </trkpt>
      <trkpt lat="48.02601" lon="5.85362">
        <ele>260</ele>
        <time>2019-05-30T09:14:57Z</time>
      </trkpt>
      <trkpt lat="48.02601" lon="5.85362">
        <ele>260</ele>
        <time>2019-05-30T09:15:01Z</time>
      </trkpt>
      <trkpt lat="48.02601" lon="5.85362">
        <ele>260</ele>
        <time>2019-05-30T09:15:05Z</time>
      </trkpt>
      <trkpt lat="48.02595" lon="5.85379">
        <ele>259.8</ele>
        <time>2019-05-30T09:15:09Z</time>
      </trkpt>
      <trkpt lat="48.02586" lon="5.8539">
        <ele>259.4</ele>
        <time>2019-05-30T09:15:13Z</time>
      </trkpt>
      <trkpt lat="48.02573" lon="5.8541">
        <ele>258</ele>
        <time>2019-05-30T09:15:17Z</time>
      </trkpt>
      <trkpt lat="48.02575" lon="5.85421">
        <ele>259</ele>
        <time>2019-05-30T09:15:21Z</time>
      </trkpt>
      <trkpt lat="48.0258" lon="5.85428">
        <ele>259.6</ele>
        <time>2019-05-30T09:15:25Z</time>
      </trkpt>
      <trkpt lat="48.02585" lon="5.85434">
        <ele>260.4</ele>
        <time>2019-05-30T09:15:29Z</time>
      </trkpt>
      <trkpt lat="48.02588" lon="5.8544">
        <ele>260.8</ele>
        <time>2019-05-30T09:15:33Z</time>
      </trkpt>
      <trkpt lat="48.02592" lon="5.85446">
        <ele>261.8</ele>
        <time>2019-05-30T09:15:37Z</time>
      </trkpt>
      <trkpt lat="48.02597" lon="5.85452">
        <ele>262.4</ele>
        <time>2019-05-30T09:15:41Z</time>
      </trkpt>
      <trkpt lat="48.02602" lon="5.85457">
        <ele>263.4</ele>
        <time>2019-05-30T09:15:45Z</time>
      </trkpt>
      <trkpt lat="48.02608" lon="5.85461">
        <ele>264.6</ele>
        <time>2019-05-30T09:15:49Z</time>
      </trkpt>
      <trkpt lat="48.02612" lon="5.85468">
        <ele>265.4</ele>
        <time>2019-05-30T09:15:53Z</time>
      </trkpt>
      <trkpt lat="48.02618" lon="5.85476">
        <ele>266.2</ele>
        <time>2019-05-30T09:15:57Z</time>
      </trkpt>
      <trkpt lat="48.02623" lon="5.85482">
        <ele>267</ele>
        <time>2019-05-30T09:16:01Z</time>
      </trkpt>
      <trkpt lat="48.02627" lon="5.85486">
        <ele>267.6</ele>
        <time>2019-05-30T09:16:05Z</time>
      </trkpt>
      <trkpt lat="48.02635" lon="5.85495">
        <ele>268.8</ele>
        <time>2019-05-30T09:16:09Z</time>
      </trkpt>
      <trkpt lat="48.0264" lon="5.85501">
        <ele>269.2</ele>
        <time>2019-05-30T09:16:13Z</time>
      </trkpt>
      <trkpt lat="48.02646" lon="5.85508">
        <ele>270.2</ele>
        <time>2019-05-30T09:16:17Z</time>
      </trkpt>
      <trkpt lat="48.02653" lon="5.85515">
        <ele>270.6</ele>
        <time>2019-05-30T09:16:21Z</time>
      </trkpt>
      <trkpt lat="48.02658" lon="5.8552">
        <ele>271.2</ele>
        <time>2019-05-30T09:16:25Z</time>
      </trkpt>
      <trkpt lat="48.02665" lon="5.85527">
        <ele>271.8</ele>
        <time>2019-05-30T09:16:29Z</time>
      </trkpt>
      <trkpt lat="48.02669" lon="5.85531">
        <ele>272.4</ele>
        <time>2019-05-30T09:16:33Z</time>
      </trkpt>
      <trkpt lat="48.02675" lon="5.85539">
        <ele>273.2</ele>
        <time>2019-05-30T09:16:37Z</time>
      </trkpt>
      <trkpt lat="48.0268" lon="5.85543">
        <ele>273.6</ele>
        <time>2019-05-30T09:16:41Z</time>
      </trkpt>
      <trkpt lat="48.02687" lon="5.85551">
        <ele>274.8</ele>
        <time>2019-05-30T09:16:45Z</time>
      </trkpt>
      <trkpt lat="48.02693" lon="5.85558">
        <ele>274.8</ele>
        <time>2019-05-30T09:16:49Z</time>
      </trkpt>
      <trkpt lat="48.02698" lon="5.85564">
        <ele>275.8</ele>
        <time>2019-05-30T09:16:53Z</time>
      </trkpt>
      <trkpt lat="48.02703" lon="5.85569">
        <ele>276.4</ele>
        <time>2019-05-30T09:16:57Z</time>
      </trkpt>
      <trkpt lat="48.02709" lon="5.85574">
        <ele>277.2</ele>
        <time>2019-05-30T09:17:01Z</time>
      </trkpt>
      <trkpt lat="48.02716" lon="5.8558">
        <ele>277.4</ele>
        <time>2019-05-30T09:17:05Z</time>
      </trkpt>
      <trkpt lat="48.02721" lon="5.85587">
        <ele>278.4</ele>
        <time>2019-05-30T09:17:09Z</time>
      </trkpt>
      <trkpt lat="48.02727" lon="5.85594">
        <ele>278.8</ele>
        <time>2019-05-30T09:17:13Z</time>
      </trkpt>
      <trkpt lat="48.0273" lon="5.856">
        <ele>279.6</ele>
        <time>2019-05-30T09:17:17Z</time>
      </trkpt>
      <trkpt lat="48.02736" lon="5.85606">
        <ele>280.2</ele>
        <time>2019-05-30T09:17:21Z</time>
      </trkpt>
      <trkpt lat="48.02741" lon="5.8561">
        <ele>281</ele>
        <time>2019-05-30T09:17:25Z</time>
      </trkpt>
      <trkpt lat="48.02746" lon="5.85615">
        <ele>281.8</ele>
        <time>2019-05-30T09:17:29Z</time>
      </trkpt>
      <trkpt lat="48.02752" lon="5.85621">
        <ele>282.4</ele>
        <time>2019-05-30T09:17:33Z</time>
      </trkpt>
      <trkpt lat="48.02757" lon="5.85626">
        <ele>283.4</ele>
        <time>2019-05-30T09:17:37Z</time>
      </trkpt>
      <trkpt lat="48.02765" lon="5.85632">
        <ele>284</ele>
        <time>2019-05-30T09:17:41Z</time>
      </trkpt>
      <trkpt lat="48.02771" lon="5.8564">
        <ele>284.4</ele>
        <time>2019-05-30T09:17:45Z</time>
      </trkpt>
      <trkpt lat="48.02777" lon="5.85648">
        <ele>284.8</ele>
        <time>2019-05-30T09:17:49Z</time>
      </trkpt>
      <trkpt lat="48.02783" lon="5.85654">
        <ele>285.2</ele>
        <time>2019-05-30T09:17:53Z</time>
      </trkpt>
      <trkpt lat="48.0279" lon="5.85661">
        <ele>286.2</ele>
        <time>2019-05-30T09:17:57Z</time>
      </trkpt>
      <trkpt lat="48.02797" lon="5.85668">
        <ele>286.6</ele>
        <time>2019-05-30T09:18:01Z</time>
      </trkpt>
      <trkpt lat="48.02803" lon="5.85675">
        <ele>286.6</ele>
        <time>2019-05-30T09:18:05Z</time>
      </trkpt>
      <trkpt lat="48.0281" lon="5.85684">
        <ele>287</ele>
        <time>2019-05-30T09:18:09Z</time>
      </trkpt>
      <trkpt lat="48.02816" lon="5.85692">
        <ele>286.6</ele>
        <time>2019-05-30T09:18:13Z</time>
      </trkpt>
      <trkpt lat="48.02823" lon="5.857">
        <ele>287.2</ele>
        <time>2019-05-30T09:18:17Z</time>
      </trkpt>
      <trkpt lat="48.02829" lon="5.85708">
        <ele>287.4</ele>
        <time>2019-05-30T09:18:21Z</time>
      </trkpt>
      <trkpt lat="48.02835" lon="5.85714">
        <ele>287.6</ele>
        <time>2019-05-30T09:18:25Z</time>
      </trkpt>
      <trkpt lat="48.02842" lon="5.85722">
        <ele>287.4</ele>
        <time>2019-05-30T09:18:29Z</time>
      </trkpt>
      <trkpt lat="48.02851" lon="5.85732">
        <ele>287.6</ele>
        <time>2019-05-30T09:18:33Z</time>
      </trkpt>
      <trkpt lat="48.02861" lon="5.85742">
        <ele>287</ele>
        <time>2019-05-30T09:18:37Z</time>
      </trkpt>
      <trkpt lat="48.0287" lon="5.85753">
        <ele>286.6</ele>
        <time>2019-05-30T09:18:41Z</time>
      </trkpt>
      <trkpt lat="48.02879" lon="5.85763">
        <ele>285.6</ele>
        <time>2019-05-30T09:18:45Z</time>
      </trkpt>
      <trkpt lat="48.02891" lon="5.8577">
        <ele>285.2</ele>
        <time>2019-05-30T09:18:49Z</time>
      </trkpt>
      <trkpt lat="48.02903" lon="5.85777">
        <ele>285.6</ele>
        <time>2019-05-30T09:18:53Z</time>
      </trkpt>
      <trkpt lat="48.02917" lon="5.85784">
        <ele>286.6</ele>
        <time>2019-05-30T09:18:57Z</time>
      </trkpt>
      <trkpt lat="48.02929" lon="5.8579">
        <ele>286.6</ele>
        <time>2019-05-30T09:19:01Z</time>
      </trkpt>
      <trkpt lat="48.0294" lon="5.85796">
        <ele>287.2</ele>
        <time>2019-05-30T09:19:05Z</time>
      </trkpt>
      <trkpt lat="48.02953" lon="5.85798">
        <ele>288.2</ele>
        <time>2019-05-30T09:19:09Z</time>
      </trkpt>
      <trkpt lat="48.0297" lon="5.85803">
        <ele>287.8</ele>
        <time>2019-05-30T09:19:13Z</time>
      </trkpt>
      <trkpt lat="48.02985" lon="5.8581">
        <ele>288.4</ele>
        <time>2019-05-30T09:19:17Z</time>
      </trkpt>
      <trkpt lat="48.02999" lon="5.85815">
        <ele>288.2</ele>
        <time>2019-05-30T09:19:21Z</time>
      </trkpt>
      <trkpt lat="48.03013" lon="5.8582">
        <ele>289</ele>
        <time>2019-05-30T09:19:25Z</time>
      </trkpt>
      <trkpt lat="48.0303" lon="5.85826">
        <ele>289.4</ele>
        <time>2019-05-30T09:19:29Z</time>
      </trkpt>
      <trkpt lat="48.03043" lon="5.85831">
        <ele>289.2</ele>
        <time>2019-05-30T09:19:33Z</time>
      </trkpt>
      <trkpt lat="48.03055" lon="5.85833">
        <ele>289.8</ele>
        <time>2019-05-30T09:19:37Z</time>
      </trkpt>
      <trkpt lat="48.03055" lon="5.85833">
        <ele>289.8</ele>
        <time>2019-05-30T09:19:41Z</time>
      </trkpt>
      <trkpt lat="48.03055" lon="5.85833">
        <ele>289.8</ele>
        <time>2019-05-30T09:19:45Z</time>
      </trkpt>
      <trkpt lat="48.0307" lon="5.85836">
        <ele>290</ele>
        <time>2019-05-30T09:19:49Z</time>
      </trkpt>
      <trkpt lat="48.03074" lon="5.85838">
        <ele>290</ele>
        <time>2019-05-30T09:19:53Z</time>
      </trkpt>
      <trkpt lat="48.0308" lon="5.85844">
        <ele>288.8</ele>
        <time>2019-05-30T09:19:57Z</time>
      </trkpt>
      <trkpt lat="48.03093" lon="5.85855">
        <ele>289.4</ele>
        <time>2019-05-30T09:20:01Z</time>
      </trkpt>
      <trkpt lat="48.03116" lon="5.85868">
        <ele>285.4</ele>
        <time>2019-05-30T09:20:05Z</time>
      </trkpt>
      <trkpt lat="48.03135" lon="5.85883">
        <ele>284.2</ele>
        <time>2019-05-30T09:20:09Z</time>
      </trkpt>
      <trkpt lat="48.03133" lon="5.85901">
        <ele>281.2</ele>
        <time>2019-05-30T09:20:13Z</time>
      </trkpt>
      <trkpt lat="48.03138" lon="5.85913">
        <ele>279.8</ele>
        <time>2019-05-30T09:20:17Z</time>
      </trkpt>
      <trkpt lat="48.03159" lon="5.85927">
        <ele>275.6</ele>
        <time>2019-05-30T09:20:21Z</time>
      </trkpt>
      <trkpt lat="48.03176" lon="5.8594">
        <ele>276.6</ele>
        <time>2019-05-30T09:20:25Z</time>
      </trkpt>
      <trkpt lat="48.03194" lon="5.85947">
        <ele>277</ele>
        <time>2019-05-30T09:20:29Z</time>
      </trkpt>
      <trkpt lat="48.0321" lon="5.85945">
        <ele>277.4</ele>
        <time>2019-05-30T09:20:33Z</time>
      </trkpt>
      <trkpt lat="48.03222" lon="5.85936">
        <ele>279</ele>
        <time>2019-05-30T09:20:37Z</time>
      </trkpt>
      <trkpt lat="48.03229" lon="5.8593">
        <ele>280.8</ele>
        <time>2019-05-30T09:20:41Z</time>
      </trkpt>
      <trkpt lat="48.03234" lon="5.85924">
        <ele>282.4</ele>
        <time>2019-05-30T09:20:45Z</time>
      </trkpt>
      <trkpt lat="48.03241" lon="5.85918">
        <ele>283.8</ele>
        <time>2019-05-30T09:20:49Z</time>
      </trkpt>
      <trkpt lat="48.03247" lon="5.85916">
        <ele>284.4</ele>
        <time>2019-05-30T09:20:53Z</time>
      </trkpt>
      <trkpt lat="48.03251" lon="5.85917">
        <ele>284.8</ele>
        <time>2019-05-30T09:20:57Z</time>
      </trkpt>
      <trkpt lat="48.03259" lon="5.85918">
        <ele>285.2</ele>
        <time>2019-05-30T09:21:01Z</time>
      </trkpt>
      <trkpt lat="48.03264" lon="5.85919">
        <ele>285.4</ele>
        <time>2019-05-30T09:21:05Z</time>
      </trkpt>
      <trkpt lat="48.03272" lon="5.85921">
        <ele>286</ele>
        <time>2019-05-30T09:21:09Z</time>
      </trkpt>
      <trkpt lat="48.03278" lon="5.85923">
        <ele>286</ele>
        <time>2019-05-30T09:21:13Z</time>
      </trkpt>
      <trkpt lat="48.03287" lon="5.85927">
        <ele>286.8</ele>
        <time>2019-05-30T09:21:17Z</time>
      </trkpt>
      <trkpt lat="48.03296" lon="5.8593">
        <ele>286.6</ele>
        <time>2019-05-30T09:21:21Z</time>
      </trkpt>
      <trkpt lat="48.03305" lon="5.85926">
        <ele>287.8</ele>
        <time>2019-05-30T09:21:25Z</time>
      </trkpt>
      <trkpt lat="48.03311" lon="5.85915">
        <ele>289.4</ele>
        <time>2019-05-30T09:21:29Z</time>
      </trkpt>
      <trkpt lat="48.03318" lon="5.85916">
        <ele>290.2</ele>
        <time>2019-05-30T09:21:33Z</time>
      </trkpt>
      <trkpt lat="48.03323" lon="5.85919">
        <ele>290.2</ele>
        <time>2019-05-30T09:21:37Z</time>
      </trkpt>
      <trkpt lat="48.03331" lon="5.85922">
        <ele>290.8</ele>
        <time>2019-05-30T09:21:41Z</time>
      </trkpt>
      <trkpt lat="48.03337" lon="5.85924">
        <ele>290.6</ele>
        <time>2019-05-30T09:21:45Z</time>
      </trkpt>
      <trkpt lat="48.03347" lon="5.85927">
        <ele>291</ele>
        <time>2019-05-30T09:21:49Z</time>
      </trkpt>
      <trkpt lat="48.03356" lon="5.85932">
        <ele>291.2</ele>
        <time>2019-05-30T09:21:53Z</time>
      </trkpt>
      <trkpt lat="48.03369" lon="5.85936">
        <ele>291.6</ele>
        <time>2019-05-30T09:21:57Z</time>
      </trkpt>
      <trkpt lat="48.03376" lon="5.85938">
        <ele>292.2</ele>
        <time>2019-05-30T09:22:01Z</time>
      </trkpt>
      <trkpt lat="48.03386" lon="5.85942">
        <ele>292.2</ele>
        <time>2019-05-30T09:22:05Z</time>
      </trkpt>
      <trkpt lat="48.03396" lon="5.85946">
        <ele>291.6</ele>
        <time>2019-05-30T09:22:09Z</time>
      </trkpt>
      <trkpt lat="48.03404" lon="5.8595">
        <ele>291.2</ele>
        <time>2019-05-30T09:22:13Z</time>
      </trkpt>
      <trkpt lat="48.03412" lon="5.85964">
        <ele>289.6</ele>
        <time>2019-05-30T09:22:17Z</time>
      </trkpt>
      <trkpt lat="48.03424" lon="5.85984">
        <ele>287.8</ele>
        <time>2019-05-30T09:22:21Z</time>
      </trkpt>
      <trkpt lat="48.03424" lon="5.85984">
        <ele>287.8</ele>
        <time>2019-05-30T09:22:25Z</time>
      </trkpt>
      <trkpt lat="48.03424" lon="5.85984">
        <ele>287.8</ele>
        <time>2019-05-30T09:22:29Z</time>
      </trkpt>
      <trkpt lat="48.03424" lon="5.85984">
        <ele>287.8</ele>
        <time>2019-05-30T09:22:33Z</time>
      </trkpt>
      <trkpt lat="48.03424" lon="5.85984">
        <ele>287.8</ele>
        <time>2019-05-30T09:22:37Z</time>
      </trkpt>
      <trkpt lat="48.03424" lon="5.85984">
        <ele>287.8</ele>
        <time>2019-05-30T09:22:41Z</time>
      </trkpt>
      <trkpt lat="48.03424" lon="5.85984">
        <ele>287.8</ele>
        <time>2019-05-30T09:22:45Z</time>
      </trkpt>
      <trkpt lat="48.03424" lon="5.85984">
        <ele>287.8</ele>
        <time>2019-05-30T09:22:49Z</time>
      </trkpt>
      <trkpt lat="48.03424" lon="5.85984">
        <ele>287.8</ele>
        <time>2019-05-30T09:22:53Z</time>
      </trkpt>
      <trkpt lat="48.03424" lon="5.85984">
        <ele>287.8</ele>
        <time>2019-05-30T09:22:57Z</time>
      </trkpt>
      <trkpt lat="48.03424" lon="5.85984">
        <ele>287.8</ele>
        <time>2019-05-30T09:23:01Z</time>
      </trkpt>
      <trkpt lat="48.03424" lon="5.85984">
        <ele>287.8</ele>
        <time>2019-05-30T09:23:05Z</time>
      </trkpt>
      <trkpt lat="48.03424" lon="5.85984">
        <ele>287.8</ele>
        <time>2019-05-30T09:23:09Z</time>
      </trkpt>
      <trkpt lat="48.03424" lon="5.85984">
        <ele>287.8</ele>
        <time>2019-05-30T09:23:13Z</time>
      </trkpt>
      <trkpt lat="48.03424" lon="5.85984">
        <ele>287.8</ele>
        <time>2019-05-30T09:23:17Z</time>
      </trkpt>
      <trkpt lat="48.03452" lon="5.85998">
        <ele>287.6</ele>
        <time>2019-05-30T09:23:21Z</time>
      </trkpt>
      <trkpt lat="48.03461" lon="5.86002">
        <ele>286.2</ele>
        <time>2019-05-30T09:23:25Z</time>
      </trkpt>
      <trkpt lat="48.0347" lon="5.8601">
        <ele>285.8</ele>
        <time>2019-05-30T09:23:29Z</time>
      </trkpt>
      <trkpt lat="48.0348" lon="5.86036">
        <ele>283</ele>
        <time>2019-05-30T09:23:33Z</time>
      </trkpt>
      <trkpt lat="48.03488" lon="5.8606">
        <ele>279.2</ele>
        <time>2019-05-30T09:23:37Z</time>
      </trkpt>
      <trkpt lat="48.03494" lon="5.86082">
        <ele>277.6</ele>
        <time>2019-05-30T09:23:41Z</time>
      </trkpt>
      <trkpt lat="48.03508" lon="5.86103">
        <ele>274</ele>
        <time>2019-05-30T09:23:45Z</time>
      </trkpt>
      <trkpt lat="48.03518" lon="5.86122">
        <ele>271</ele>
        <time>2019-05-30T09:23:49Z</time>
      </trkpt>
      <trkpt lat="48.03528" lon="5.86146">
        <ele>269.6</ele>
        <time>2019-05-30T09:23:53Z</time>
      </trkpt>
      <trkpt lat="48.0354" lon="5.86165">
        <ele>268</ele>
        <time>2019-05-30T09:23:57Z</time>
      </trkpt>
      <trkpt lat="48.03557" lon="5.86179">
        <ele>265.4</ele>
        <time>2019-05-30T09:24:01Z</time>
      </trkpt>
      <trkpt lat="48.03567" lon="5.86188">
        <ele>266.2</ele>
        <time>2019-05-30T09:24:05Z</time>
      </trkpt>
      <trkpt lat="48.03576" lon="5.86195">
        <ele>265.2</ele>
        <time>2019-05-30T09:24:09Z</time>
      </trkpt>
      <trkpt lat="48.03587" lon="5.862">
        <ele>265.2</ele>
        <time>2019-05-30T09:24:13Z</time>
      </trkpt>
      <trkpt lat="48.03598" lon="5.86191">
        <ele>264.6</ele>
        <time>2019-05-30T09:24:17Z</time>
      </trkpt>
      <trkpt lat="48.03608" lon="5.86177">
        <ele>264.6</ele>
        <time>2019-05-30T09:24:21Z</time>
      </trkpt>
      <trkpt lat="48.03614" lon="5.86164">
        <ele>264.4</ele>
        <time>2019-05-30T09:24:25Z</time>
      </trkpt>
      <trkpt lat="48.03625" lon="5.86147">
        <ele>263.6</ele>
        <time>2019-05-30T09:24:29Z</time>
      </trkpt>
      <trkpt lat="48.03634" lon="5.86132">
        <ele>264.4</ele>
        <time>2019-05-30T09:24:33Z</time>
      </trkpt>
      <trkpt lat="48.0364" lon="5.86115">
        <ele>265</ele>
        <time>2019-05-30T09:24:37Z</time>
      </trkpt>
      <trkpt lat="48.03645" lon="5.86099">
        <ele>264.6</ele>
        <time>2019-05-30T09:24:41Z</time>
      </trkpt>
      <trkpt lat="48.03653" lon="5.86088">
        <ele>262.6</ele>
        <time>2019-05-30T09:24:45Z</time>
      </trkpt>
      <trkpt lat="48.03667" lon="5.86085">
        <ele>262</ele>
        <time>2019-05-30T09:24:49Z</time>
      </trkpt>
      <trkpt lat="48.03681" lon="5.86092">
        <ele>261.4</ele>
        <time>2019-05-30T09:24:53Z</time>
      </trkpt>
      <trkpt lat="48.03693" lon="5.861">
        <ele>260.8</ele>
        <time>2019-05-30T09:24:57Z</time>
      </trkpt>
      <trkpt lat="48.03706" lon="5.86112">
        <ele>260.4</ele>
        <time>2019-05-30T09:25:01Z</time>
      </trkpt>
      <trkpt lat="48.0372" lon="5.86125">
        <ele>260</ele>
        <time>2019-05-30T09:25:05Z</time>
      </trkpt>
      <trkpt lat="48.03736" lon="5.86136">
        <ele>258.2</ele>
        <time>2019-05-30T09:25:09Z</time>
      </trkpt>
      <trkpt lat="48.03749" lon="5.86148">
        <ele>258.2</ele>
        <time>2019-05-30T09:25:13Z</time>
      </trkpt>
      <trkpt lat="48.03749" lon="5.86148">
        <ele>258.2</ele>
        <time>2019-05-30T09:25:17Z</time>
      </trkpt>
      <trkpt lat="48.03749" lon="5.86148">
        <ele>258.2</ele>
        <time>2019-05-30T09:25:21Z</time>
      </trkpt>
      <trkpt lat="48.03763" lon="5.86152">
        <ele>258.4</ele>
        <time>2019-05-30T09:25:25Z</time>
      </trkpt>
      <trkpt lat="48.03763" lon="5.86152">
        <ele>258.4</ele>
        <time>2019-05-30T09:25:29Z</time>
      </trkpt>
      <trkpt lat="48.03763" lon="5.86152">
        <ele>258.4</ele>
        <time>2019-05-30T09:25:33Z</time>
      </trkpt>
      <trkpt lat="48.03763" lon="5.86152">
        <ele>258.4</ele>
        <time>2019-05-30T09:25:37Z</time>
      </trkpt>
      <trkpt lat="48.03766" lon="5.86151">
        <ele>257.8</ele>
        <time>2019-05-30T09:25:41Z</time>
      </trkpt>
      <trkpt lat="48.03771" lon="5.86158">
        <ele>257.4</ele>
        <time>2019-05-30T09:25:45Z</time>
      </trkpt>
      <trkpt lat="48.03781" lon="5.86169">
        <ele>257.2</ele>
        <time>2019-05-30T09:25:49Z</time>
      </trkpt>
      <trkpt lat="48.03793" lon="5.86177">
        <ele>256.6</ele>
        <time>2019-05-30T09:25:53Z</time>
      </trkpt>
      <trkpt lat="48.03803" lon="5.86178">
        <ele>256.6</ele>
        <time>2019-05-30T09:25:57Z</time>
      </trkpt>
      <trkpt lat="48.03813" lon="5.8619">
        <ele>257.2</ele>
        <time>2019-05-30T09:26:01Z</time>
      </trkpt>
      <trkpt lat="48.03822" lon="5.86204">
        <ele>256</ele>
        <time>2019-05-30T09:26:05Z</time>
      </trkpt>
      <trkpt lat="48.03828" lon="5.86206">
        <ele>255.8</ele>
        <time>2019-05-30T09:26:09Z</time>
      </trkpt>
      <trkpt lat="48.03833" lon="5.86213">
        <ele>256.2</ele>
        <time>2019-05-30T09:26:13Z</time>
      </trkpt>
      <trkpt lat="48.03833" lon="5.86226">
        <ele>256.2</ele>
        <time>2019-05-30T09:26:17Z</time>
      </trkpt>
      <trkpt lat="48.03836" lon="5.86244">
        <ele>255</ele>
        <time>2019-05-30T09:26:21Z</time>
      </trkpt>
      <trkpt lat="48.03844" lon="5.86262">
        <ele>255.6</ele>
        <time>2019-05-30T09:26:25Z</time>
      </trkpt>
      <trkpt lat="48.03856" lon="5.86271">
        <ele>255.8</ele>
        <time>2019-05-30T09:26:29Z</time>
      </trkpt>
      <trkpt lat="48.03868" lon="5.86272">
        <ele>256.6</ele>
        <time>2019-05-30T09:26:33Z</time>
      </trkpt>
      <trkpt lat="48.03881" lon="5.86274">
        <ele>256.2</ele>
        <time>2019-05-30T09:26:37Z</time>
      </trkpt>
      <trkpt lat="48.03895" lon="5.86277">
        <ele>256.4</ele>
        <time>2019-05-30T09:26:41Z</time>
      </trkpt>
      <trkpt lat="48.03902" lon="5.86287">
        <ele>256.2</ele>
        <time>2019-05-30T09:26:45Z</time>
      </trkpt>
      <trkpt lat="48.03915" lon="5.86297">
        <ele>256.4</ele>
        <time>2019-05-30T09:26:49Z</time>
      </trkpt>
      <trkpt lat="48.03927" lon="5.863">
        <ele>256.6</ele>
        <time>2019-05-30T09:26:53Z</time>
      </trkpt>
      <trkpt lat="48.03937" lon="5.86302">
        <ele>256.8</ele>
        <time>2019-05-30T09:26:57Z</time>
      </trkpt>
      <trkpt lat="48.03949" lon="5.86304">
        <ele>256.6</ele>
        <time>2019-05-30T09:27:01Z</time>
      </trkpt>
      <trkpt lat="48.03961" lon="5.86307">
        <ele>256.4</ele>
        <time>2019-05-30T09:27:05Z</time>
      </trkpt>
      <trkpt lat="48.03972" lon="5.8631">
        <ele>257</ele>
        <time>2019-05-30T09:27:09Z</time>
      </trkpt>
      <trkpt lat="48.03984" lon="5.86313">
        <ele>257</ele>
        <time>2019-05-30T09:27:13Z</time>
      </trkpt>
      <trkpt lat="48.03997" lon="5.86322">
        <ele>257</ele>
        <time>2019-05-30T09:27:17Z</time>
      </trkpt>
      <trkpt lat="48.03994" lon="5.86334">
        <ele>256.6</ele>
        <time>2019-05-30T09:27:21Z</time>
      </trkpt>
      <trkpt lat="48.03993" lon="5.86351">
        <ele>256</ele>
        <time>2019-05-30T09:27:25Z</time>
      </trkpt>
      <trkpt lat="48.0399" lon="5.86369">
        <ele>256</ele>
        <time>2019-05-30T09:27:29Z</time>
      </trkpt>
      <trkpt lat="48.03985" lon="5.86386">
        <ele>256.2</ele>
        <time>2019-05-30T09:27:33Z</time>
      </trkpt>
      <trkpt lat="48.03981" lon="5.86401">
        <ele>256.2</ele>
        <time>2019-05-30T09:27:37Z</time>
      </trkpt>
      <trkpt lat="48.0398" lon="5.86419">
        <ele>255.4</ele>
        <time>2019-05-30T09:27:41Z</time>
      </trkpt>
      <trkpt lat="48.03978" lon="5.8644">
        <ele>255</ele>
        <time>2019-05-30T09:27:45Z</time>
      </trkpt>
      <trkpt lat="48.03978" lon="5.86459">
        <ele>255</ele>
        <time>2019-05-30T09:27:49Z</time>
      </trkpt>
      <trkpt lat="48.03978" lon="5.86481">
        <ele>254.4</ele>
        <time>2019-05-30T09:27:53Z</time>
      </trkpt>
      <trkpt lat="48.03974" lon="5.86501">
        <ele>253.8</ele>
        <time>2019-05-30T09:27:57Z</time>
      </trkpt>
      <trkpt lat="48.03969" lon="5.86518">
        <ele>253.8</ele>
        <time>2019-05-30T09:28:01Z</time>
      </trkpt>
      <trkpt lat="48.03969" lon="5.86518">
        <ele>253.8</ele>
        <time>2019-05-30T09:28:05Z</time>
      </trkpt>
      <trkpt lat="48.03969" lon="5.86518">
        <ele>253.8</ele>
        <time>2019-05-30T09:28:09Z</time>
      </trkpt>
      <trkpt lat="48.03969" lon="5.86518">
        <ele>253.8</ele>
        <time>2019-05-30T09:28:13Z</time>
      </trkpt>
      <trkpt lat="48.03969" lon="5.86518">
        <ele>253.8</ele>
        <time>2019-05-30T09:28:17Z</time>
      </trkpt>
      <trkpt lat="48.03969" lon="5.86518">
        <ele>253.8</ele>
        <time>2019-05-30T09:28:21Z</time>
      </trkpt>
      <trkpt lat="48.03969" lon="5.86518">
        <ele>253.8</ele>
        <time>2019-05-30T09:28:25Z</time>
      </trkpt>
      <trkpt lat="48.03969" lon="5.86518">
        <ele>253.8</ele>
        <time>2019-05-30T09:28:29Z</time>
      </trkpt>
      <trkpt lat="48.03969" lon="5.86518">
        <ele>253.8</ele>
        <time>2019-05-30T09:28:33Z</time>
      </trkpt>
      <trkpt lat="48.03964" lon="5.86529">
        <ele>253.4</ele>
        <time>2019-05-30T09:28:37Z</time>
      </trkpt>
      <trkpt lat="48.03958" lon="5.86527">
        <ele>253.4</ele>
        <time>2019-05-30T09:28:41Z</time>
      </trkpt>
      <trkpt lat="48.03946" lon="5.86525">
        <ele>252.8</ele>
        <time>2019-05-30T09:28:45Z</time>
      </trkpt>
      <trkpt lat="48.03935" lon="5.86523">
        <ele>253.6</ele>
        <time>2019-05-30T09:28:49Z</time>
      </trkpt>
      <trkpt lat="48.03923" lon="5.8652">
        <ele>253.4</ele>
        <time>2019-05-30T09:28:53Z</time>
      </trkpt>
      <trkpt lat="48.03913" lon="5.86518">
        <ele>252.6</ele>
        <time>2019-05-30T09:28:57Z</time>
      </trkpt>
      <trkpt lat="48.03905" lon="5.86522">
        <ele>252.2</ele>
        <time>2019-05-30T09:29:01Z</time>
      </trkpt>
      <trkpt lat="48.03903" lon="5.86529">
        <ele>252.2</ele>
        <time>2019-05-30T09:29:05Z</time>
      </trkpt>
      <trkpt lat="48.03905" lon="5.86538">
        <ele>252.2</ele>
        <time>2019-05-30T09:29:09Z</time>
      </trkpt>
      <trkpt lat="48.03904" lon="5.86548">
        <ele>251.8</ele>
        <time>2019-05-30T09:29:13Z</time>
      </trkpt>
      <trkpt lat="48.03903" lon="5.86556">
        <ele>253.6</ele>
        <time>2019-05-30T09:29:17Z</time>
      </trkpt>
      <trkpt lat="48.03903" lon="5.86569">
        <ele>253.4</ele>
        <time>2019-05-30T09:29:21Z</time>
      </trkpt>
      <trkpt lat="48.03905" lon="5.86576">
        <ele>252.2</ele>
        <time>2019-05-30T09:29:25Z</time>
      </trkpt>
      <trkpt lat="48.03909" lon="5.86581">
        <ele>252.2</ele>
        <time>2019-05-30T09:29:29Z</time>
      </trkpt>
      <trkpt lat="48.03914" lon="5.8659">
        <ele>252.2</ele>
        <time>2019-05-30T09:29:33Z</time>
      </trkpt>
      <trkpt lat="48.0392" lon="5.86599">
        <ele>251</ele>
        <time>2019-05-30T09:29:37Z</time>
      </trkpt>
      <trkpt lat="48.03925" lon="5.86609">
        <ele>251.8</ele>
        <time>2019-05-30T09:29:41Z</time>
      </trkpt>
      <trkpt lat="48.03929" lon="5.86623">
        <ele>251.4</ele>
        <time>2019-05-30T09:29:45Z</time>
      </trkpt>
      <trkpt lat="48.03931" lon="5.86631">
        <ele>251.6</ele>
        <time>2019-05-30T09:29:49Z</time>
      </trkpt>
      <trkpt lat="48.03933" lon="5.86642">
        <ele>251.6</ele>
        <time>2019-05-30T09:29:53Z</time>
      </trkpt>
      <trkpt lat="48.03939" lon="5.8665">
        <ele>250.8</ele>
        <time>2019-05-30T09:29:57Z</time>
      </trkpt>
      <trkpt lat="48.03944" lon="5.86661">
        <ele>251.6</ele>
        <time>2019-05-30T09:30:01Z</time>
      </trkpt>
      <trkpt lat="48.03947" lon="5.86672">
        <ele>251.6</ele>
        <time>2019-05-30T09:30:05Z</time>
      </trkpt>
      <trkpt lat="48.03954" lon="5.86685">
        <ele>250.6</ele>
        <time>2019-05-30T09:30:09Z</time>
      </trkpt>
      <trkpt lat="48.03962" lon="5.86697">
        <ele>251.6</ele>
        <time>2019-05-30T09:30:13Z</time>
      </trkpt>
      <trkpt lat="48.03968" lon="5.86705">
        <ele>251.4</ele>
        <time>2019-05-30T09:30:17Z</time>
      </trkpt>
      <trkpt lat="48.03974" lon="5.86719">
        <ele>250.8</ele>
        <time>2019-05-30T09:30:21Z</time>
      </trkpt>
      <trkpt lat="48.0398" lon="5.86719">
        <ele>250.6</ele>
        <time>2019-05-30T09:30:25Z</time>
      </trkpt>
      <trkpt lat="48.03988" lon="5.86719">
        <ele>250.4</ele>
        <time>2019-05-30T09:30:29Z</time>
      </trkpt>
      <trkpt lat="48.03997" lon="5.86726">
        <ele>250.8</ele>
        <time>2019-05-30T09:30:33Z</time>
      </trkpt>
      <trkpt lat="48.04004" lon="5.86737">
        <ele>250.6</ele>
        <time>2019-05-30T09:30:37Z</time>
      </trkpt>
      <trkpt lat="48.04013" lon="5.86751">
        <ele>250</ele>
        <time>2019-05-30T09:30:41Z</time>
      </trkpt>
      <trkpt lat="48.04019" lon="5.86764">
        <ele>249.4</ele>
        <time>2019-05-30T09:30:45Z</time>
      </trkpt>
      <trkpt lat="48.04019" lon="5.86764">
        <ele>249.4</ele>
        <time>2019-05-30T09:30:49Z</time>
      </trkpt>
      <trkpt lat="48.04019" lon="5.86764">
        <ele>249.4</ele>
        <time>2019-05-30T09:30:53Z</time>
      </trkpt>
      <trkpt lat="48.04023" lon="5.86769">
        <ele>248.6</ele>
        <time>2019-05-30T09:30:57Z</time>
      </trkpt>
      <trkpt lat="48.04028" lon="5.8677">
        <ele>248.4</ele>
        <time>2019-05-30T09:31:01Z</time>
      </trkpt>
      <trkpt lat="48.04029" lon="5.86767">
        <ele>249.2</ele>
        <time>2019-05-30T09:31:05Z</time>
      </trkpt>
      <trkpt lat="48.04035" lon="5.86768">
        <ele>249.4</ele>
        <time>2019-05-30T09:31:09Z</time>
      </trkpt>
      <trkpt lat="48.0404" lon="5.8677">
        <ele>250.2</ele>
        <time>2019-05-30T09:31:13Z</time>
      </trkpt>
      <trkpt lat="48.04045" lon="5.86772">
        <ele>250</ele>
        <time>2019-05-30T09:31:17Z</time>
      </trkpt>
      <trkpt lat="48.0405" lon="5.86773">
        <ele>250.6</ele>
        <time>2019-05-30T09:31:21Z</time>
      </trkpt>
      <trkpt lat="48.04056" lon="5.86774">
        <ele>249.8</ele>
        <time>2019-05-30T09:31:25Z</time>
      </trkpt>
      <trkpt lat="48.04065" lon="5.86775">
        <ele>249.4</ele>
        <time>2019-05-30T09:31:29Z</time>
      </trkpt>
      <trkpt lat="48.04065" lon="5.86775">
        <ele>249.4</ele>
        <time>2019-05-30T09:31:33Z</time>
      </trkpt>
      <trkpt lat="48.0408" lon="5.86777">
        <ele>248.2</ele>
        <time>2019-05-30T09:31:37Z</time>
      </trkpt>
      <trkpt lat="48.04088" lon="5.8678">
        <ele>247</ele>
        <time>2019-05-30T09:31:41Z</time>
      </trkpt>
      <trkpt lat="48.041" lon="5.8678">
        <ele>248.6</ele>
        <time>2019-05-30T09:31:45Z</time>
      </trkpt>
      <trkpt lat="48.04113" lon="5.8678">
        <ele>249</ele>
        <time>2019-05-30T09:31:49Z</time>
      </trkpt>
      <trkpt lat="48.04125" lon="5.8678">
        <ele>249.4</ele>
        <time>2019-05-30T09:31:53Z</time>
      </trkpt>
      <trkpt lat="48.04132" lon="5.86781">
        <ele>251.6</ele>
        <time>2019-05-30T09:31:57Z</time>
      </trkpt>
      <trkpt lat="48.04142" lon="5.8678">
        <ele>251.4</ele>
        <time>2019-05-30T09:32:01Z</time>
      </trkpt>
      <trkpt lat="48.04151" lon="5.8678">
        <ele>252.4</ele>
        <time>2019-05-30T09:32:05Z</time>
      </trkpt>
      <trkpt lat="48.04162" lon="5.86784">
        <ele>253.4</ele>
        <time>2019-05-30T09:32:09Z</time>
      </trkpt>
      <trkpt lat="48.04171" lon="5.86791">
        <ele>254</ele>
        <time>2019-05-30T09:32:13Z</time>
      </trkpt>
      <trkpt lat="48.04178" lon="5.86802">
        <ele>253.8</ele>
        <time>2019-05-30T09:32:17Z</time>
      </trkpt>
      <trkpt lat="48.0418" lon="5.86816">
        <ele>254</ele>
        <time>2019-05-30T09:32:21Z</time>
      </trkpt>
      <trkpt lat="48.04183" lon="5.86829">
        <ele>254.2</ele>
        <time>2019-05-30T09:32:25Z</time>
      </trkpt>
      <trkpt lat="48.04186" lon="5.86844">
        <ele>254.2</ele>
        <time>2019-05-30T09:32:29Z</time>
      </trkpt>
      <trkpt lat="48.04184" lon="5.8686">
        <ele>253.8</ele>
        <time>2019-05-30T09:32:33Z</time>
      </trkpt>
      <trkpt lat="48.04186" lon="5.86886">
        <ele>254.2</ele>
        <time>2019-05-30T09:32:37Z</time>
      </trkpt>
      <trkpt lat="48.04186" lon="5.86906">
        <ele>254.2</ele>
        <time>2019-05-30T09:32:41Z</time>
      </trkpt>
      <trkpt lat="48.04185" lon="5.86928">
        <ele>253.8</ele>
        <time>2019-05-30T09:32:45Z</time>
      </trkpt>
      <trkpt lat="48.04186" lon="5.8695">
        <ele>253</ele>
        <time>2019-05-30T09:32:49Z</time>
      </trkpt>
      <trkpt lat="48.04186" lon="5.86982">
        <ele>252.6</ele>
        <time>2019-05-30T09:32:53Z</time>
      </trkpt>
      <trkpt lat="48.04184" lon="5.87012">
        <ele>252.2</ele>
        <time>2019-05-30T09:32:57Z</time>
      </trkpt>
      <trkpt lat="48.04183" lon="5.87048">
        <ele>248.4</ele>
        <time>2019-05-30T09:33:01Z</time>
      </trkpt>
      <trkpt lat="48.04181" lon="5.87073">
        <ele>247.8</ele>
        <time>2019-05-30T09:33:05Z</time>
      </trkpt>
      <trkpt lat="48.04181" lon="5.87073">
        <ele>247.8</ele>
        <time>2019-05-30T09:33:09Z</time>
      </trkpt>
      <trkpt lat="48.04177" lon="5.87089">
        <ele>247.4</ele>
        <time>2019-05-30T09:33:13Z</time>
      </trkpt>
      <trkpt lat="48.04173" lon="5.87105">
        <ele>247.2</ele>
        <time>2019-05-30T09:33:17Z</time>
      </trkpt>
      <trkpt lat="48.04173" lon="5.87122">
        <ele>247.2</ele>
        <time>2019-05-30T09:33:21Z</time>
      </trkpt>
      <trkpt lat="48.04174" lon="5.8714">
        <ele>247.4</ele>
        <time>2019-05-30T09:33:25Z</time>
      </trkpt>
      <trkpt lat="48.04174" lon="5.87161">
        <ele>246.8</ele>
        <time>2019-05-30T09:33:29Z</time>
      </trkpt>
      <trkpt lat="48.04176" lon="5.87188">
        <ele>245.2</ele>
        <time>2019-05-30T09:33:33Z</time>
      </trkpt>
      <trkpt lat="48.04176" lon="5.87217">
        <ele>245.8</ele>
        <time>2019-05-30T09:33:37Z</time>
      </trkpt>
      <trkpt lat="48.04172" lon="5.87252">
        <ele>244.8</ele>
        <time>2019-05-30T09:33:41Z</time>
      </trkpt>
      <trkpt lat="48.04174" lon="5.87282">
        <ele>246.8</ele>
        <time>2019-05-30T09:33:45Z</time>
      </trkpt>
      <trkpt lat="48.04172" lon="5.87315">
        <ele>246</ele>
        <time>2019-05-30T09:33:49Z</time>
      </trkpt>
      <trkpt lat="48.0417" lon="5.87347">
        <ele>245.6</ele>
        <time>2019-05-30T09:33:53Z</time>
      </trkpt>
      <trkpt lat="48.04169" lon="5.87374">
        <ele>246.2</ele>
        <time>2019-05-30T09:33:57Z</time>
      </trkpt>
      <trkpt lat="48.04169" lon="5.87403">
        <ele>245.2</ele>
        <time>2019-05-30T09:34:01Z</time>
      </trkpt>
      <trkpt lat="48.04166" lon="5.87428">
        <ele>246</ele>
        <time>2019-05-30T09:34:05Z</time>
      </trkpt>
      <trkpt lat="48.04165" lon="5.87453">
        <ele>245</ele>
        <time>2019-05-30T09:34:09Z</time>
      </trkpt>
      <trkpt lat="48.0416" lon="5.87474">
        <ele>244.8</ele>
        <time>2019-05-30T09:34:13Z</time>
      </trkpt>
      <trkpt lat="48.04159" lon="5.87481">
        <ele>245.2</ele>
        <time>2019-05-30T09:34:17Z</time>
      </trkpt>
      <trkpt lat="48.04164" lon="5.87483">
        <ele>245.4</ele>
        <time>2019-05-30T09:34:21Z</time>
      </trkpt>
      <trkpt lat="48.04167" lon="5.87487">
        <ele>245.6</ele>
        <time>2019-05-30T09:34:25Z</time>
      </trkpt>
      <trkpt lat="48.04173" lon="5.87487">
        <ele>245.8</ele>
        <time>2019-05-30T09:34:29Z</time>
      </trkpt>
      <trkpt lat="48.04178" lon="5.87488">
        <ele>246.2</ele>
        <time>2019-05-30T09:34:33Z</time>
      </trkpt>
      <trkpt lat="48.04184" lon="5.87488">
        <ele>246.2</ele>
        <time>2019-05-30T09:34:37Z</time>
      </trkpt>
      <trkpt lat="48.0419" lon="5.87487">
        <ele>247.6</ele>
        <time>2019-05-30T09:34:41Z</time>
      </trkpt>
      <trkpt lat="48.04197" lon="5.87492">
        <ele>247.2</ele>
        <time>2019-05-30T09:34:45Z</time>
      </trkpt>
      <trkpt lat="48.04205" lon="5.87496">
        <ele>247.2</ele>
        <time>2019-05-30T09:34:49Z</time>
      </trkpt>
      <trkpt lat="48.04212" lon="5.87498">
        <ele>247.4</ele>
        <time>2019-05-30T09:34:53Z</time>
      </trkpt>
      <trkpt lat="48.04222" lon="5.87498">
        <ele>247.8</ele>
        <time>2019-05-30T09:34:57Z</time>
      </trkpt>
      <trkpt lat="48.04227" lon="5.87495">
        <ele>247.6</ele>
        <time>2019-05-30T09:35:01Z</time>
      </trkpt>
      <trkpt lat="48.04236" lon="5.87496">
        <ele>247.8</ele>
        <time>2019-05-30T09:35:05Z</time>
      </trkpt>
      <trkpt lat="48.04248" lon="5.87496">
        <ele>247.4</ele>
        <time>2019-05-30T09:35:09Z</time>
      </trkpt>
      <trkpt lat="48.04259" lon="5.87498">
        <ele>246.4</ele>
        <time>2019-05-30T09:35:13Z</time>
      </trkpt>
      <trkpt lat="48.04275" lon="5.87502">
        <ele>246.8</ele>
        <time>2019-05-30T09:35:17Z</time>
      </trkpt>
      <trkpt lat="48.04292" lon="5.87509">
        <ele>246.8</ele>
        <time>2019-05-30T09:35:21Z</time>
      </trkpt>
      <trkpt lat="48.04307" lon="5.87512">
        <ele>246.8</ele>
        <time>2019-05-30T09:35:25Z</time>
      </trkpt>
      <trkpt lat="48.04314" lon="5.87513">
        <ele>247.2</ele>
        <time>2019-05-30T09:35:29Z</time>
      </trkpt>
      <trkpt lat="48.04325" lon="5.87512">
        <ele>247.4</ele>
        <time>2019-05-30T09:35:33Z</time>
      </trkpt>
      <trkpt lat="48.04333" lon="5.87513">
        <ele>247.6</ele>
        <time>2019-05-30T09:35:37Z</time>
      </trkpt>
      <trkpt lat="48.04341" lon="5.87512">
        <ele>248.2</ele>
        <time>2019-05-30T09:35:41Z</time>
      </trkpt>
      <trkpt lat="48.04351" lon="5.87514">
        <ele>248.2</ele>
        <time>2019-05-30T09:35:45Z</time>
      </trkpt>
      <trkpt lat="48.04361" lon="5.87516">
        <ele>248.4</ele>
        <time>2019-05-30T09:35:49Z</time>
      </trkpt>
      <trkpt lat="48.04371" lon="5.87521">
        <ele>249.6</ele>
        <time>2019-05-30T09:35:53Z</time>
      </trkpt>
      <trkpt lat="48.04382" lon="5.87522">
        <ele>249.4</ele>
        <time>2019-05-30T09:35:57Z</time>
      </trkpt>
      <trkpt lat="48.04392" lon="5.87523">
        <ele>250.2</ele>
        <time>2019-05-30T09:36:01Z</time>
      </trkpt>
      <trkpt lat="48.04403" lon="5.87527">
        <ele>251</ele>
        <time>2019-05-30T09:36:05Z</time>
      </trkpt>
      <trkpt lat="48.04412" lon="5.87528">
        <ele>251.6</ele>
        <time>2019-05-30T09:36:09Z</time>
      </trkpt>
      <trkpt lat="48.04422" lon="5.87528">
        <ele>252.8</ele>
        <time>2019-05-30T09:36:13Z</time>
      </trkpt>
      <trkpt lat="48.04431" lon="5.87529">
        <ele>253.8</ele>
        <time>2019-05-30T09:36:17Z</time>
      </trkpt>
      <trkpt lat="48.04441" lon="5.87532">
        <ele>254.6</ele>
        <time>2019-05-30T09:36:21Z</time>
      </trkpt>
      <trkpt lat="48.04452" lon="5.87534">
        <ele>255.2</ele>
        <time>2019-05-30T09:36:25Z</time>
      </trkpt>
      <trkpt lat="48.04461" lon="5.87537">
        <ele>256.2</ele>
        <time>2019-05-30T09:36:29Z</time>
      </trkpt>
      <trkpt lat="48.04468" lon="5.87552">
        <ele>256</ele>
        <time>2019-05-30T09:36:33Z</time>
      </trkpt>
      <trkpt lat="48.04464" lon="5.87572">
        <ele>254.6</ele>
        <time>2019-05-30T09:36:37Z</time>
      </trkpt>
      <trkpt lat="48.04456" lon="5.87605">
        <ele>253</ele>
        <time>2019-05-30T09:36:41Z</time>
      </trkpt>
      <trkpt lat="48.04444" lon="5.87648">
        <ele>251.2</ele>
        <time>2019-05-30T09:36:45Z</time>
      </trkpt>
      <trkpt lat="48.04433" lon="5.87692">
        <ele>249</ele>
        <time>2019-05-30T09:36:49Z</time>
      </trkpt>
      <trkpt lat="48.04419" lon="5.87733">
        <ele>245.6</ele>
        <time>2019-05-30T09:36:53Z</time>
      </trkpt>
      <trkpt lat="48.04408" lon="5.87774">
        <ele>244.6</ele>
        <time>2019-05-30T09:36:57Z</time>
      </trkpt>
      <trkpt lat="48.04395" lon="5.87816">
        <ele>242.6</ele>
        <time>2019-05-30T09:37:01Z</time>
      </trkpt>
      <trkpt lat="48.04381" lon="5.87851">
        <ele>242</ele>
        <time>2019-05-30T09:37:05Z</time>
      </trkpt>
      <trkpt lat="48.04378" lon="5.87878">
        <ele>242</ele>
        <time>2019-05-30T09:37:09Z</time>
      </trkpt>
      <trkpt lat="48.04386" lon="5.87885">
        <ele>242.8</ele>
        <time>2019-05-30T09:37:13Z</time>
      </trkpt>
      <trkpt lat="48.04396" lon="5.87891">
        <ele>243</ele>
        <time>2019-05-30T09:37:17Z</time>
      </trkpt>
      <trkpt lat="48.04406" lon="5.87899">
        <ele>243</ele>
        <time>2019-05-30T09:37:21Z</time>
      </trkpt>
      <trkpt lat="48.04416" lon="5.87908">
        <ele>243.6</ele>
        <time>2019-05-30T09:37:25Z</time>
      </trkpt>
      <trkpt lat="48.04424" lon="5.87921">
        <ele>243.6</ele>
        <time>2019-05-30T09:37:29Z</time>
      </trkpt>
      <trkpt lat="48.04424" lon="5.87939">
        <ele>243.6</ele>
        <time>2019-05-30T09:37:33Z</time>
      </trkpt>
      <trkpt lat="48.04423" lon="5.87947">
        <ele>243.2</ele>
        <time>2019-05-30T09:37:37Z</time>
      </trkpt>
      <trkpt lat="48.04418" lon="5.87961">
        <ele>242.4</ele>
        <time>2019-05-30T09:37:41Z</time>
      </trkpt>
      <trkpt lat="48.04414" lon="5.87973">
        <ele>241.8</ele>
        <time>2019-05-30T09:37:45Z</time>
      </trkpt>
      <trkpt lat="48.04409" lon="5.87984">
        <ele>241.6</ele>
        <time>2019-05-30T09:37:49Z</time>
      </trkpt>
      <trkpt lat="48.04402" lon="5.88002">
        <ele>241</ele>
        <time>2019-05-30T09:37:53Z</time>
      </trkpt>
      <trkpt lat="48.04393" lon="5.88025">
        <ele>240.4</ele>
        <time>2019-05-30T09:37:57Z</time>
      </trkpt>
      <trkpt lat="48.04384" lon="5.88052">
        <ele>238.8</ele>
        <time>2019-05-30T09:38:01Z</time>
      </trkpt>
      <trkpt lat="48.04373" lon="5.88086">
        <ele>236.6</ele>
        <time>2019-05-30T09:38:05Z</time>
      </trkpt>
      <trkpt lat="48.04361" lon="5.88123">
        <ele>233.4</ele>
        <time>2019-05-30T09:38:09Z</time>
      </trkpt>
      <trkpt lat="48.04353" lon="5.88154">
        <ele>230.6</ele>
        <time>2019-05-30T09:38:13Z</time>
      </trkpt>
      <trkpt lat="48.04342" lon="5.88196">
        <ele>227.4</ele>
        <time>2019-05-30T09:38:17Z</time>
      </trkpt>
      <trkpt lat="48.04325" lon="5.88252">
        <ele>223.4</ele>
        <time>2019-05-30T09:38:21Z</time>
      </trkpt>
      <trkpt lat="48.04302" lon="5.88303">
        <ele>220</ele>
        <time>2019-05-30T09:38:25Z</time>
      </trkpt>
      <trkpt lat="48.04269" lon="5.88337">
        <ele>218.2</ele>
        <time>2019-05-30T09:38:29Z</time>
      </trkpt>
      <trkpt lat="48.04241" lon="5.88369">
        <ele>215.8</ele>
        <time>2019-05-30T09:38:33Z</time>
      </trkpt>
      <trkpt lat="48.04218" lon="5.88405">
        <ele>215.2</ele>
        <time>2019-05-30T09:38:37Z</time>
      </trkpt>
      <trkpt lat="48.04194" lon="5.8844">
        <ele>215</ele>
        <time>2019-05-30T09:38:41Z</time>
      </trkpt>
      <trkpt lat="48.0417" lon="5.88476">
        <ele>213.6</ele>
        <time>2019-05-30T09:38:45Z</time>
      </trkpt>
      <trkpt lat="48.04153" lon="5.88504">
        <ele>213.4</ele>
        <time>2019-05-30T09:38:49Z</time>
      </trkpt>
      <trkpt lat="48.04162" lon="5.88527">
        <ele>210.6</ele>
        <time>2019-05-30T09:38:53Z</time>
      </trkpt>
      <trkpt lat="48.04186" lon="5.8856">
        <ele>208.4</ele>
        <time>2019-05-30T09:38:57Z</time>
      </trkpt>
      <trkpt lat="48.04213" lon="5.88597">
        <ele>208.6</ele>
        <time>2019-05-30T09:39:01Z</time>
      </trkpt>
      <trkpt lat="48.0424" lon="5.88627">
        <ele>207.4</ele>
        <time>2019-05-30T09:39:05Z</time>
      </trkpt>
      <trkpt lat="48.04267" lon="5.88659">
        <ele>206.8</ele>
        <time>2019-05-30T09:39:09Z</time>
      </trkpt>
      <trkpt lat="48.04285" lon="5.88696">
        <ele>205.6</ele>
        <time>2019-05-30T09:39:13Z</time>
      </trkpt>
      <trkpt lat="48.04296" lon="5.88737">
        <ele>206.8</ele>
        <time>2019-05-30T09:39:17Z</time>
      </trkpt>
      <trkpt lat="48.04306" lon="5.88772">
        <ele>207.6</ele>
        <time>2019-05-30T09:39:21Z</time>
      </trkpt>
      <trkpt lat="48.04317" lon="5.88803">
        <ele>209.2</ele>
        <time>2019-05-30T09:39:25Z</time>
      </trkpt>
      <trkpt lat="48.04333" lon="5.88828">
        <ele>209</ele>
        <time>2019-05-30T09:39:29Z</time>
      </trkpt>
      <trkpt lat="48.04349" lon="5.88848">
        <ele>209.4</ele>
        <time>2019-05-30T09:39:33Z</time>
      </trkpt>
      <trkpt lat="48.04365" lon="5.88866">
        <ele>209.4</ele>
        <time>2019-05-30T09:39:37Z</time>
      </trkpt>
      <trkpt lat="48.04379" lon="5.88885">
        <ele>209</ele>
        <time>2019-05-30T09:39:41Z</time>
      </trkpt>
      <trkpt lat="48.04396" lon="5.88906">
        <ele>207.4</ele>
        <time>2019-05-30T09:39:45Z</time>
      </trkpt>
      <trkpt lat="48.04413" lon="5.88931">
        <ele>207.8</ele>
        <time>2019-05-30T09:39:49Z</time>
      </trkpt>
      <trkpt lat="48.04427" lon="5.88962">
        <ele>207.4</ele>
        <time>2019-05-30T09:39:53Z</time>
      </trkpt>
      <trkpt lat="48.04435" lon="5.88982">
        <ele>208.2</ele>
        <time>2019-05-30T09:39:57Z</time>
      </trkpt>
      <trkpt lat="48.04436" lon="5.88997">
        <ele>208.2</ele>
        <time>2019-05-30T09:40:01Z</time>
      </trkpt>
      <trkpt lat="48.04433" lon="5.89019">
        <ele>207.8</ele>
        <time>2019-05-30T09:40:05Z</time>
      </trkpt>
      <trkpt lat="48.04426" lon="5.89043">
        <ele>207</ele>
        <time>2019-05-30T09:40:09Z</time>
      </trkpt>
      <trkpt lat="48.04417" lon="5.89064">
        <ele>207.8</ele>
        <time>2019-05-30T09:40:13Z</time>
      </trkpt>
      <trkpt lat="48.04409" lon="5.89085">
        <ele>207.6</ele>
        <time>2019-05-30T09:40:17Z</time>
      </trkpt>
      <trkpt lat="48.044" lon="5.89106">
        <ele>207.8</ele>
        <time>2019-05-30T09:40:21Z</time>
      </trkpt>
      <trkpt lat="48.04393" lon="5.89127">
        <ele>209.2</ele>
        <time>2019-05-30T09:40:25Z</time>
      </trkpt>
      <trkpt lat="48.04387" lon="5.89147">
        <ele>209.4</ele>
        <time>2019-05-30T09:40:29Z</time>
      </trkpt>
      <trkpt lat="48.04383" lon="5.89165">
        <ele>210.4</ele>
        <time>2019-05-30T09:40:33Z</time>
      </trkpt>
      <trkpt lat="48.04393" lon="5.89178">
        <ele>210.8</ele>
        <time>2019-05-30T09:40:37Z</time>
      </trkpt>
      <trkpt lat="48.04404" lon="5.89186">
        <ele>211.2</ele>
        <time>2019-05-30T09:40:41Z</time>
      </trkpt>
      <trkpt lat="48.04415" lon="5.89194">
        <ele>211.4</ele>
        <time>2019-05-30T09:40:45Z</time>
      </trkpt>
      <trkpt lat="48.04427" lon="5.89203">
        <ele>211.6</ele>
        <time>2019-05-30T09:40:49Z</time>
      </trkpt>
      <trkpt lat="48.04438" lon="5.89212">
        <ele>212.2</ele>
        <time>2019-05-30T09:40:53Z</time>
      </trkpt>
      <trkpt lat="48.04448" lon="5.89221">
        <ele>213</ele>
        <time>2019-05-30T09:40:57Z</time>
      </trkpt>
      <trkpt lat="48.04449" lon="5.89238">
        <ele>213.8</ele>
        <time>2019-05-30T09:41:01Z</time>
      </trkpt>
      <trkpt lat="48.04447" lon="5.89256">
        <ele>214.2</ele>
        <time>2019-05-30T09:41:05Z</time>
      </trkpt>
      <trkpt lat="48.04446" lon="5.89266">
        <ele>214.8</ele>
        <time>2019-05-30T09:41:09Z</time>
      </trkpt>
      <trkpt lat="48.04446" lon="5.89266">
        <ele>214.8</ele>
        <time>2019-05-30T09:41:13Z</time>
      </trkpt>
      <trkpt lat="48.04446" lon="5.89266">
        <ele>214.8</ele>
        <time>2019-05-30T09:41:17Z</time>
      </trkpt>
      <trkpt lat="48.04446" lon="5.89266">
        <ele>214.8</ele>
        <time>2019-05-30T09:41:21Z</time>
      </trkpt>
      <trkpt lat="48.04446" lon="5.89266">
        <ele>214.8</ele>
        <time>2019-05-30T09:41:25Z</time>
      </trkpt>
      <trkpt lat="48.04446" lon="5.89266">
        <ele>214.8</ele>
        <time>2019-05-30T09:41:29Z</time>
      </trkpt>
      <trkpt lat="48.04446" lon="5.89266">
        <ele>214.8</ele>
        <time>2019-05-30T09:41:33Z</time>
      </trkpt>
      <trkpt lat="48.04446" lon="5.89266">
        <ele>214.8</ele>
        <time>2019-05-30T09:41:37Z</time>
      </trkpt>
      <trkpt lat="48.04446" lon="5.89266">
        <ele>214.8</ele>
        <time>2019-05-30T09:41:41Z</time>
      </trkpt>
      <trkpt lat="48.04446" lon="5.89266">
        <ele>214.8</ele>
        <time>2019-05-30T09:41:45Z</time>
      </trkpt>
      <trkpt lat="48.04446" lon="5.89266">
        <ele>214.8</ele>
        <time>2019-05-30T09:41:49Z</time>
      </trkpt>
      <trkpt lat="48.04446" lon="5.89266">
        <ele>214.8</ele>
        <time>2019-05-30T09:41:53Z</time>
      </trkpt>
      <trkpt lat="48.04446" lon="5.89266">
        <ele>214.8</ele>
        <time>2019-05-30T09:41:57Z</time>
      </trkpt>
      <trkpt lat="48.04446" lon="5.89266">
        <ele>214.8</ele>
        <time>2019-05-30T09:42:01Z</time>
      </trkpt>
      <trkpt lat="48.04446" lon="5.89266">
        <ele>214.8</ele>
        <time>2019-05-30T09:42:05Z</time>
      </trkpt>
      <trkpt lat="48.04446" lon="5.89266">
        <ele>214.8</ele>
        <time>2019-05-30T09:42:09Z</time>
      </trkpt>
      <trkpt lat="48.04446" lon="5.89266">
        <ele>214.8</ele>
        <time>2019-05-30T09:42:13Z</time>
      </trkpt>
      <trkpt lat="48.04446" lon="5.89266">
        <ele>214.8</ele>
        <time>2019-05-30T09:42:17Z</time>
      </trkpt>
      <trkpt lat="48.04446" lon="5.89266">
        <ele>214.8</ele>
        <time>2019-05-30T09:42:21Z</time>
      </trkpt>
      <trkpt lat="48.04446" lon="5.89266">
        <ele>214.8</ele>
        <time>2019-05-30T09:42:25Z</time>
      </trkpt>
      <trkpt lat="48.04446" lon="5.89266">
        <ele>214.8</ele>
        <time>2019-05-30T09:42:29Z</time>
      </trkpt>
      <trkpt lat="48.04446" lon="5.89266">
        <ele>214.8</ele>
        <time>2019-05-30T09:42:33Z</time>
      </trkpt>
      <trkpt lat="48.04446" lon="5.89266">
        <ele>214.8</ele>
        <time>2019-05-30T09:42:37Z</time>
      </trkpt>
      <trkpt lat="48.04446" lon="5.89266">
        <ele>214.8</ele>
        <time>2019-05-30T09:42:41Z</time>
      </trkpt>
      <trkpt lat="48.04446" lon="5.89266">
        <ele>214.8</ele>
        <time>2019-05-30T09:42:45Z</time>
      </trkpt>
      <trkpt lat="48.04446" lon="5.89266">
        <ele>214.8</ele>
        <time>2019-05-30T09:42:49Z</time>
      </trkpt>
      <trkpt lat="48.04446" lon="5.89266">
        <ele>214.8</ele>
        <time>2019-05-30T09:42:53Z</time>
      </trkpt>
      <trkpt lat="48.04446" lon="5.89266">
        <ele>214.8</ele>
        <time>2019-05-30T09:42:57Z</time>
      </trkpt>
      <trkpt lat="48.04446" lon="5.89266">
        <ele>214.8</ele>
        <time>2019-05-30T09:43:01Z</time>
      </trkpt>
      <trkpt lat="48.04446" lon="5.89266">
        <ele>214.8</ele>
        <time>2019-05-30T09:43:05Z</time>
      </trkpt>
      <trkpt lat="48.04446" lon="5.89266">
        <ele>214.8</ele>
        <time>2019-05-30T09:43:09Z</time>
      </trkpt>
      <trkpt lat="48.04446" lon="5.89266">
        <ele>214.8</ele>
        <time>2019-05-30T09:43:13Z</time>
      </trkpt>
      <trkpt lat="48.04446" lon="5.89266">
        <ele>214.8</ele>
        <time>2019-05-30T09:43:17Z</time>
      </trkpt>
      <trkpt lat="48.04446" lon="5.89266">
        <ele>214.8</ele>
        <time>2019-05-30T09:43:21Z</time>
      </trkpt>
      <trkpt lat="48.04446" lon="5.89266">
        <ele>214.8</ele>
        <time>2019-05-30T09:43:25Z</time>
      </trkpt>
      <trkpt lat="48.04446" lon="5.89266">
        <ele>214.8</ele>
        <time>2019-05-30T09:43:29Z</time>
      </trkpt>
      <trkpt lat="48.04446" lon="5.89266">
        <ele>214.8</ele>
        <time>2019-05-30T09:43:33Z</time>
      </trkpt>
      <trkpt lat="48.04446" lon="5.89266">
        <ele>214.8</ele>
        <time>2019-05-30T09:43:37Z</time>
      </trkpt>
      <trkpt lat="48.04446" lon="5.89266">
        <ele>214.8</ele>
        <time>2019-05-30T09:43:41Z</time>
      </trkpt>
      <trkpt lat="48.04446" lon="5.89266">
        <ele>214.8</ele>
        <time>2019-05-30T09:43:45Z</time>
      </trkpt>
      <trkpt lat="48.04446" lon="5.89266">
        <ele>214.8</ele>
        <time>2019-05-30T09:43:49Z</time>
      </trkpt>
      <trkpt lat="48.04446" lon="5.89266">
        <ele>214.8</ele>
        <time>2019-05-30T09:43:53Z</time>
      </trkpt>
      <trkpt lat="48.04446" lon="5.89266">
        <ele>214.8</ele>
        <time>2019-05-30T09:43:57Z</time>
      </trkpt>
      <trkpt lat="48.04446" lon="5.89266">
        <ele>214.8</ele>
        <time>2019-05-30T09:44:01Z</time>
      </trkpt>
      <trkpt lat="48.04446" lon="5.89266">
        <ele>214.8</ele>
        <time>2019-05-30T09:44:05Z</time>
      </trkpt>
      <trkpt lat="48.04446" lon="5.89266">
        <ele>214.8</ele>
        <time>2019-05-30T09:44:09Z</time>
      </trkpt>
      <trkpt lat="48.04446" lon="5.89266">
        <ele>214.8</ele>
        <time>2019-05-30T09:44:13Z</time>
      </trkpt>
      <trkpt lat="48.04446" lon="5.89266">
        <ele>214.8</ele>
        <time>2019-05-30T09:44:17Z</time>
      </trkpt>
      <trkpt lat="48.04446" lon="5.89266">
        <ele>214.8</ele>
        <time>2019-05-30T09:44:21Z</time>
      </trkpt>
      <trkpt lat="48.04446" lon="5.89266">
        <ele>214.8</ele>
        <time>2019-05-30T09:44:25Z</time>
      </trkpt>
      <trkpt lat="48.04446" lon="5.89266">
        <ele>214.8</ele>
        <time>2019-05-30T09:44:29Z</time>
      </trkpt>
      <trkpt lat="48.04446" lon="5.89266">
        <ele>214.8</ele>
        <time>2019-05-30T09:44:33Z</time>
      </trkpt>
      <trkpt lat="48.04446" lon="5.89266">
        <ele>214.8</ele>
        <time>2019-05-30T09:44:37Z</time>
      </trkpt>
      <trkpt lat="48.04446" lon="5.89266">
        <ele>214.8</ele>
        <time>2019-05-30T09:44:41Z</time>
      </trkpt>
      <trkpt lat="48.04446" lon="5.89266">
        <ele>214.8</ele>
        <time>2019-05-30T09:44:45Z</time>
      </trkpt>
      <trkpt lat="48.04446" lon="5.89266">
        <ele>214.8</ele>
        <time>2019-05-30T09:44:49Z</time>
      </trkpt>
      <trkpt lat="48.04446" lon="5.89266">
        <ele>214.8</ele>
        <time>2019-05-30T09:44:53Z</time>
      </trkpt>
      <trkpt lat="48.04446" lon="5.89266">
        <ele>214.8</ele>
        <time>2019-05-30T09:44:57Z</time>
      </trkpt>
      <trkpt lat="48.04446" lon="5.89266">
        <ele>214.8</ele>
        <time>2019-05-30T09:45:01Z</time>
      </trkpt>
      <trkpt lat="48.04446" lon="5.89266">
        <ele>214.8</ele>
        <time>2019-05-30T09:45:05Z</time>
      </trkpt>
      <trkpt lat="48.04446" lon="5.89266">
        <ele>214.8</ele>
        <time>2019-05-30T09:45:09Z</time>
      </trkpt>
      <trkpt lat="48.04446" lon="5.89266">
        <ele>214.8</ele>
        <time>2019-05-30T09:45:13Z</time>
      </trkpt>
      <trkpt lat="48.04446" lon="5.89266">
        <ele>214.8</ele>
        <time>2019-05-30T09:45:17Z</time>
      </trkpt>
      <trkpt lat="48.04446" lon="5.89266">
        <ele>214.8</ele>
        <time>2019-05-30T09:45:21Z</time>
      </trkpt>
      <trkpt lat="48.04446" lon="5.89266">
        <ele>214.8</ele>
        <time>2019-05-30T09:45:25Z</time>
      </trkpt>
      <trkpt lat="48.04446" lon="5.89266">
        <ele>214.8</ele>
        <time>2019-05-30T09:45:29Z</time>
      </trkpt>
      <trkpt lat="48.04446" lon="5.89266">
        <ele>214.8</ele>
        <time>2019-05-30T09:45:33Z</time>
      </trkpt>
      <trkpt lat="48.04446" lon="5.89266">
        <ele>214.8</ele>
        <time>2019-05-30T09:45:37Z</time>
      </trkpt>
      <trkpt lat="48.04446" lon="5.89266">
        <ele>214.8</ele>
        <time>2019-05-30T09:45:41Z</time>
      </trkpt>
      <trkpt lat="48.04446" lon="5.89266">
        <ele>214.8</ele>
        <time>2019-05-30T09:45:45Z</time>
      </trkpt>
      <trkpt lat="48.04446" lon="5.89266">
        <ele>214.8</ele>
        <time>2019-05-30T09:45:49Z</time>
      </trkpt>
      <trkpt lat="48.04446" lon="5.89266">
        <ele>214.8</ele>
        <time>2019-05-30T09:45:53Z</time>
      </trkpt>
      <trkpt lat="48.04446" lon="5.89266">
        <ele>214.8</ele>
        <time>2019-05-30T09:45:57Z</time>
      </trkpt>
      <trkpt lat="48.04446" lon="5.89266">
        <ele>214.8</ele>
        <time>2019-05-30T09:46:01Z</time>
      </trkpt>
      <trkpt lat="48.04446" lon="5.89266">
        <ele>214.8</ele>
        <time>2019-05-30T09:46:05Z</time>
      </trkpt>
      <trkpt lat="48.04446" lon="5.89266">
        <ele>214.8</ele>
        <time>2019-05-30T09:46:09Z</time>
      </trkpt>
      <trkpt lat="48.04446" lon="5.89266">
        <ele>214.8</ele>
        <time>2019-05-30T09:46:13Z</time>
      </trkpt>
      <trkpt lat="48.04446" lon="5.89266">
        <ele>214.8</ele>
        <time>2019-05-30T09:46:17Z</time>
      </trkpt>
      <trkpt lat="48.04446" lon="5.89266">
        <ele>214.8</ele>
        <time>2019-05-30T09:46:21Z</time>
      </trkpt>
      <trkpt lat="48.04446" lon="5.89266">
        <ele>214.8</ele>
        <time>2019-05-30T09:46:25Z</time>
      </trkpt>
      <trkpt lat="48.04446" lon="5.89266">
        <ele>214.8</ele>
        <time>2019-05-30T09:46:29Z</time>
      </trkpt>
      <trkpt lat="48.04446" lon="5.89266">
        <ele>214.8</ele>
        <time>2019-05-30T09:46:33Z</time>
      </trkpt>
      <trkpt lat="48.04446" lon="5.89266">
        <ele>214.8</ele>
        <time>2019-05-30T09:46:37Z</time>
      </trkpt>
      <trkpt lat="48.04446" lon="5.89266">
        <ele>214.8</ele>
        <time>2019-05-30T09:46:41Z</time>
      </trkpt>
      <trkpt lat="48.04446" lon="5.89266">
        <ele>214.8</ele>
        <time>2019-05-30T09:46:45Z</time>
      </trkpt>
      <trkpt lat="48.04446" lon="5.89266">
        <ele>214.8</ele>
        <time>2019-05-30T09:46:49Z</time>
      </trkpt>
      <trkpt lat="48.04446" lon="5.89266">
        <ele>214.8</ele>
        <time>2019-05-30T09:46:53Z</time>
      </trkpt>
      <trkpt lat="48.04446" lon="5.89266">
        <ele>214.8</ele>
        <time>2019-05-30T09:46:57Z</time>
      </trkpt>
      <trkpt lat="48.04449" lon="5.89271">
        <ele>215.2</ele>
        <time>2019-05-30T09:47:01Z</time>
      </trkpt>
      <trkpt lat="48.04449" lon="5.89271">
        <ele>215.2</ele>
        <time>2019-05-30T09:47:05Z</time>
      </trkpt>
      <trkpt lat="48.04449" lon="5.89271">
        <ele>215.2</ele>
        <time>2019-05-30T09:47:09Z</time>
      </trkpt>
      <trkpt lat="48.04449" lon="5.89271">
        <ele>215.2</ele>
        <time>2019-05-30T09:47:13Z</time>
      </trkpt>
      <trkpt lat="48.04449" lon="5.89271">
        <ele>215.2</ele>
        <time>2019-05-30T09:47:17Z</time>
      </trkpt>
      <trkpt lat="48.04449" lon="5.89271">
        <ele>215.2</ele>
        <time>2019-05-30T09:47:21Z</time>
      </trkpt>
      <trkpt lat="48.04449" lon="5.89271">
        <ele>215.2</ele>
        <time>2019-05-30T09:47:25Z</time>
      </trkpt>
      <trkpt lat="48.04449" lon="5.89271">
        <ele>215.2</ele>
        <time>2019-05-30T09:47:29Z</time>
      </trkpt>
      <trkpt lat="48.04449" lon="5.89271">
        <ele>215.2</ele>
        <time>2019-05-30T09:47:33Z</time>
      </trkpt>
      <trkpt lat="48.04448" lon="5.89272">
        <ele>215.6</ele>
        <time>2019-05-30T09:47:37Z</time>
      </trkpt>
      <trkpt lat="48.0445" lon="5.8928">
        <ele>216.8</ele>
        <time>2019-05-30T09:47:41Z</time>
      </trkpt>
      <trkpt lat="48.04447" lon="5.89293">
        <ele>217.4</ele>
        <time>2019-05-30T09:47:45Z</time>
      </trkpt>
      <trkpt lat="48.04451" lon="5.89302">
        <ele>217.8</ele>
        <time>2019-05-30T09:47:49Z</time>
      </trkpt>
      <trkpt lat="48.04458" lon="5.89308">
        <ele>218</ele>
        <time>2019-05-30T09:47:53Z</time>
      </trkpt>
      <trkpt lat="48.04466" lon="5.89319">
        <ele>218</ele>
        <time>2019-05-30T09:47:57Z</time>
      </trkpt>
      <trkpt lat="48.04475" lon="5.89328">
        <ele>218.2</ele>
        <time>2019-05-30T09:48:01Z</time>
      </trkpt>
      <trkpt lat="48.04476" lon="5.89345">
        <ele>218.8</ele>
        <time>2019-05-30T09:48:05Z</time>
      </trkpt>
      <trkpt lat="48.04472" lon="5.89358">
        <ele>219.8</ele>
        <time>2019-05-30T09:48:09Z</time>
      </trkpt>
      <trkpt lat="48.04467" lon="5.89369">
        <ele>220.8</ele>
        <time>2019-05-30T09:48:13Z</time>
      </trkpt>
      <trkpt lat="48.04465" lon="5.89379">
        <ele>221.6</ele>
        <time>2019-05-30T09:48:17Z</time>
      </trkpt>
      <trkpt lat="48.04461" lon="5.8939">
        <ele>222.6</ele>
        <time>2019-05-30T09:48:21Z</time>
      </trkpt>
      <trkpt lat="48.04458" lon="5.89401">
        <ele>223.6</ele>
        <time>2019-05-30T09:48:25Z</time>
      </trkpt>
      <trkpt lat="48.04457" lon="5.89413">
        <ele>224.8</ele>
        <time>2019-05-30T09:48:29Z</time>
      </trkpt>
      <trkpt lat="48.04457" lon="5.89424">
        <ele>225.6</ele>
        <time>2019-05-30T09:48:33Z</time>
      </trkpt>
      <trkpt lat="48.04457" lon="5.89436">
        <ele>226.6</ele>
        <time>2019-05-30T09:48:37Z</time>
      </trkpt>
      <trkpt lat="48.0446" lon="5.89446">
        <ele>227.6</ele>
        <time>2019-05-30T09:48:41Z</time>
      </trkpt>
      <trkpt lat="48.04465" lon="5.89456">
        <ele>228.6</ele>
        <time>2019-05-30T09:48:45Z</time>
      </trkpt>
      <trkpt lat="48.04471" lon="5.89463">
        <ele>229</ele>
        <time>2019-05-30T09:48:49Z</time>
      </trkpt>
      <trkpt lat="48.04477" lon="5.89471">
        <ele>229.4</ele>
        <time>2019-05-30T09:48:53Z</time>
      </trkpt>
      <trkpt lat="48.04484" lon="5.8948">
        <ele>229.6</ele>
        <time>2019-05-30T09:48:57Z</time>
      </trkpt>
      <trkpt lat="48.04492" lon="5.8949">
        <ele>229.4</ele>
        <time>2019-05-30T09:49:01Z</time>
      </trkpt>
      <trkpt lat="48.04501" lon="5.89502">
        <ele>229.6</ele>
        <time>2019-05-30T09:49:05Z</time>
      </trkpt>
      <trkpt lat="48.04511" lon="5.89515">
        <ele>229.6</ele>
        <time>2019-05-30T09:49:09Z</time>
      </trkpt>
      <trkpt lat="48.0452" lon="5.89528">
        <ele>229.6</ele>
        <time>2019-05-30T09:49:13Z</time>
      </trkpt>
      <trkpt lat="48.04528" lon="5.89543">
        <ele>230</ele>
        <time>2019-05-30T09:49:17Z</time>
      </trkpt>
      <trkpt lat="48.04535" lon="5.89557">
        <ele>230.2</ele>
        <time>2019-05-30T09:49:21Z</time>
      </trkpt>
      <trkpt lat="48.04542" lon="5.89572">
        <ele>230.8</ele>
        <time>2019-05-30T09:49:25Z</time>
      </trkpt>
      <trkpt lat="48.0455" lon="5.89588">
        <ele>230.8</ele>
        <time>2019-05-30T09:49:29Z</time>
      </trkpt>
      <trkpt lat="48.04557" lon="5.89603">
        <ele>231.2</ele>
        <time>2019-05-30T09:49:33Z</time>
      </trkpt>
      <trkpt lat="48.04564" lon="5.89618">
        <ele>231.6</ele>
        <time>2019-05-30T09:49:37Z</time>
      </trkpt>
      <trkpt lat="48.04571" lon="5.89632">
        <ele>231.8</ele>
        <time>2019-05-30T09:49:41Z</time>
      </trkpt>
      <trkpt lat="48.04579" lon="5.89647">
        <ele>232.4</ele>
        <time>2019-05-30T09:49:45Z</time>
      </trkpt>
      <trkpt lat="48.04586" lon="5.89661">
        <ele>232.4</ele>
        <time>2019-05-30T09:49:49Z</time>
      </trkpt>
      <trkpt lat="48.04593" lon="5.89675">
        <ele>233.4</ele>
        <time>2019-05-30T09:49:53Z</time>
      </trkpt>
      <trkpt lat="48.04601" lon="5.89689">
        <ele>233.8</ele>
        <time>2019-05-30T09:49:57Z</time>
      </trkpt>
      <trkpt lat="48.04609" lon="5.89703">
        <ele>234.4</ele>
        <time>2019-05-30T09:50:01Z</time>
      </trkpt>
      <trkpt lat="48.04617" lon="5.89716">
        <ele>234.2</ele>
        <time>2019-05-30T09:50:05Z</time>
      </trkpt>
      <trkpt lat="48.04627" lon="5.89727">
        <ele>235</ele>
        <time>2019-05-30T09:50:09Z</time>
      </trkpt>
      <trkpt lat="48.04638" lon="5.89735">
        <ele>235.4</ele>
        <time>2019-05-30T09:50:13Z</time>
      </trkpt>
      <trkpt lat="48.04649" lon="5.89742">
        <ele>235.8</ele>
        <time>2019-05-30T09:50:17Z</time>
      </trkpt>
      <trkpt lat="48.04658" lon="5.89749">
        <ele>236.8</ele>
        <time>2019-05-30T09:50:21Z</time>
      </trkpt>
      <trkpt lat="48.04668" lon="5.89754">
        <ele>238</ele>
        <time>2019-05-30T09:50:25Z</time>
      </trkpt>
      <trkpt lat="48.04679" lon="5.89762">
        <ele>238.4</ele>
        <time>2019-05-30T09:50:29Z</time>
      </trkpt>
      <trkpt lat="48.04689" lon="5.89769">
        <ele>239</ele>
        <time>2019-05-30T09:50:33Z</time>
      </trkpt>
      <trkpt lat="48.04699" lon="5.89777">
        <ele>240.2</ele>
        <time>2019-05-30T09:50:37Z</time>
      </trkpt>
      <trkpt lat="48.04709" lon="5.89785">
        <ele>240.8</ele>
        <time>2019-05-30T09:50:41Z</time>
      </trkpt>
      <trkpt lat="48.04719" lon="5.89793">
        <ele>241.2</ele>
        <time>2019-05-30T09:50:45Z</time>
      </trkpt>
      <trkpt lat="48.0473" lon="5.89801">
        <ele>242</ele>
        <time>2019-05-30T09:50:49Z</time>
      </trkpt>
      <trkpt lat="48.04739" lon="5.8981">
        <ele>243.2</ele>
        <time>2019-05-30T09:50:53Z</time>
      </trkpt>
      <trkpt lat="48.04749" lon="5.89818">
        <ele>242.6</ele>
        <time>2019-05-30T09:50:57Z</time>
      </trkpt>
      <trkpt lat="48.0476" lon="5.89825">
        <ele>243.2</ele>
        <time>2019-05-30T09:51:01Z</time>
      </trkpt>
      <trkpt lat="48.0477" lon="5.89833">
        <ele>244.8</ele>
        <time>2019-05-30T09:51:05Z</time>
      </trkpt>
      <trkpt lat="48.04781" lon="5.8984">
        <ele>244.2</ele>
        <time>2019-05-30T09:51:09Z</time>
      </trkpt>
      <trkpt lat="48.04792" lon="5.89847">
        <ele>244</ele>
        <time>2019-05-30T09:51:13Z</time>
      </trkpt>
      <trkpt lat="48.04803" lon="5.89853">
        <ele>244.6</ele>
        <time>2019-05-30T09:51:17Z</time>
      </trkpt>
      <trkpt lat="48.04815" lon="5.89858">
        <ele>245</ele>
        <time>2019-05-30T09:51:21Z</time>
      </trkpt>
      <trkpt lat="48.04828" lon="5.89865">
        <ele>244.8</ele>
        <time>2019-05-30T09:51:25Z</time>
      </trkpt>
      <trkpt lat="48.04841" lon="5.89872">
        <ele>244.6</ele>
        <time>2019-05-30T09:51:29Z</time>
      </trkpt>
      <trkpt lat="48.04856" lon="5.89882">
        <ele>244.6</ele>
        <time>2019-05-30T09:51:33Z</time>
      </trkpt>
      <trkpt lat="48.04873" lon="5.89893">
        <ele>244.2</ele>
        <time>2019-05-30T09:51:37Z</time>
      </trkpt>
      <trkpt lat="48.04891" lon="5.89904">
        <ele>244</ele>
        <time>2019-05-30T09:51:41Z</time>
      </trkpt>
      <trkpt lat="48.04908" lon="5.89915">
        <ele>244.4</ele>
        <time>2019-05-30T09:51:45Z</time>
      </trkpt>
      <trkpt lat="48.04925" lon="5.89927">
        <ele>244.2</ele>
        <time>2019-05-30T09:51:49Z</time>
      </trkpt>
      <trkpt lat="48.04943" lon="5.89938">
        <ele>244.6</ele>
        <time>2019-05-30T09:51:53Z</time>
      </trkpt>
      <trkpt lat="48.0496" lon="5.89946">
        <ele>245</ele>
        <time>2019-05-30T09:51:57Z</time>
      </trkpt>
      <trkpt lat="48.04978" lon="5.89951">
        <ele>244.8</ele>
        <time>2019-05-30T09:52:01Z</time>
      </trkpt>
      <trkpt lat="48.04997" lon="5.89957">
        <ele>244.6</ele>
        <time>2019-05-30T09:52:05Z</time>
      </trkpt>
      <trkpt lat="48.05016" lon="5.89962">
        <ele>244.4</ele>
        <time>2019-05-30T09:52:09Z</time>
      </trkpt>
      <trkpt lat="48.05036" lon="5.89966">
        <ele>245</ele>
        <time>2019-05-30T09:52:13Z</time>
      </trkpt>
      <trkpt lat="48.05055" lon="5.89973">
        <ele>246.4</ele>
        <time>2019-05-30T09:52:17Z</time>
      </trkpt>
      <trkpt lat="48.05072" lon="5.89978">
        <ele>246.6</ele>
        <time>2019-05-30T09:52:21Z</time>
      </trkpt>
      <trkpt lat="48.05086" lon="5.89981">
        <ele>246.8</ele>
        <time>2019-05-30T09:52:25Z</time>
      </trkpt>
      <trkpt lat="48.051" lon="5.89983">
        <ele>247.4</ele>
        <time>2019-05-30T09:52:29Z</time>
      </trkpt>
      <trkpt lat="48.05112" lon="5.89985">
        <ele>247.6</ele>
        <time>2019-05-30T09:52:33Z</time>
      </trkpt>
      <trkpt lat="48.05123" lon="5.89988">
        <ele>249</ele>
        <time>2019-05-30T09:52:37Z</time>
      </trkpt>
      <trkpt lat="48.05134" lon="5.89989">
        <ele>249</ele>
        <time>2019-05-30T09:52:41Z</time>
      </trkpt>
      <trkpt lat="48.05146" lon="5.89991">
        <ele>250</ele>
        <time>2019-05-30T09:52:45Z</time>
      </trkpt>
      <trkpt lat="48.05153" lon="5.89994">
        <ele>250.8</ele>
        <time>2019-05-30T09:52:49Z</time>
      </trkpt>
      <trkpt lat="48.0516" lon="5.89998">
        <ele>251.6</ele>
        <time>2019-05-30T09:52:53Z</time>
      </trkpt>
      <trkpt lat="48.0517" lon="5.90004">
        <ele>252.6</ele>
        <time>2019-05-30T09:52:57Z</time>
      </trkpt>
      <trkpt lat="48.05178" lon="5.90008">
        <ele>254.4</ele>
        <time>2019-05-30T09:53:01Z</time>
      </trkpt>
      <trkpt lat="48.05185" lon="5.90009">
        <ele>256</ele>
        <time>2019-05-30T09:53:05Z</time>
      </trkpt>
      <trkpt lat="48.05194" lon="5.90005">
        <ele>257.2</ele>
        <time>2019-05-30T09:53:09Z</time>
      </trkpt>
      <trkpt lat="48.052" lon="5.89997">
        <ele>258.6</ele>
        <time>2019-05-30T09:53:13Z</time>
      </trkpt>
      <trkpt lat="48.05204" lon="5.89988">
        <ele>259.2</ele>
        <time>2019-05-30T09:53:17Z</time>
      </trkpt>
      <trkpt lat="48.05207" lon="5.89979">
        <ele>260.2</ele>
        <time>2019-05-30T09:53:21Z</time>
      </trkpt>
      <trkpt lat="48.05209" lon="5.89969">
        <ele>260.4</ele>
        <time>2019-05-30T09:53:25Z</time>
      </trkpt>
      <trkpt lat="48.05211" lon="5.89959">
        <ele>261</ele>
        <time>2019-05-30T09:53:29Z</time>
      </trkpt>
      <trkpt lat="48.05212" lon="5.89948">
        <ele>261.8</ele>
        <time>2019-05-30T09:53:33Z</time>
      </trkpt>
      <trkpt lat="48.05213" lon="5.89937">
        <ele>262.4</ele>
        <time>2019-05-30T09:53:37Z</time>
      </trkpt>
      <trkpt lat="48.05213" lon="5.89926">
        <ele>263.6</ele>
        <time>2019-05-30T09:53:41Z</time>
      </trkpt>
      <trkpt lat="48.05213" lon="5.89916">
        <ele>264.2</ele>
        <time>2019-05-30T09:53:45Z</time>
      </trkpt>
      <trkpt lat="48.05214" lon="5.89907">
        <ele>265.4</ele>
        <time>2019-05-30T09:53:49Z</time>
      </trkpt>
      <trkpt lat="48.05215" lon="5.89896">
        <ele>265.8</ele>
        <time>2019-05-30T09:53:53Z</time>
      </trkpt>
      <trkpt lat="48.05217" lon="5.89885">
        <ele>266.4</ele>
        <time>2019-05-30T09:53:57Z</time>
      </trkpt>
      <trkpt lat="48.05219" lon="5.89875">
        <ele>267</ele>
        <time>2019-05-30T09:54:01Z</time>
      </trkpt>
      <trkpt lat="48.05225" lon="5.8987">
        <ele>268.2</ele>
        <time>2019-05-30T09:54:05Z</time>
      </trkpt>
      <trkpt lat="48.05231" lon="5.89864">
        <ele>269.2</ele>
        <time>2019-05-30T09:54:09Z</time>
      </trkpt>
      <trkpt lat="48.05235" lon="5.89864">
        <ele>269.2</ele>
        <time>2019-05-30T09:54:13Z</time>
      </trkpt>
      <trkpt lat="48.05241" lon="5.89863">
        <ele>269.8</ele>
        <time>2019-05-30T09:54:17Z</time>
      </trkpt>
      <trkpt lat="48.05244" lon="5.89864">
        <ele>270</ele>
        <time>2019-05-30T09:54:21Z</time>
      </trkpt>
      <trkpt lat="48.05247" lon="5.89866">
        <ele>270.6</ele>
        <time>2019-05-30T09:54:25Z</time>
      </trkpt>
      <trkpt lat="48.0525" lon="5.89868">
        <ele>270.4</ele>
        <time>2019-05-30T09:54:29Z</time>
      </trkpt>
      <trkpt lat="48.05257" lon="5.8987">
        <ele>270.6</ele>
        <time>2019-05-30T09:54:33Z</time>
      </trkpt>
      <trkpt lat="48.05264" lon="5.89873">
        <ele>270.6</ele>
        <time>2019-05-30T09:54:37Z</time>
      </trkpt>
      <trkpt lat="48.0527" lon="5.89875">
        <ele>270.8</ele>
        <time>2019-05-30T09:54:41Z</time>
      </trkpt>
      <trkpt lat="48.05276" lon="5.89877">
        <ele>271.6</ele>
        <time>2019-05-30T09:54:45Z</time>
      </trkpt>
      <trkpt lat="48.05282" lon="5.89878">
        <ele>272.6</ele>
        <time>2019-05-30T09:54:49Z</time>
      </trkpt>
      <trkpt lat="48.0529" lon="5.89881">
        <ele>273.4</ele>
        <time>2019-05-30T09:54:53Z</time>
      </trkpt>
      <trkpt lat="48.05297" lon="5.89885">
        <ele>273.6</ele>
        <time>2019-05-30T09:54:57Z</time>
      </trkpt>
      <trkpt lat="48.05305" lon="5.89886">
        <ele>274.2</ele>
        <time>2019-05-30T09:55:01Z</time>
      </trkpt>
      <trkpt lat="48.05312" lon="5.8989">
        <ele>274.4</ele>
        <time>2019-05-30T09:55:05Z</time>
      </trkpt>
      <trkpt lat="48.05319" lon="5.89895">
        <ele>275.2</ele>
        <time>2019-05-30T09:55:09Z</time>
      </trkpt>
      <trkpt lat="48.05327" lon="5.899">
        <ele>275.6</ele>
        <time>2019-05-30T09:55:13Z</time>
      </trkpt>
      <trkpt lat="48.05333" lon="5.89905">
        <ele>275.8</ele>
        <time>2019-05-30T09:55:17Z</time>
      </trkpt>
      <trkpt lat="48.0534" lon="5.89911">
        <ele>276.6</ele>
        <time>2019-05-30T09:55:21Z</time>
      </trkpt>
      <trkpt lat="48.05347" lon="5.89917">
        <ele>276.6</ele>
        <time>2019-05-30T09:55:25Z</time>
      </trkpt>
      <trkpt lat="48.05356" lon="5.89923">
        <ele>276.8</ele>
        <time>2019-05-30T09:55:29Z</time>
      </trkpt>
      <trkpt lat="48.05365" lon="5.89926">
        <ele>276.8</ele>
        <time>2019-05-30T09:55:33Z</time>
      </trkpt>
      <trkpt lat="48.05377" lon="5.89931">
        <ele>276.6</ele>
        <time>2019-05-30T09:55:37Z</time>
      </trkpt>
      <trkpt lat="48.0539" lon="5.89937">
        <ele>276.4</ele>
        <time>2019-05-30T09:55:41Z</time>
      </trkpt>
      <trkpt lat="48.05402" lon="5.89941">
        <ele>276.6</ele>
        <time>2019-05-30T09:55:45Z</time>
      </trkpt>
      <trkpt lat="48.05416" lon="5.89946">
        <ele>276.6</ele>
        <time>2019-05-30T09:55:49Z</time>
      </trkpt>
      <trkpt lat="48.05429" lon="5.89951">
        <ele>276.6</ele>
        <time>2019-05-30T09:55:53Z</time>
      </trkpt>
      <trkpt lat="48.05442" lon="5.89954">
        <ele>276.8</ele>
        <time>2019-05-30T09:55:57Z</time>
      </trkpt>
      <trkpt lat="48.05456" lon="5.89957">
        <ele>276.4</ele>
        <time>2019-05-30T09:56:01Z</time>
      </trkpt>
      <trkpt lat="48.0547" lon="5.8996">
        <ele>277.4</ele>
        <time>2019-05-30T09:56:05Z</time>
      </trkpt>
      <trkpt lat="48.05485" lon="5.89963">
        <ele>278.4</ele>
        <time>2019-05-30T09:56:09Z</time>
      </trkpt>
      <trkpt lat="48.055" lon="5.89966">
        <ele>278.6</ele>
        <time>2019-05-30T09:56:13Z</time>
      </trkpt>
      <trkpt lat="48.05515" lon="5.89971">
        <ele>279.2</ele>
        <time>2019-05-30T09:56:17Z</time>
      </trkpt>
      <trkpt lat="48.05528" lon="5.89976">
        <ele>279.6</ele>
        <time>2019-05-30T09:56:21Z</time>
      </trkpt>
      <trkpt lat="48.05542" lon="5.89981">
        <ele>280.6</ele>
        <time>2019-05-30T09:56:25Z</time>
      </trkpt>
      <trkpt lat="48.05555" lon="5.89986">
        <ele>281.2</ele>
        <time>2019-05-30T09:56:29Z</time>
      </trkpt>
      <trkpt lat="48.05567" lon="5.89991">
        <ele>281.2</ele>
        <time>2019-05-30T09:56:33Z</time>
      </trkpt>
      <trkpt lat="48.05582" lon="5.89999">
        <ele>281.2</ele>
        <time>2019-05-30T09:56:37Z</time>
      </trkpt>
      <trkpt lat="48.05596" lon="5.90004">
        <ele>281.2</ele>
        <time>2019-05-30T09:56:41Z</time>
      </trkpt>
      <trkpt lat="48.05611" lon="5.90012">
        <ele>281.4</ele>
        <time>2019-05-30T09:56:45Z</time>
      </trkpt>
      <trkpt lat="48.05627" lon="5.90018">
        <ele>281.2</ele>
        <time>2019-05-30T09:56:49Z</time>
      </trkpt>
      <trkpt lat="48.05644" lon="5.90026">
        <ele>280.2</ele>
        <time>2019-05-30T09:56:53Z</time>
      </trkpt>
      <trkpt lat="48.05661" lon="5.90035">
        <ele>279.8</ele>
        <time>2019-05-30T09:56:57Z</time>
      </trkpt>
      <trkpt lat="48.05679" lon="5.90042">
        <ele>278.8</ele>
        <time>2019-05-30T09:57:01Z</time>
      </trkpt>
      <trkpt lat="48.05703" lon="5.90048">
        <ele>276.6</ele>
        <time>2019-05-30T09:57:05Z</time>
      </trkpt>
      <trkpt lat="48.05726" lon="5.90053">
        <ele>276.2</ele>
        <time>2019-05-30T09:57:09Z</time>
      </trkpt>
      <trkpt lat="48.05746" lon="5.90063">
        <ele>277.2</ele>
        <time>2019-05-30T09:57:13Z</time>
      </trkpt>
      <trkpt lat="48.05766" lon="5.90073">
        <ele>277</ele>
        <time>2019-05-30T09:57:17Z</time>
      </trkpt>
      <trkpt lat="48.05782" lon="5.90083">
        <ele>276.8</ele>
        <time>2019-05-30T09:57:21Z</time>
      </trkpt>
      <trkpt lat="48.058" lon="5.9009">
        <ele>276.6</ele>
        <time>2019-05-30T09:57:25Z</time>
      </trkpt>
      <trkpt lat="48.05818" lon="5.90096">
        <ele>276.2</ele>
        <time>2019-05-30T09:57:29Z</time>
      </trkpt>
      <trkpt lat="48.0584" lon="5.90111">
        <ele>276</ele>
        <time>2019-05-30T09:57:33Z</time>
      </trkpt>
      <trkpt lat="48.05859" lon="5.9013">
        <ele>276.6</ele>
        <time>2019-05-30T09:57:37Z</time>
      </trkpt>
      <trkpt lat="48.05875" lon="5.90143">
        <ele>277.8</ele>
        <time>2019-05-30T09:57:41Z</time>
      </trkpt>
      <trkpt lat="48.05887" lon="5.90161">
        <ele>279.2</ele>
        <time>2019-05-30T09:57:45Z</time>
      </trkpt>
      <trkpt lat="48.05896" lon="5.90179">
        <ele>281.4</ele>
        <time>2019-05-30T09:57:49Z</time>
      </trkpt>
      <trkpt lat="48.05905" lon="5.90196">
        <ele>282.2</ele>
        <time>2019-05-30T09:57:53Z</time>
      </trkpt>
      <trkpt lat="48.05909" lon="5.9021">
        <ele>283.4</ele>
        <time>2019-05-30T09:57:57Z</time>
      </trkpt>
      <trkpt lat="48.05917" lon="5.90225">
        <ele>284</ele>
        <time>2019-05-30T09:58:01Z</time>
      </trkpt>
      <trkpt lat="48.05925" lon="5.9024">
        <ele>284.2</ele>
        <time>2019-05-30T09:58:05Z</time>
      </trkpt>
      <trkpt lat="48.05934" lon="5.90254">
        <ele>285</ele>
        <time>2019-05-30T09:58:09Z</time>
      </trkpt>
      <trkpt lat="48.05943" lon="5.90266">
        <ele>285.4</ele>
        <time>2019-05-30T09:58:13Z</time>
      </trkpt>
      <trkpt lat="48.05949" lon="5.90278">
        <ele>286</ele>
        <time>2019-05-30T09:58:17Z</time>
      </trkpt>
      <trkpt lat="48.05957" lon="5.90291">
        <ele>286.6</ele>
        <time>2019-05-30T09:58:21Z</time>
      </trkpt>
      <trkpt lat="48.05966" lon="5.90301">
        <ele>287.4</ele>
        <time>2019-05-30T09:58:25Z</time>
      </trkpt>
      <trkpt lat="48.05976" lon="5.9031">
        <ele>288.2</ele>
        <time>2019-05-30T09:58:29Z</time>
      </trkpt>
      <trkpt lat="48.05986" lon="5.90316">
        <ele>288.8</ele>
        <time>2019-05-30T09:58:33Z</time>
      </trkpt>
      <trkpt lat="48.05996" lon="5.9032">
        <ele>288.6</ele>
        <time>2019-05-30T09:58:37Z</time>
      </trkpt>
      <trkpt lat="48.06009" lon="5.90326">
        <ele>288.8</ele>
        <time>2019-05-30T09:58:41Z</time>
      </trkpt>
      <trkpt lat="48.0602" lon="5.90333">
        <ele>289</ele>
        <time>2019-05-30T09:58:45Z</time>
      </trkpt>
      <trkpt lat="48.06032" lon="5.90342">
        <ele>289</ele>
        <time>2019-05-30T09:58:49Z</time>
      </trkpt>
      <trkpt lat="48.06046" lon="5.9035">
        <ele>289.2</ele>
        <time>2019-05-30T09:58:53Z</time>
      </trkpt>
      <trkpt lat="48.06059" lon="5.90359">
        <ele>289</ele>
        <time>2019-05-30T09:58:57Z</time>
      </trkpt>
      <trkpt lat="48.06072" lon="5.90369">
        <ele>289</ele>
        <time>2019-05-30T09:59:01Z</time>
      </trkpt>
      <trkpt lat="48.06086" lon="5.9038">
        <ele>289</ele>
        <time>2019-05-30T09:59:05Z</time>
      </trkpt>
      <trkpt lat="48.06099" lon="5.90391">
        <ele>289.4</ele>
        <time>2019-05-30T09:59:09Z</time>
      </trkpt>
      <trkpt lat="48.0611" lon="5.90398">
        <ele>289</ele>
        <time>2019-05-30T09:59:13Z</time>
      </trkpt>
      <trkpt lat="48.06125" lon="5.90408">
        <ele>288</ele>
        <time>2019-05-30T09:59:17Z</time>
      </trkpt>
      <trkpt lat="48.06145" lon="5.90418">
        <ele>287.2</ele>
        <time>2019-05-30T09:59:21Z</time>
      </trkpt>
      <trkpt lat="48.06172" lon="5.9044">
        <ele>286.2</ele>
        <time>2019-05-30T09:59:25Z</time>
      </trkpt>
      <trkpt lat="48.06186" lon="5.90487">
        <ele>285.2</ele>
        <time>2019-05-30T09:59:29Z</time>
      </trkpt>
      <trkpt lat="48.06203" lon="5.90525">
        <ele>282.8</ele>
        <time>2019-05-30T09:59:33Z</time>
      </trkpt>
      <trkpt lat="48.06229" lon="5.90527">
        <ele>281.8</ele>
        <time>2019-05-30T09:59:37Z</time>
      </trkpt>
      <trkpt lat="48.0626" lon="5.90517">
        <ele>282.2</ele>
        <time>2019-05-30T09:59:41Z</time>
      </trkpt>
      <trkpt lat="48.06289" lon="5.90516">
        <ele>284.8</ele>
        <time>2019-05-30T09:59:45Z</time>
      </trkpt>
      <trkpt lat="48.06312" lon="5.90512">
        <ele>285.6</ele>
        <time>2019-05-30T09:59:49Z</time>
      </trkpt>
      <trkpt lat="48.06328" lon="5.90511">
        <ele>286.2</ele>
        <time>2019-05-30T09:59:53Z</time>
      </trkpt>
      <trkpt lat="48.06339" lon="5.90507">
        <ele>286.4</ele>
        <time>2019-05-30T09:59:57Z</time>
      </trkpt>
      <trkpt lat="48.06352" lon="5.90496">
        <ele>286.2</ele>
        <time>2019-05-30T10:00:01Z</time>
      </trkpt>
      <trkpt lat="48.06367" lon="5.90476">
        <ele>286.2</ele>
        <time>2019-05-30T10:00:05Z</time>
      </trkpt>
      <trkpt lat="48.06381" lon="5.90459">
        <ele>285.8</ele>
        <time>2019-05-30T10:00:09Z</time>
      </trkpt>
      <trkpt lat="48.06397" lon="5.90446">
        <ele>286.4</ele>
        <time>2019-05-30T10:00:13Z</time>
      </trkpt>
      <trkpt lat="48.06413" lon="5.90437">
        <ele>286.2</ele>
        <time>2019-05-30T10:00:17Z</time>
      </trkpt>
      <trkpt lat="48.06435" lon="5.90429">
        <ele>286.6</ele>
        <time>2019-05-30T10:00:21Z</time>
      </trkpt>
      <trkpt lat="48.06458" lon="5.90423">
        <ele>285.6</ele>
        <time>2019-05-30T10:00:25Z</time>
      </trkpt>
      <trkpt lat="48.06475" lon="5.90414">
        <ele>285.2</ele>
        <time>2019-05-30T10:00:29Z</time>
      </trkpt>
      <trkpt lat="48.06493" lon="5.9041">
        <ele>284</ele>
        <time>2019-05-30T10:00:33Z</time>
      </trkpt>
      <trkpt lat="48.06521" lon="5.90407">
        <ele>284</ele>
        <time>2019-05-30T10:00:37Z</time>
      </trkpt>
      <trkpt lat="48.06545" lon="5.90407">
        <ele>283.4</ele>
        <time>2019-05-30T10:00:41Z</time>
      </trkpt>
      <trkpt lat="48.06569" lon="5.9042">
        <ele>283</ele>
        <time>2019-05-30T10:00:45Z</time>
      </trkpt>
      <trkpt lat="48.06595" lon="5.90438">
        <ele>281.8</ele>
        <time>2019-05-30T10:00:49Z</time>
      </trkpt>
      <trkpt lat="48.06628" lon="5.90458">
        <ele>279.4</ele>
        <time>2019-05-30T10:00:53Z</time>
      </trkpt>
      <trkpt lat="48.06664" lon="5.90468">
        <ele>279.8</ele>
        <time>2019-05-30T10:00:57Z</time>
      </trkpt>
      <trkpt lat="48.06694" lon="5.9047">
        <ele>282.4</ele>
        <time>2019-05-30T10:01:01Z</time>
      </trkpt>
      <trkpt lat="48.06728" lon="5.90469">
        <ele>283.2</ele>
        <time>2019-05-30T10:01:05Z</time>
      </trkpt>
      <trkpt lat="48.06749" lon="5.90466">
        <ele>283.6</ele>
        <time>2019-05-30T10:01:09Z</time>
      </trkpt>
      <trkpt lat="48.06759" lon="5.90463">
        <ele>283.8</ele>
        <time>2019-05-30T10:01:13Z</time>
      </trkpt>
      <trkpt lat="48.06766" lon="5.90461">
        <ele>284</ele>
        <time>2019-05-30T10:01:17Z</time>
      </trkpt>
      <trkpt lat="48.06768" lon="5.90452">
        <ele>283.4</ele>
        <time>2019-05-30T10:01:21Z</time>
      </trkpt>
      <trkpt lat="48.06765" lon="5.90448">
        <ele>283.6</ele>
        <time>2019-05-30T10:01:25Z</time>
      </trkpt>
      <trkpt lat="48.06768" lon="5.90433">
        <ele>283.4</ele>
        <time>2019-05-30T10:01:29Z</time>
      </trkpt>
      <trkpt lat="48.06772" lon="5.90413">
        <ele>282.2</ele>
        <time>2019-05-30T10:01:33Z</time>
      </trkpt>
      <trkpt lat="48.06776" lon="5.90391">
        <ele>280.6</ele>
        <time>2019-05-30T10:01:37Z</time>
      </trkpt>
      <trkpt lat="48.06781" lon="5.90369">
        <ele>280.6</ele>
        <time>2019-05-30T10:01:41Z</time>
      </trkpt>
      <trkpt lat="48.06783" lon="5.90352">
        <ele>279.8</ele>
        <time>2019-05-30T10:01:45Z</time>
      </trkpt>
      <trkpt lat="48.06787" lon="5.90328">
        <ele>278.4</ele>
        <time>2019-05-30T10:01:49Z</time>
      </trkpt>
      <trkpt lat="48.06792" lon="5.90295">
        <ele>277.2</ele>
        <time>2019-05-30T10:01:53Z</time>
      </trkpt>
      <trkpt lat="48.06804" lon="5.90263">
        <ele>274</ele>
        <time>2019-05-30T10:01:57Z</time>
      </trkpt>
      <trkpt lat="48.06822" lon="5.90247">
        <ele>274</ele>
        <time>2019-05-30T10:02:01Z</time>
      </trkpt>
      <trkpt lat="48.06841" lon="5.9023">
        <ele>273.4</ele>
        <time>2019-05-30T10:02:05Z</time>
      </trkpt>
      <trkpt lat="48.06864" lon="5.90205">
        <ele>272.4</ele>
        <time>2019-05-30T10:02:09Z</time>
      </trkpt>
      <trkpt lat="48.06885" lon="5.90177">
        <ele>269.8</ele>
        <time>2019-05-30T10:02:13Z</time>
      </trkpt>
      <trkpt lat="48.06897" lon="5.90161">
        <ele>268.6</ele>
        <time>2019-05-30T10:02:17Z</time>
      </trkpt>
      <trkpt lat="48.06909" lon="5.90147">
        <ele>265.4</ele>
        <time>2019-05-30T10:02:21Z</time>
      </trkpt>
      <trkpt lat="48.06923" lon="5.90133">
        <ele>261</ele>
        <time>2019-05-30T10:02:25Z</time>
      </trkpt>
      <trkpt lat="48.06938" lon="5.90125">
        <ele>257.8</ele>
        <time>2019-05-30T10:02:29Z</time>
      </trkpt>
      <trkpt lat="48.06956" lon="5.90113">
        <ele>253.4</ele>
        <time>2019-05-30T10:02:33Z</time>
      </trkpt>
      <trkpt lat="48.06971" lon="5.90104">
        <ele>251.4</ele>
        <time>2019-05-30T10:02:37Z</time>
      </trkpt>
      <trkpt lat="48.06987" lon="5.90102">
        <ele>250.2</ele>
        <time>2019-05-30T10:02:41Z</time>
      </trkpt>
      <trkpt lat="48.07004" lon="5.90099">
        <ele>247</ele>
        <time>2019-05-30T10:02:45Z</time>
      </trkpt>
      <trkpt lat="48.07025" lon="5.90098">
        <ele>247.8</ele>
        <time>2019-05-30T10:02:49Z</time>
      </trkpt>
      <trkpt lat="48.07035" lon="5.90097">
        <ele>247.2</ele>
        <time>2019-05-30T10:02:53Z</time>
      </trkpt>
      <trkpt lat="48.07035" lon="5.90097">
        <ele>247.2</ele>
        <time>2019-05-30T10:02:57Z</time>
      </trkpt>
      <trkpt lat="48.07035" lon="5.90097">
        <ele>247.2</ele>
        <time>2019-05-30T10:03:01Z</time>
      </trkpt>
      <trkpt lat="48.07035" lon="5.90097">
        <ele>247.2</ele>
        <time>2019-05-30T10:03:05Z</time>
      </trkpt>
      <trkpt lat="48.07043" lon="5.90097">
        <ele>247.8</ele>
        <time>2019-05-30T10:03:09Z</time>
      </trkpt>
      <trkpt lat="48.07048" lon="5.90101">
        <ele>249.6</ele>
        <time>2019-05-30T10:03:13Z</time>
      </trkpt>
      <trkpt lat="48.0705" lon="5.90104">
        <ele>250.2</ele>
        <time>2019-05-30T10:03:17Z</time>
      </trkpt>
      <trkpt lat="48.07053" lon="5.90109">
        <ele>251</ele>
        <time>2019-05-30T10:03:21Z</time>
      </trkpt>
      <trkpt lat="48.07056" lon="5.90113">
        <ele>251.6</ele>
        <time>2019-05-30T10:03:25Z</time>
      </trkpt>
      <trkpt lat="48.07058" lon="5.90114">
        <ele>252.2</ele>
        <time>2019-05-30T10:03:29Z</time>
      </trkpt>
      <trkpt lat="48.07062" lon="5.90116">
        <ele>252.4</ele>
        <time>2019-05-30T10:03:33Z</time>
      </trkpt>
      <trkpt lat="48.07062" lon="5.90116">
        <ele>252.4</ele>
        <time>2019-05-30T10:03:37Z</time>
      </trkpt>
      <trkpt lat="48.07064" lon="5.90131">
        <ele>252.2</ele>
        <time>2019-05-30T10:03:41Z</time>
      </trkpt>
      <trkpt lat="48.07067" lon="5.90136">
        <ele>252.2</ele>
        <time>2019-05-30T10:03:45Z</time>
      </trkpt>
      <trkpt lat="48.07072" lon="5.90146">
        <ele>253</ele>
        <time>2019-05-30T10:03:49Z</time>
      </trkpt>
      <trkpt lat="48.07081" lon="5.90159">
        <ele>252.8</ele>
        <time>2019-05-30T10:03:53Z</time>
      </trkpt>
      <trkpt lat="48.07087" lon="5.90169">
        <ele>253.2</ele>
        <time>2019-05-30T10:03:57Z</time>
      </trkpt>
      <trkpt lat="48.07094" lon="5.90183">
        <ele>253.2</ele>
        <time>2019-05-30T10:04:01Z</time>
      </trkpt>
      <trkpt lat="48.07099" lon="5.90194">
        <ele>254.4</ele>
        <time>2019-05-30T10:04:05Z</time>
      </trkpt>
      <trkpt lat="48.07106" lon="5.90205">
        <ele>252.6</ele>
        <time>2019-05-30T10:04:09Z</time>
      </trkpt>
      <trkpt lat="48.07108" lon="5.90221">
        <ele>252.6</ele>
        <time>2019-05-30T10:04:13Z</time>
      </trkpt>
      <trkpt lat="48.07113" lon="5.90235">
        <ele>253</ele>
        <time>2019-05-30T10:04:17Z</time>
      </trkpt>
      <trkpt lat="48.07113" lon="5.90235">
        <ele>253</ele>
        <time>2019-05-30T10:04:21Z</time>
      </trkpt>
      <trkpt lat="48.07119" lon="5.90248">
        <ele>251.6</ele>
        <time>2019-05-30T10:04:25Z</time>
      </trkpt>
      <trkpt lat="48.07121" lon="5.90257">
        <ele>249</ele>
        <time>2019-05-30T10:04:29Z</time>
      </trkpt>
      <trkpt lat="48.07123" lon="5.90267">
        <ele>247.4</ele>
        <time>2019-05-30T10:04:33Z</time>
      </trkpt>
      <trkpt lat="48.07127" lon="5.90273">
        <ele>246.6</ele>
        <time>2019-05-30T10:04:37Z</time>
      </trkpt>
      <trkpt lat="48.07135" lon="5.90276">
        <ele>248.4</ele>
        <time>2019-05-30T10:04:41Z</time>
      </trkpt>
      <trkpt lat="48.07135" lon="5.90276">
        <ele>248.4</ele>
        <time>2019-05-30T10:04:45Z</time>
      </trkpt>
      <trkpt lat="48.07135" lon="5.90276">
        <ele>248.4</ele>
        <time>2019-05-30T10:04:49Z</time>
      </trkpt>
      <trkpt lat="48.07149" lon="5.90285">
        <ele>248</ele>
        <time>2019-05-30T10:04:53Z</time>
      </trkpt>
      <trkpt lat="48.07149" lon="5.90285">
        <ele>248</ele>
        <time>2019-05-30T10:04:57Z</time>
      </trkpt>
      <trkpt lat="48.07149" lon="5.90285">
        <ele>248</ele>
        <time>2019-05-30T10:05:01Z</time>
      </trkpt>
      <trkpt lat="48.07149" lon="5.90285">
        <ele>248</ele>
        <time>2019-05-30T10:05:05Z</time>
      </trkpt>
      <trkpt lat="48.07149" lon="5.90285">
        <ele>248</ele>
        <time>2019-05-30T10:05:09Z</time>
      </trkpt>
      <trkpt lat="48.07149" lon="5.90285">
        <ele>248</ele>
        <time>2019-05-30T10:05:13Z</time>
      </trkpt>
      <trkpt lat="48.07157" lon="5.90293">
        <ele>248.2</ele>
        <time>2019-05-30T10:05:17Z</time>
      </trkpt>
      <trkpt lat="48.07161" lon="5.90291">
        <ele>248.6</ele>
        <time>2019-05-30T10:05:21Z</time>
      </trkpt>
      <trkpt lat="48.07163" lon="5.90289">
        <ele>250.2</ele>
        <time>2019-05-30T10:05:25Z</time>
      </trkpt>
      <trkpt lat="48.07163" lon="5.90289">
        <ele>250.2</ele>
        <time>2019-05-30T10:05:29Z</time>
      </trkpt>
      <trkpt lat="48.07165" lon="5.90285">
        <ele>251.4</ele>
        <time>2019-05-30T10:05:33Z</time>
      </trkpt>
      <trkpt lat="48.07165" lon="5.90283">
        <ele>252.2</ele>
        <time>2019-05-30T10:05:37Z</time>
      </trkpt>
      <trkpt lat="48.07167" lon="5.90278">
        <ele>252.2</ele>
        <time>2019-05-30T10:05:41Z</time>
      </trkpt>
      <trkpt lat="48.07166" lon="5.90273">
        <ele>252.4</ele>
        <time>2019-05-30T10:05:45Z</time>
      </trkpt>
      <trkpt lat="48.07165" lon="5.90268">
        <ele>253.8</ele>
        <time>2019-05-30T10:05:49Z</time>
      </trkpt>
      <trkpt lat="48.07165" lon="5.90268">
        <ele>253.8</ele>
        <time>2019-05-30T10:05:53Z</time>
      </trkpt>
      <trkpt lat="48.07165" lon="5.90268">
        <ele>253.8</ele>
        <time>2019-05-30T10:05:57Z</time>
      </trkpt>
      <trkpt lat="48.07165" lon="5.90268">
        <ele>253.8</ele>
        <time>2019-05-30T10:06:01Z</time>
      </trkpt>
      <trkpt lat="48.07167" lon="5.90262">
        <ele>254.2</ele>
        <time>2019-05-30T10:06:05Z</time>
      </trkpt>
      <trkpt lat="48.07167" lon="5.90262">
        <ele>254.2</ele>
        <time>2019-05-30T10:06:09Z</time>
      </trkpt>
      <trkpt lat="48.07167" lon="5.90262">
        <ele>254.2</ele>
        <time>2019-05-30T10:06:13Z</time>
      </trkpt>
      <trkpt lat="48.07167" lon="5.90262">
        <ele>254.2</ele>
        <time>2019-05-30T10:06:17Z</time>
      </trkpt>
      <trkpt lat="48.07167" lon="5.90262">
        <ele>254.2</ele>
        <time>2019-05-30T10:06:21Z</time>
      </trkpt>
      <trkpt lat="48.07167" lon="5.90262">
        <ele>254.2</ele>
        <time>2019-05-30T10:06:25Z</time>
      </trkpt>
      <trkpt lat="48.07167" lon="5.90262">
        <ele>254.2</ele>
        <time>2019-05-30T10:06:29Z</time>
      </trkpt>
      <trkpt lat="48.07167" lon="5.90262">
        <ele>254.2</ele>
        <time>2019-05-30T10:06:33Z</time>
      </trkpt>
      <trkpt lat="48.07167" lon="5.90262">
        <ele>254.2</ele>
        <time>2019-05-30T10:06:37Z</time>
      </trkpt>
      <trkpt lat="48.07168" lon="5.90259">
        <ele>254.8</ele>
        <time>2019-05-30T10:06:41Z</time>
      </trkpt>
      <trkpt lat="48.0717" lon="5.90256">
        <ele>255.2</ele>
        <time>2019-05-30T10:06:45Z</time>
      </trkpt>
      <trkpt lat="48.0717" lon="5.90254">
        <ele>254.4</ele>
        <time>2019-05-30T10:06:49Z</time>
      </trkpt>
      <trkpt lat="48.0717" lon="5.90254">
        <ele>254.4</ele>
        <time>2019-05-30T10:06:53Z</time>
      </trkpt>
      <trkpt lat="48.0717" lon="5.90254">
        <ele>254.4</ele>
        <time>2019-05-30T10:06:57Z</time>
      </trkpt>
      <trkpt lat="48.0717" lon="5.90254">
        <ele>254.4</ele>
        <time>2019-05-30T10:07:01Z</time>
      </trkpt>
      <trkpt lat="48.0717" lon="5.90254">
        <ele>254.4</ele>
        <time>2019-05-30T10:07:05Z</time>
      </trkpt>
      <trkpt lat="48.0717" lon="5.90254">
        <ele>254.4</ele>
        <time>2019-05-30T10:07:09Z</time>
      </trkpt>
      <trkpt lat="48.0717" lon="5.90254">
        <ele>254.4</ele>
        <time>2019-05-30T10:07:13Z</time>
      </trkpt>
      <trkpt lat="48.0717" lon="5.90254">
        <ele>254.4</ele>
        <time>2019-05-30T10:07:17Z</time>
      </trkpt>
      <trkpt lat="48.0717" lon="5.90254">
        <ele>254.4</ele>
        <time>2019-05-30T10:07:21Z</time>
      </trkpt>
      <trkpt lat="48.0717" lon="5.90254">
        <ele>254.4</ele>
        <time>2019-05-30T10:07:25Z</time>
      </trkpt>
      <trkpt lat="48.0717" lon="5.90254">
        <ele>254.4</ele>
        <time>2019-05-30T10:07:29Z</time>
      </trkpt>
      <trkpt lat="48.0717" lon="5.90254">
        <ele>254.4</ele>
        <time>2019-05-30T10:07:33Z</time>
      </trkpt>
      <trkpt lat="48.0717" lon="5.90254">
        <ele>254.4</ele>
        <time>2019-05-30T10:07:37Z</time>
      </trkpt>
      <trkpt lat="48.0717" lon="5.90254">
        <ele>254.4</ele>
        <time>2019-05-30T10:07:41Z</time>
      </trkpt>
      <trkpt lat="48.0717" lon="5.90254">
        <ele>254.4</ele>
        <time>2019-05-30T10:07:45Z</time>
      </trkpt>
      <trkpt lat="48.0717" lon="5.90254">
        <ele>254.4</ele>
        <time>2019-05-30T10:07:49Z</time>
      </trkpt>
      <trkpt lat="48.0717" lon="5.90254">
        <ele>254.4</ele>
        <time>2019-05-30T10:07:53Z</time>
      </trkpt>
      <trkpt lat="48.0717" lon="5.90254">
        <ele>254.4</ele>
        <time>2019-05-30T10:07:57Z</time>
      </trkpt>
      <trkpt lat="48.0717" lon="5.90254">
        <ele>254.4</ele>
        <time>2019-05-30T10:08:01Z</time>
      </trkpt>
      <trkpt lat="48.0717" lon="5.90254">
        <ele>254.4</ele>
        <time>2019-05-30T10:08:05Z</time>
      </trkpt>
      <trkpt lat="48.0717" lon="5.90254">
        <ele>254.4</ele>
        <time>2019-05-30T10:08:09Z</time>
      </trkpt>
      <trkpt lat="48.0717" lon="5.90254">
        <ele>254.4</ele>
        <time>2019-05-30T10:08:13Z</time>
      </trkpt>
      <trkpt lat="48.0717" lon="5.90254">
        <ele>254.4</ele>
        <time>2019-05-30T10:08:17Z</time>
      </trkpt>
      <trkpt lat="48.07168" lon="5.9026">
        <ele>254.4</ele>
        <time>2019-05-30T10:08:21Z</time>
      </trkpt>
      <trkpt lat="48.07169" lon="5.90262">
        <ele>254.4</ele>
        <time>2019-05-30T10:08:25Z</time>
      </trkpt>
      <trkpt lat="48.0717" lon="5.90265">
        <ele>254.2</ele>
        <time>2019-05-30T10:08:29Z</time>
      </trkpt>
      <trkpt lat="48.0717" lon="5.90265">
        <ele>254.2</ele>
        <time>2019-05-30T10:08:33Z</time>
      </trkpt>
      <trkpt lat="48.0717" lon="5.90265">
        <ele>254.2</ele>
        <time>2019-05-30T10:08:37Z</time>
      </trkpt>
      <trkpt lat="48.0717" lon="5.90265">
        <ele>254.2</ele>
        <time>2019-05-30T10:08:41Z</time>
      </trkpt>
      <trkpt lat="48.0717" lon="5.90265">
        <ele>254.2</ele>
        <time>2019-05-30T10:08:45Z</time>
      </trkpt>
      <trkpt lat="48.0717" lon="5.90265">
        <ele>254.2</ele>
        <time>2019-05-30T10:08:49Z</time>
      </trkpt>
      <trkpt lat="48.0717" lon="5.90265">
        <ele>254.2</ele>
        <time>2019-05-30T10:08:53Z</time>
      </trkpt>
      <trkpt lat="48.07174" lon="5.90261">
        <ele>254.6</ele>
        <time>2019-05-30T10:08:57Z</time>
      </trkpt>
      <trkpt lat="48.07175" lon="5.90266">
        <ele>255.2</ele>
        <time>2019-05-30T10:09:01Z</time>
      </trkpt>
      <trkpt lat="48.07177" lon="5.90274">
        <ele>255.6</ele>
        <time>2019-05-30T10:09:05Z</time>
      </trkpt>
      <trkpt lat="48.0718" lon="5.90281">
        <ele>256.4</ele>
        <time>2019-05-30T10:09:09Z</time>
      </trkpt>
      <trkpt lat="48.07182" lon="5.90289">
        <ele>257.6</ele>
        <time>2019-05-30T10:09:13Z</time>
      </trkpt>
      <trkpt lat="48.07184" lon="5.90297">
        <ele>258.4</ele>
        <time>2019-05-30T10:09:17Z</time>
      </trkpt>
      <trkpt lat="48.07186" lon="5.90305">
        <ele>258.8</ele>
        <time>2019-05-30T10:09:21Z</time>
      </trkpt>
      <trkpt lat="48.07189" lon="5.90313">
        <ele>259.6</ele>
        <time>2019-05-30T10:09:25Z</time>
      </trkpt>
      <trkpt lat="48.07191" lon="5.90321">
        <ele>260.6</ele>
        <time>2019-05-30T10:09:29Z</time>
      </trkpt>
      <trkpt lat="48.07192" lon="5.90329">
        <ele>261.6</ele>
        <time>2019-05-30T10:09:33Z</time>
      </trkpt>
      <trkpt lat="48.07195" lon="5.90339">
        <ele>261.8</ele>
        <time>2019-05-30T10:09:37Z</time>
      </trkpt>
      <trkpt lat="48.07198" lon="5.9035">
        <ele>262.6</ele>
        <time>2019-05-30T10:09:41Z</time>
      </trkpt>
      <trkpt lat="48.07202" lon="5.90358">
        <ele>263.2</ele>
        <time>2019-05-30T10:09:45Z</time>
      </trkpt>
      <trkpt lat="48.07206" lon="5.90362">
        <ele>263.6</ele>
        <time>2019-05-30T10:09:49Z</time>
      </trkpt>
      <trkpt lat="48.07213" lon="5.90363">
        <ele>264.2</ele>
        <time>2019-05-30T10:09:53Z</time>
      </trkpt>
      <trkpt lat="48.07219" lon="5.90361">
        <ele>264.8</ele>
        <time>2019-05-30T10:09:57Z</time>
      </trkpt>
      <trkpt lat="48.07225" lon="5.9036">
        <ele>265.6</ele>
        <time>2019-05-30T10:10:01Z</time>
      </trkpt>
      <trkpt lat="48.07232" lon="5.90357">
        <ele>265.6</ele>
        <time>2019-05-30T10:10:05Z</time>
      </trkpt>
      <trkpt lat="48.0724" lon="5.90353">
        <ele>266.2</ele>
        <time>2019-05-30T10:10:09Z</time>
      </trkpt>
      <trkpt lat="48.07246" lon="5.90349">
        <ele>267</ele>
        <time>2019-05-30T10:10:13Z</time>
      </trkpt>
      <trkpt lat="48.07252" lon="5.90342">
        <ele>267.4</ele>
        <time>2019-05-30T10:10:17Z</time>
      </trkpt>
      <trkpt lat="48.07257" lon="5.90338">
        <ele>267.8</ele>
        <time>2019-05-30T10:10:21Z</time>
      </trkpt>
      <trkpt lat="48.07264" lon="5.90331">
        <ele>268.6</ele>
        <time>2019-05-30T10:10:25Z</time>
      </trkpt>
      <trkpt lat="48.0727" lon="5.90323">
        <ele>268.2</ele>
        <time>2019-05-30T10:10:29Z</time>
      </trkpt>
      <trkpt lat="48.07277" lon="5.90314">
        <ele>269</ele>
        <time>2019-05-30T10:10:33Z</time>
      </trkpt>
      <trkpt lat="48.07283" lon="5.90305">
        <ele>269.2</ele>
        <time>2019-05-30T10:10:37Z</time>
      </trkpt>
      <trkpt lat="48.07287" lon="5.90293">
        <ele>269.6</ele>
        <time>2019-05-30T10:10:41Z</time>
      </trkpt>
      <trkpt lat="48.07287" lon="5.90282">
        <ele>270.2</ele>
        <time>2019-05-30T10:10:45Z</time>
      </trkpt>
      <trkpt lat="48.07285" lon="5.90271">
        <ele>269.6</ele>
        <time>2019-05-30T10:10:49Z</time>
      </trkpt>
      <trkpt lat="48.07281" lon="5.90259">
        <ele>270.4</ele>
        <time>2019-05-30T10:10:53Z</time>
      </trkpt>
      <trkpt lat="48.07275" lon="5.90248">
        <ele>270.2</ele>
        <time>2019-05-30T10:10:57Z</time>
      </trkpt>
      <trkpt lat="48.07268" lon="5.90236">
        <ele>270.2</ele>
        <time>2019-05-30T10:11:01Z</time>
      </trkpt>
      <trkpt lat="48.07262" lon="5.90223">
        <ele>270.6</ele>
        <time>2019-05-30T10:11:05Z</time>
      </trkpt>
      <trkpt lat="48.07255" lon="5.9021">
        <ele>270.4</ele>
        <time>2019-05-30T10:11:09Z</time>
      </trkpt>
      <trkpt lat="48.07249" lon="5.90196">
        <ele>270</ele>
        <time>2019-05-30T10:11:13Z</time>
      </trkpt>
      <trkpt lat="48.07241" lon="5.90185">
        <ele>270.6</ele>
        <time>2019-05-30T10:11:17Z</time>
      </trkpt>
      <trkpt lat="48.07234" lon="5.9017">
        <ele>270.8</ele>
        <time>2019-05-30T10:11:21Z</time>
      </trkpt>
      <trkpt lat="48.07228" lon="5.90154">
        <ele>270.6</ele>
        <time>2019-05-30T10:11:25Z</time>
      </trkpt>
      <trkpt lat="48.07221" lon="5.90139">
        <ele>270.8</ele>
        <time>2019-05-30T10:11:29Z</time>
      </trkpt>
      <trkpt lat="48.07213" lon="5.90122">
        <ele>271.2</ele>
        <time>2019-05-30T10:11:33Z</time>
      </trkpt>
      <trkpt lat="48.07207" lon="5.90109">
        <ele>271.6</ele>
        <time>2019-05-30T10:11:37Z</time>
      </trkpt>
      <trkpt lat="48.07203" lon="5.90097">
        <ele>272.8</ele>
        <time>2019-05-30T10:11:41Z</time>
      </trkpt>
      <trkpt lat="48.072" lon="5.90084">
        <ele>273.8</ele>
        <time>2019-05-30T10:11:45Z</time>
      </trkpt>
      <trkpt lat="48.07198" lon="5.90071">
        <ele>274.6</ele>
        <time>2019-05-30T10:11:49Z</time>
      </trkpt>
      <trkpt lat="48.07194" lon="5.90061">
        <ele>275.2</ele>
        <time>2019-05-30T10:11:53Z</time>
      </trkpt>
      <trkpt lat="48.07189" lon="5.90053">
        <ele>275.8</ele>
        <time>2019-05-30T10:11:57Z</time>
      </trkpt>
      <trkpt lat="48.07183" lon="5.90044">
        <ele>276.2</ele>
        <time>2019-05-30T10:12:01Z</time>
      </trkpt>
      <trkpt lat="48.07178" lon="5.90036">
        <ele>277.4</ele>
        <time>2019-05-30T10:12:05Z</time>
      </trkpt>
      <trkpt lat="48.07174" lon="5.90031">
        <ele>278.2</ele>
        <time>2019-05-30T10:12:09Z</time>
      </trkpt>
      <trkpt lat="48.07169" lon="5.9002">
        <ele>278.4</ele>
        <time>2019-05-30T10:12:13Z</time>
      </trkpt>
      <trkpt lat="48.07164" lon="5.90011">
        <ele>279</ele>
        <time>2019-05-30T10:12:17Z</time>
      </trkpt>
      <trkpt lat="48.07156" lon="5.90001">
        <ele>278.8</ele>
        <time>2019-05-30T10:12:21Z</time>
      </trkpt>
      <trkpt lat="48.0715" lon="5.89991">
        <ele>279.6</ele>
        <time>2019-05-30T10:12:25Z</time>
      </trkpt>
      <trkpt lat="48.07144" lon="5.89978">
        <ele>280</ele>
        <time>2019-05-30T10:12:29Z</time>
      </trkpt>
      <trkpt lat="48.07138" lon="5.89965">
        <ele>279.8</ele>
        <time>2019-05-30T10:12:33Z</time>
      </trkpt>
      <trkpt lat="48.07132" lon="5.89955">
        <ele>280</ele>
        <time>2019-05-30T10:12:37Z</time>
      </trkpt>
      <trkpt lat="48.07126" lon="5.89946">
        <ele>279.8</ele>
        <time>2019-05-30T10:12:41Z</time>
      </trkpt>
      <trkpt lat="48.07119" lon="5.89928">
        <ele>280.2</ele>
        <time>2019-05-30T10:12:45Z</time>
      </trkpt>
      <trkpt lat="48.07114" lon="5.89909">
        <ele>280.6</ele>
        <time>2019-05-30T10:12:49Z</time>
      </trkpt>
      <trkpt lat="48.07101" lon="5.89899">
        <ele>279.8</ele>
        <time>2019-05-30T10:12:53Z</time>
      </trkpt>
      <trkpt lat="48.07087" lon="5.89884">
        <ele>278.8</ele>
        <time>2019-05-30T10:12:57Z</time>
      </trkpt>
      <trkpt lat="48.07072" lon="5.89875">
        <ele>277.8</ele>
        <time>2019-05-30T10:13:01Z</time>
      </trkpt>
      <trkpt lat="48.07051" lon="5.89873">
        <ele>276.2</ele>
        <time>2019-05-30T10:13:05Z</time>
      </trkpt>
      <trkpt lat="48.07035" lon="5.89884">
        <ele>275.8</ele>
        <time>2019-05-30T10:13:09Z</time>
      </trkpt>
      <trkpt lat="48.07027" lon="5.89896">
        <ele>275.2</ele>
        <time>2019-05-30T10:13:13Z</time>
      </trkpt>
      <trkpt lat="48.07017" lon="5.89901">
        <ele>274</ele>
        <time>2019-05-30T10:13:17Z</time>
      </trkpt>
      <trkpt lat="48.06998" lon="5.89898">
        <ele>273.2</ele>
        <time>2019-05-30T10:13:21Z</time>
      </trkpt>
      <trkpt lat="48.06979" lon="5.89888">
        <ele>271.4</ele>
        <time>2019-05-30T10:13:25Z</time>
      </trkpt>
      <trkpt lat="48.06957" lon="5.89874">
        <ele>271.4</ele>
        <time>2019-05-30T10:13:29Z</time>
      </trkpt>
      <trkpt lat="48.06944" lon="5.89849">
        <ele>272</ele>
        <time>2019-05-30T10:13:33Z</time>
      </trkpt>
      <trkpt lat="48.06931" lon="5.89826">
        <ele>271.2</ele>
        <time>2019-05-30T10:13:37Z</time>
      </trkpt>
      <trkpt lat="48.06916" lon="5.89796">
        <ele>271.4</ele>
        <time>2019-05-30T10:13:41Z</time>
      </trkpt>
      <trkpt lat="48.06903" lon="5.89768">
        <ele>269.2</ele>
        <time>2019-05-30T10:13:45Z</time>
      </trkpt>
      <trkpt lat="48.069" lon="5.89757">
        <ele>269.6</ele>
        <time>2019-05-30T10:13:49Z</time>
      </trkpt>
      <trkpt lat="48.06897" lon="5.89756">
        <ele>269.4</ele>
        <time>2019-05-30T10:13:53Z</time>
      </trkpt>
      <trkpt lat="48.06892" lon="5.8976">
        <ele>270.2</ele>
        <time>2019-05-30T10:13:57Z</time>
      </trkpt>
      <trkpt lat="48.06892" lon="5.8976">
        <ele>270.2</ele>
        <time>2019-05-30T10:14:01Z</time>
      </trkpt>
      <trkpt lat="48.06892" lon="5.8976">
        <ele>270.2</ele>
        <time>2019-05-30T10:14:05Z</time>
      </trkpt>
      <trkpt lat="48.06892" lon="5.8976">
        <ele>270.2</ele>
        <time>2019-05-30T10:14:09Z</time>
      </trkpt>
      <trkpt lat="48.06887" lon="5.89762">
        <ele>269.2</ele>
        <time>2019-05-30T10:14:13Z</time>
      </trkpt>
      <trkpt lat="48.06882" lon="5.89768">
        <ele>269.6</ele>
        <time>2019-05-30T10:14:17Z</time>
      </trkpt>
      <trkpt lat="48.06878" lon="5.89778">
        <ele>270</ele>
        <time>2019-05-30T10:14:21Z</time>
      </trkpt>
      <trkpt lat="48.06873" lon="5.89786">
        <ele>271</ele>
        <time>2019-05-30T10:14:25Z</time>
      </trkpt>
      <trkpt lat="48.06866" lon="5.89792">
        <ele>271.4</ele>
        <time>2019-05-30T10:14:29Z</time>
      </trkpt>
      <trkpt lat="48.06857" lon="5.89808">
        <ele>271.2</ele>
        <time>2019-05-30T10:14:33Z</time>
      </trkpt>
      <trkpt lat="48.06848" lon="5.89824">
        <ele>271.2</ele>
        <time>2019-05-30T10:14:37Z</time>
      </trkpt>
      <trkpt lat="48.06839" lon="5.89837">
        <ele>271.8</ele>
        <time>2019-05-30T10:14:41Z</time>
      </trkpt>
      <trkpt lat="48.06827" lon="5.89854">
        <ele>272.4</ele>
        <time>2019-05-30T10:14:45Z</time>
      </trkpt>
      <trkpt lat="48.06812" lon="5.89866">
        <ele>271</ele>
        <time>2019-05-30T10:14:49Z</time>
      </trkpt>
      <trkpt lat="48.06794" lon="5.89866">
        <ele>270.2</ele>
        <time>2019-05-30T10:14:53Z</time>
      </trkpt>
      <trkpt lat="48.0677" lon="5.89854">
        <ele>267</ele>
        <time>2019-05-30T10:14:57Z</time>
      </trkpt>
      <trkpt lat="48.06745" lon="5.89845">
        <ele>265.2</ele>
        <time>2019-05-30T10:15:01Z</time>
      </trkpt>
      <trkpt lat="48.06725" lon="5.89837">
        <ele>264</ele>
        <time>2019-05-30T10:15:05Z</time>
      </trkpt>
      <trkpt lat="48.06723" lon="5.89815">
        <ele>257.6</ele>
        <time>2019-05-30T10:15:09Z</time>
      </trkpt>
      <trkpt lat="48.06732" lon="5.89781">
        <ele>256.2</ele>
        <time>2019-05-30T10:15:13Z</time>
      </trkpt>
      <trkpt lat="48.06746" lon="5.89745">
        <ele>252</ele>
        <time>2019-05-30T10:15:17Z</time>
      </trkpt>
      <trkpt lat="48.06763" lon="5.89708">
        <ele>251.8</ele>
        <time>2019-05-30T10:15:21Z</time>
      </trkpt>
      <trkpt lat="48.06774" lon="5.89677">
        <ele>247.2</ele>
        <time>2019-05-30T10:15:25Z</time>
      </trkpt>
      <trkpt lat="48.0678" lon="5.89654">
        <ele>243.6</ele>
        <time>2019-05-30T10:15:29Z</time>
      </trkpt>
      <trkpt lat="48.06784" lon="5.89629">
        <ele>240.2</ele>
        <time>2019-05-30T10:15:33Z</time>
      </trkpt>
      <trkpt lat="48.0678" lon="5.89614">
        <ele>238.4</ele>
        <time>2019-05-30T10:15:37Z</time>
      </trkpt>
      <trkpt lat="48.06779" lon="5.89604">
        <ele>238.6</ele>
        <time>2019-05-30T10:15:41Z</time>
      </trkpt>
      <trkpt lat="48.06784" lon="5.89593">
        <ele>238.8</ele>
        <time>2019-05-30T10:15:45Z</time>
      </trkpt>
      <trkpt lat="48.06789" lon="5.89591">
        <ele>238.6</ele>
        <time>2019-05-30T10:15:49Z</time>
      </trkpt>
      <trkpt lat="48.06799" lon="5.89587">
        <ele>239.2</ele>
        <time>2019-05-30T10:15:53Z</time>
      </trkpt>
      <trkpt lat="48.06807" lon="5.89579">
        <ele>239.2</ele>
        <time>2019-05-30T10:15:57Z</time>
      </trkpt>
      <trkpt lat="48.0681" lon="5.89573">
        <ele>238.4</ele>
        <time>2019-05-30T10:16:01Z</time>
      </trkpt>
      <trkpt lat="48.0681" lon="5.89565">
        <ele>238.6</ele>
        <time>2019-05-30T10:16:05Z</time>
      </trkpt>
      <trkpt lat="48.06811" lon="5.89554">
        <ele>238.6</ele>
        <time>2019-05-30T10:16:09Z</time>
      </trkpt>
      <trkpt lat="48.06819" lon="5.89547">
        <ele>239</ele>
        <time>2019-05-30T10:16:13Z</time>
      </trkpt>
      <trkpt lat="48.06829" lon="5.89538">
        <ele>239.8</ele>
        <time>2019-05-30T10:16:17Z</time>
      </trkpt>
      <trkpt lat="48.06836" lon="5.89528">
        <ele>240.6</ele>
        <time>2019-05-30T10:16:21Z</time>
      </trkpt>
      <trkpt lat="48.06844" lon="5.8952">
        <ele>242</ele>
        <time>2019-05-30T10:16:25Z</time>
      </trkpt>
      <trkpt lat="48.06851" lon="5.89513">
        <ele>241.6</ele>
        <time>2019-05-30T10:16:29Z</time>
      </trkpt>
      <trkpt lat="48.06857" lon="5.89507">
        <ele>242</ele>
        <time>2019-05-30T10:16:33Z</time>
      </trkpt>
      <trkpt lat="48.06864" lon="5.895">
        <ele>242.4</ele>
        <time>2019-05-30T10:16:37Z</time>
      </trkpt>
      <trkpt lat="48.06867" lon="5.89493">
        <ele>243.6</ele>
        <time>2019-05-30T10:16:41Z</time>
      </trkpt>
      <trkpt lat="48.06867" lon="5.89486">
        <ele>244</ele>
        <time>2019-05-30T10:16:45Z</time>
      </trkpt>
      <trkpt lat="48.06869" lon="5.8948">
        <ele>245.8</ele>
        <time>2019-05-30T10:16:49Z</time>
      </trkpt>
      <trkpt lat="48.06871" lon="5.89473">
        <ele>246.4</ele>
        <time>2019-05-30T10:16:53Z</time>
      </trkpt>
      <trkpt lat="48.06873" lon="5.89466">
        <ele>247.4</ele>
        <time>2019-05-30T10:16:57Z</time>
      </trkpt>
      <trkpt lat="48.06877" lon="5.89455">
        <ele>248.2</ele>
        <time>2019-05-30T10:17:01Z</time>
      </trkpt>
      <trkpt lat="48.06878" lon="5.89448">
        <ele>249.2</ele>
        <time>2019-05-30T10:17:05Z</time>
      </trkpt>
      <trkpt lat="48.06878" lon="5.8944">
        <ele>250.2</ele>
        <time>2019-05-30T10:17:09Z</time>
      </trkpt>
      <trkpt lat="48.06878" lon="5.89431">
        <ele>251.2</ele>
        <time>2019-05-30T10:17:13Z</time>
      </trkpt>
      <trkpt lat="48.06879" lon="5.89426">
        <ele>252.6</ele>
        <time>2019-05-30T10:17:17Z</time>
      </trkpt>
      <trkpt lat="48.06881" lon="5.89418">
        <ele>253</ele>
        <time>2019-05-30T10:17:21Z</time>
      </trkpt>
      <trkpt lat="48.06887" lon="5.89408">
        <ele>253.8</ele>
        <time>2019-05-30T10:17:25Z</time>
      </trkpt>
      <trkpt lat="48.06891" lon="5.89397">
        <ele>254.8</ele>
        <time>2019-05-30T10:17:30Z</time>
      </trkpt>
      <trkpt lat="48.06896" lon="5.89391">
        <ele>254.6</ele>
        <time>2019-05-30T10:17:33Z</time>
      </trkpt>
      <trkpt lat="48.06902" lon="5.89384">
        <ele>254.8</ele>
        <time>2019-05-30T10:17:37Z</time>
      </trkpt>
      <trkpt lat="48.06908" lon="5.89376">
        <ele>255.2</ele>
        <time>2019-05-30T10:17:41Z</time>
      </trkpt>
      <trkpt lat="48.06912" lon="5.89368">
        <ele>255.6</ele>
        <time>2019-05-30T10:17:45Z</time>
      </trkpt>
      <trkpt lat="48.06915" lon="5.89358">
        <ele>256.4</ele>
        <time>2019-05-30T10:17:49Z</time>
      </trkpt>
      <trkpt lat="48.06917" lon="5.89351">
        <ele>257.2</ele>
        <time>2019-05-30T10:17:53Z</time>
      </trkpt>
      <trkpt lat="48.06919" lon="5.89343">
        <ele>258.2</ele>
        <time>2019-05-30T10:17:57Z</time>
      </trkpt>
      <trkpt lat="48.06919" lon="5.89335">
        <ele>259.2</ele>
        <time>2019-05-30T10:18:01Z</time>
      </trkpt>
      <trkpt lat="48.06921" lon="5.89331">
        <ele>259.8</ele>
        <time>2019-05-30T10:18:05Z</time>
      </trkpt>
      <trkpt lat="48.06922" lon="5.89324">
        <ele>260.4</ele>
        <time>2019-05-30T10:18:09Z</time>
      </trkpt>
      <trkpt lat="48.06924" lon="5.89314">
        <ele>260.4</ele>
        <time>2019-05-30T10:18:13Z</time>
      </trkpt>
      <trkpt lat="48.06925" lon="5.89307">
        <ele>260.6</ele>
        <time>2019-05-30T10:18:17Z</time>
      </trkpt>
      <trkpt lat="48.06925" lon="5.89307">
        <ele>260.6</ele>
        <time>2019-05-30T10:18:21Z</time>
      </trkpt>
      <trkpt lat="48.06926" lon="5.89299">
        <ele>261</ele>
        <time>2019-05-30T10:18:25Z</time>
      </trkpt>
      <trkpt lat="48.06928" lon="5.89289">
        <ele>260.8</ele>
        <time>2019-05-30T10:18:29Z</time>
      </trkpt>
      <trkpt lat="48.0693" lon="5.89279">
        <ele>261.8</ele>
        <time>2019-05-30T10:18:33Z</time>
      </trkpt>
      <trkpt lat="48.0693" lon="5.89272">
        <ele>262.2</ele>
        <time>2019-05-30T10:18:37Z</time>
      </trkpt>
      <trkpt lat="48.06931" lon="5.89264">
        <ele>262.6</ele>
        <time>2019-05-30T10:18:41Z</time>
      </trkpt>
      <trkpt lat="48.06932" lon="5.89255">
        <ele>263.4</ele>
        <time>2019-05-30T10:18:45Z</time>
      </trkpt>
      <trkpt lat="48.06932" lon="5.89245">
        <ele>263.6</ele>
        <time>2019-05-30T10:18:49Z</time>
      </trkpt>
      <trkpt lat="48.06932" lon="5.89233">
        <ele>265.4</ele>
        <time>2019-05-30T10:18:53Z</time>
      </trkpt>
      <trkpt lat="48.06933" lon="5.8922">
        <ele>266.6</ele>
        <time>2019-05-30T10:18:57Z</time>
      </trkpt>
      <trkpt lat="48.06936" lon="5.8921">
        <ele>268.2</ele>
        <time>2019-05-30T10:19:01Z</time>
      </trkpt>
      <trkpt lat="48.06941" lon="5.89199">
        <ele>269</ele>
        <time>2019-05-30T10:19:05Z</time>
      </trkpt>
      <trkpt lat="48.06943" lon="5.8919">
        <ele>269.6</ele>
        <time>2019-05-30T10:19:09Z</time>
      </trkpt>
      <trkpt lat="48.06945" lon="5.89182">
        <ele>271</ele>
        <time>2019-05-30T10:19:13Z</time>
      </trkpt>
      <trkpt lat="48.06944" lon="5.89173">
        <ele>271.8</ele>
        <time>2019-05-30T10:19:17Z</time>
      </trkpt>
      <trkpt lat="48.06949" lon="5.89159">
        <ele>273.2</ele>
        <time>2019-05-30T10:19:21Z</time>
      </trkpt>
      <trkpt lat="48.06951" lon="5.89147">
        <ele>274</ele>
        <time>2019-05-30T10:19:25Z</time>
      </trkpt>
      <trkpt lat="48.0695" lon="5.89142">
        <ele>274</ele>
        <time>2019-05-30T10:19:29Z</time>
      </trkpt>
      <trkpt lat="48.06951" lon="5.89131">
        <ele>274.4</ele>
        <time>2019-05-30T10:19:33Z</time>
      </trkpt>
      <trkpt lat="48.06949" lon="5.89122">
        <ele>275.2</ele>
        <time>2019-05-30T10:19:37Z</time>
      </trkpt>
      <trkpt lat="48.06947" lon="5.89112">
        <ele>275.2</ele>
        <time>2019-05-30T10:19:41Z</time>
      </trkpt>
      <trkpt lat="48.06944" lon="5.891">
        <ele>275.8</ele>
        <time>2019-05-30T10:19:45Z</time>
      </trkpt>
      <trkpt lat="48.06941" lon="5.89093">
        <ele>276.2</ele>
        <time>2019-05-30T10:19:49Z</time>
      </trkpt>
      <trkpt lat="48.06941" lon="5.89084">
        <ele>276.8</ele>
        <time>2019-05-30T10:19:53Z</time>
      </trkpt>
      <trkpt lat="48.06938" lon="5.89079">
        <ele>276.6</ele>
        <time>2019-05-30T10:19:57Z</time>
      </trkpt>
      <trkpt lat="48.06933" lon="5.89076">
        <ele>276.4</ele>
        <time>2019-05-30T10:20:01Z</time>
      </trkpt>
      <trkpt lat="48.06932" lon="5.89073">
        <ele>276.8</ele>
        <time>2019-05-30T10:20:05Z</time>
      </trkpt>
      <trkpt lat="48.06925" lon="5.8907">
        <ele>276.8</ele>
        <time>2019-05-30T10:20:09Z</time>
      </trkpt>
      <trkpt lat="48.06916" lon="5.89067">
        <ele>276.4</ele>
        <time>2019-05-30T10:20:13Z</time>
      </trkpt>
      <trkpt lat="48.06906" lon="5.89064">
        <ele>277.4</ele>
        <time>2019-05-30T10:20:17Z</time>
      </trkpt>
      <trkpt lat="48.069" lon="5.89067">
        <ele>277.4</ele>
        <time>2019-05-30T10:20:21Z</time>
      </trkpt>
      <trkpt lat="48.06893" lon="5.89076">
        <ele>277</ele>
        <time>2019-05-30T10:20:25Z</time>
      </trkpt>
      <trkpt lat="48.06886" lon="5.89084">
        <ele>277.2</ele>
        <time>2019-05-30T10:20:29Z</time>
      </trkpt>
      <trkpt lat="48.06878" lon="5.89094">
        <ele>276.8</ele>
        <time>2019-05-30T10:20:33Z</time>
      </trkpt>
      <trkpt lat="48.06871" lon="5.89106">
        <ele>276.8</ele>
        <time>2019-05-30T10:20:37Z</time>
      </trkpt>
      <trkpt lat="48.06862" lon="5.89118">
        <ele>277.2</ele>
        <time>2019-05-30T10:20:41Z</time>
      </trkpt>
      <trkpt lat="48.06851" lon="5.89129">
        <ele>277.2</ele>
        <time>2019-05-30T10:20:45Z</time>
      </trkpt>
      <trkpt lat="48.0684" lon="5.89141">
        <ele>277</ele>
        <time>2019-05-30T10:20:49Z</time>
      </trkpt>
      <trkpt lat="48.06828" lon="5.89158">
        <ele>276.8</ele>
        <time>2019-05-30T10:20:53Z</time>
      </trkpt>
      <trkpt lat="48.06818" lon="5.89176">
        <ele>276</ele>
        <time>2019-05-30T10:20:57Z</time>
      </trkpt>
      <trkpt lat="48.06808" lon="5.892">
        <ele>275.8</ele>
        <time>2019-05-30T10:21:01Z</time>
      </trkpt>
      <trkpt lat="48.06799" lon="5.89223">
        <ele>276</ele>
        <time>2019-05-30T10:21:05Z</time>
      </trkpt>
      <trkpt lat="48.06786" lon="5.8925">
        <ele>276</ele>
        <time>2019-05-30T10:21:09Z</time>
      </trkpt>
      <trkpt lat="48.06771" lon="5.89272">
        <ele>276.4</ele>
        <time>2019-05-30T10:21:13Z</time>
      </trkpt>
      <trkpt lat="48.06758" lon="5.89292">
        <ele>277.2</ele>
        <time>2019-05-30T10:21:17Z</time>
      </trkpt>
      <trkpt lat="48.06745" lon="5.89309">
        <ele>277.4</ele>
        <time>2019-05-30T10:21:21Z</time>
      </trkpt>
      <trkpt lat="48.06732" lon="5.89326">
        <ele>277.6</ele>
        <time>2019-05-30T10:21:25Z</time>
      </trkpt>
      <trkpt lat="48.0672" lon="5.8934">
        <ele>277.8</ele>
        <time>2019-05-30T10:21:29Z</time>
      </trkpt>
      <trkpt lat="48.06709" lon="5.89355">
        <ele>277.2</ele>
        <time>2019-05-30T10:21:33Z</time>
      </trkpt>
      <trkpt lat="48.06699" lon="5.89377">
        <ele>275.2</ele>
        <time>2019-05-30T10:21:37Z</time>
      </trkpt>
      <trkpt lat="48.06692" lon="5.89401">
        <ele>275.2</ele>
        <time>2019-05-30T10:21:41Z</time>
      </trkpt>
      <trkpt lat="48.06676" lon="5.8943">
        <ele>275.4</ele>
        <time>2019-05-30T10:21:45Z</time>
      </trkpt>
      <trkpt lat="48.06656" lon="5.89455">
        <ele>275.4</ele>
        <time>2019-05-30T10:21:49Z</time>
      </trkpt>
      <trkpt lat="48.06634" lon="5.89481">
        <ele>275.4</ele>
        <time>2019-05-30T10:21:53Z</time>
      </trkpt>
      <trkpt lat="48.06617" lon="5.89498">
        <ele>275.2</ele>
        <time>2019-05-30T10:21:57Z</time>
      </trkpt>
      <trkpt lat="48.06601" lon="5.89514">
        <ele>276.2</ele>
        <time>2019-05-30T10:22:01Z</time>
      </trkpt>
      <trkpt lat="48.06585" lon="5.8953">
        <ele>276.4</ele>
        <time>2019-05-30T10:22:05Z</time>
      </trkpt>
      <trkpt lat="48.0657" lon="5.89548">
        <ele>276.4</ele>
        <time>2019-05-30T10:22:09Z</time>
      </trkpt>
      <trkpt lat="48.06556" lon="5.89562">
        <ele>277</ele>
        <time>2019-05-30T10:22:13Z</time>
      </trkpt>
      <trkpt lat="48.06539" lon="5.89574">
        <ele>277.4</ele>
        <time>2019-05-30T10:22:17Z</time>
      </trkpt>
      <trkpt lat="48.06525" lon="5.89586">
        <ele>278</ele>
        <time>2019-05-30T10:22:21Z</time>
      </trkpt>
      <trkpt lat="48.06515" lon="5.89592">
        <ele>279</ele>
        <time>2019-05-30T10:22:25Z</time>
      </trkpt>
      <trkpt lat="48.06502" lon="5.89602">
        <ele>278.4</ele>
        <time>2019-05-30T10:22:29Z</time>
      </trkpt>
      <trkpt lat="48.06488" lon="5.89611">
        <ele>279.2</ele>
        <time>2019-05-30T10:22:33Z</time>
      </trkpt>
      <trkpt lat="48.06476" lon="5.89618">
        <ele>278.8</ele>
        <time>2019-05-30T10:22:37Z</time>
      </trkpt>
      <trkpt lat="48.06459" lon="5.89631">
        <ele>277.4</ele>
        <time>2019-05-30T10:22:41Z</time>
      </trkpt>
      <trkpt lat="48.06443" lon="5.89635">
        <ele>278</ele>
        <time>2019-05-30T10:22:45Z</time>
      </trkpt>
      <trkpt lat="48.06429" lon="5.89638">
        <ele>277.6</ele>
        <time>2019-05-30T10:22:49Z</time>
      </trkpt>
      <trkpt lat="48.06411" lon="5.89642">
        <ele>277.2</ele>
        <time>2019-05-30T10:22:53Z</time>
      </trkpt>
      <trkpt lat="48.06394" lon="5.89643">
        <ele>277.8</ele>
        <time>2019-05-30T10:22:57Z</time>
      </trkpt>
      <trkpt lat="48.06377" lon="5.8964">
        <ele>277.6</ele>
        <time>2019-05-30T10:23:01Z</time>
      </trkpt>
      <trkpt lat="48.06361" lon="5.89635">
        <ele>277.6</ele>
        <time>2019-05-30T10:23:05Z</time>
      </trkpt>
      <trkpt lat="48.06347" lon="5.89633">
        <ele>277.4</ele>
        <time>2019-05-30T10:23:09Z</time>
      </trkpt>
      <trkpt lat="48.06335" lon="5.89633">
        <ele>278</ele>
        <time>2019-05-30T10:23:13Z</time>
      </trkpt>
      <trkpt lat="48.06335" lon="5.89633">
        <ele>278</ele>
        <time>2019-05-30T10:23:17Z</time>
      </trkpt>
      <trkpt lat="48.06335" lon="5.89633">
        <ele>278</ele>
        <time>2019-05-30T10:23:21Z</time>
      </trkpt>
      <trkpt lat="48.06335" lon="5.89633">
        <ele>278</ele>
        <time>2019-05-30T10:23:25Z</time>
      </trkpt>
      <trkpt lat="48.06335" lon="5.89633">
        <ele>278</ele>
        <time>2019-05-30T10:23:29Z</time>
      </trkpt>
      <trkpt lat="48.06335" lon="5.89633">
        <ele>278</ele>
        <time>2019-05-30T10:23:33Z</time>
      </trkpt>
      <trkpt lat="48.0632" lon="5.89636">
        <ele>278</ele>
        <time>2019-05-30T10:23:37Z</time>
      </trkpt>
      <trkpt lat="48.06313" lon="5.89648">
        <ele>277.4</ele>
        <time>2019-05-30T10:23:41Z</time>
      </trkpt>
      <trkpt lat="48.06307" lon="5.89664">
        <ele>275.8</ele>
        <time>2019-05-30T10:23:45Z</time>
      </trkpt>
      <trkpt lat="48.06299" lon="5.89692">
        <ele>274.6</ele>
        <time>2019-05-30T10:23:49Z</time>
      </trkpt>
      <trkpt lat="48.06281" lon="5.89706">
        <ele>273.8</ele>
        <time>2019-05-30T10:23:53Z</time>
      </trkpt>
      <trkpt lat="48.06258" lon="5.89708">
        <ele>273.8</ele>
        <time>2019-05-30T10:23:57Z</time>
      </trkpt>
      <trkpt lat="48.06244" lon="5.89706">
        <ele>273.2</ele>
        <time>2019-05-30T10:24:01Z</time>
      </trkpt>
      <trkpt lat="48.06244" lon="5.89706">
        <ele>273.2</ele>
        <time>2019-05-30T10:24:05Z</time>
      </trkpt>
      <trkpt lat="48.06236" lon="5.89706">
        <ele>273.6</ele>
        <time>2019-05-30T10:24:09Z</time>
      </trkpt>
      <trkpt lat="48.06236" lon="5.89706">
        <ele>273.6</ele>
        <time>2019-05-30T10:24:14Z</time>
      </trkpt>
      <trkpt lat="48.06236" lon="5.89706">
        <ele>273.6</ele>
        <time>2019-05-30T10:24:17Z</time>
      </trkpt>
      <trkpt lat="48.06236" lon="5.89706">
        <ele>273.6</ele>
        <time>2019-05-30T10:24:21Z</time>
      </trkpt>
      <trkpt lat="48.06236" lon="5.89706">
        <ele>273.6</ele>
        <time>2019-05-30T10:24:25Z</time>
      </trkpt>
      <trkpt lat="48.06236" lon="5.89706">
        <ele>273.6</ele>
        <time>2019-05-30T10:24:29Z</time>
      </trkpt>
      <trkpt lat="48.06236" lon="5.89706">
        <ele>273.6</ele>
        <time>2019-05-30T10:24:33Z</time>
      </trkpt>
      <trkpt lat="48.06236" lon="5.89706">
        <ele>273.6</ele>
        <time>2019-05-30T10:24:37Z</time>
      </trkpt>
      <trkpt lat="48.06236" lon="5.89706">
        <ele>273.6</ele>
        <time>2019-05-30T10:24:41Z</time>
      </trkpt>
      <trkpt lat="48.06236" lon="5.89706">
        <ele>273.6</ele>
        <time>2019-05-30T10:24:45Z</time>
      </trkpt>
      <trkpt lat="48.06236" lon="5.89706">
        <ele>273.6</ele>
        <time>2019-05-30T10:24:49Z</time>
      </trkpt>
      <trkpt lat="48.06236" lon="5.89706">
        <ele>273.6</ele>
        <time>2019-05-30T10:24:53Z</time>
      </trkpt>
      <trkpt lat="48.06236" lon="5.89706">
        <ele>273.6</ele>
        <time>2019-05-30T10:24:57Z</time>
      </trkpt>
      <trkpt lat="48.06236" lon="5.89706">
        <ele>273.6</ele>
        <time>2019-05-30T10:25:01Z</time>
      </trkpt>
      <trkpt lat="48.06236" lon="5.89706">
        <ele>273.6</ele>
        <time>2019-05-30T10:25:05Z</time>
      </trkpt>
      <trkpt lat="48.06236" lon="5.89706">
        <ele>273.6</ele>
        <time>2019-05-30T10:25:09Z</time>
      </trkpt>
      <trkpt lat="48.06236" lon="5.89706">
        <ele>273.6</ele>
        <time>2019-05-30T10:25:13Z</time>
      </trkpt>
      <trkpt lat="48.06236" lon="5.89706">
        <ele>273.6</ele>
        <time>2019-05-30T10:25:17Z</time>
      </trkpt>
      <trkpt lat="48.06236" lon="5.89706">
        <ele>273.6</ele>
        <time>2019-05-30T10:25:21Z</time>
      </trkpt>
      <trkpt lat="48.06236" lon="5.89706">
        <ele>273.6</ele>
        <time>2019-05-30T10:25:25Z</time>
      </trkpt>
      <trkpt lat="48.06236" lon="5.89706">
        <ele>273.6</ele>
        <time>2019-05-30T10:25:29Z</time>
      </trkpt>
      <trkpt lat="48.06236" lon="5.89706">
        <ele>273.6</ele>
        <time>2019-05-30T10:25:33Z</time>
      </trkpt>
      <trkpt lat="48.06236" lon="5.89706">
        <ele>273.6</ele>
        <time>2019-05-30T10:25:37Z</time>
      </trkpt>
      <trkpt lat="48.06236" lon="5.89706">
        <ele>273.6</ele>
        <time>2019-05-30T10:25:41Z</time>
      </trkpt>
      <trkpt lat="48.06236" lon="5.89706">
        <ele>273.6</ele>
        <time>2019-05-30T10:25:45Z</time>
      </trkpt>
      <trkpt lat="48.06236" lon="5.89706">
        <ele>273.6</ele>
        <time>2019-05-30T10:25:49Z</time>
      </trkpt>
      <trkpt lat="48.06236" lon="5.89706">
        <ele>273.6</ele>
        <time>2019-05-30T10:25:53Z</time>
      </trkpt>
      <trkpt lat="48.06236" lon="5.89706">
        <ele>273.6</ele>
        <time>2019-05-30T10:25:57Z</time>
      </trkpt>
      <trkpt lat="48.06236" lon="5.89706">
        <ele>273.6</ele>
        <time>2019-05-30T10:26:01Z</time>
      </trkpt>
      <trkpt lat="48.06236" lon="5.89706">
        <ele>273.6</ele>
        <time>2019-05-30T10:26:05Z</time>
      </trkpt>
      <trkpt lat="48.06236" lon="5.89706">
        <ele>273.6</ele>
        <time>2019-05-30T10:26:09Z</time>
      </trkpt>
      <trkpt lat="48.06236" lon="5.89706">
        <ele>273.6</ele>
        <time>2019-05-30T10:26:13Z</time>
      </trkpt>
      <trkpt lat="48.06236" lon="5.89706">
        <ele>273.6</ele>
        <time>2019-05-30T10:26:17Z</time>
      </trkpt>
      <trkpt lat="48.06236" lon="5.89706">
        <ele>273.6</ele>
        <time>2019-05-30T10:26:21Z</time>
      </trkpt>
      <trkpt lat="48.06236" lon="5.89706">
        <ele>273.6</ele>
        <time>2019-05-30T10:26:25Z</time>
      </trkpt>
      <trkpt lat="48.06236" lon="5.89706">
        <ele>273.6</ele>
        <time>2019-05-30T10:26:29Z</time>
      </trkpt>
      <trkpt lat="48.06236" lon="5.89706">
        <ele>273.6</ele>
        <time>2019-05-30T10:26:33Z</time>
      </trkpt>
      <trkpt lat="48.06236" lon="5.89706">
        <ele>273.6</ele>
        <time>2019-05-30T10:26:37Z</time>
      </trkpt>
      <trkpt lat="48.06236" lon="5.89706">
        <ele>273.6</ele>
        <time>2019-05-30T10:26:41Z</time>
      </trkpt>
      <trkpt lat="48.06236" lon="5.89706">
        <ele>273.6</ele>
        <time>2019-05-30T10:26:45Z</time>
      </trkpt>
      <trkpt lat="48.06236" lon="5.89706">
        <ele>273.6</ele>
        <time>2019-05-30T10:26:49Z</time>
      </trkpt>
      <trkpt lat="48.06236" lon="5.89706">
        <ele>273.6</ele>
        <time>2019-05-30T10:26:53Z</time>
      </trkpt>
      <trkpt lat="48.06236" lon="5.89706">
        <ele>273.6</ele>
        <time>2019-05-30T10:26:57Z</time>
      </trkpt>
      <trkpt lat="48.06236" lon="5.89706">
        <ele>273.6</ele>
        <time>2019-05-30T10:27:01Z</time>
      </trkpt>
      <trkpt lat="48.06236" lon="5.89706">
        <ele>273.6</ele>
        <time>2019-05-30T10:27:05Z</time>
      </trkpt>
      <trkpt lat="48.06236" lon="5.89706">
        <ele>273.6</ele>
        <time>2019-05-30T10:27:09Z</time>
      </trkpt>
      <trkpt lat="48.06236" lon="5.89706">
        <ele>273.6</ele>
        <time>2019-05-30T10:27:13Z</time>
      </trkpt>
      <trkpt lat="48.06236" lon="5.89706">
        <ele>273.6</ele>
        <time>2019-05-30T10:27:17Z</time>
      </trkpt>
      <trkpt lat="48.06236" lon="5.89706">
        <ele>273.6</ele>
        <time>2019-05-30T10:27:21Z</time>
      </trkpt>
      <trkpt lat="48.06236" lon="5.89706">
        <ele>273.6</ele>
        <time>2019-05-30T10:27:25Z</time>
      </trkpt>
      <trkpt lat="48.06236" lon="5.89706">
        <ele>273.6</ele>
        <time>2019-05-30T10:27:29Z</time>
      </trkpt>
      <trkpt lat="48.06236" lon="5.89706">
        <ele>273.6</ele>
        <time>2019-05-30T10:27:33Z</time>
      </trkpt>
      <trkpt lat="48.06236" lon="5.89706">
        <ele>273.6</ele>
        <time>2019-05-30T10:27:37Z</time>
      </trkpt>
      <trkpt lat="48.06236" lon="5.89706">
        <ele>273.6</ele>
        <time>2019-05-30T10:27:41Z</time>
      </trkpt>
      <trkpt lat="48.06236" lon="5.89706">
        <ele>273.6</ele>
        <time>2019-05-30T10:27:45Z</time>
      </trkpt>
      <trkpt lat="48.06236" lon="5.89706">
        <ele>273.6</ele>
        <time>2019-05-30T10:27:49Z</time>
      </trkpt>
      <trkpt lat="48.06236" lon="5.89706">
        <ele>273.6</ele>
        <time>2019-05-30T10:27:53Z</time>
      </trkpt>
      <trkpt lat="48.06236" lon="5.89706">
        <ele>273.6</ele>
        <time>2019-05-30T10:27:57Z</time>
      </trkpt>
      <trkpt lat="48.06236" lon="5.89706">
        <ele>273.6</ele>
        <time>2019-05-30T10:28:01Z</time>
      </trkpt>
      <trkpt lat="48.06236" lon="5.89706">
        <ele>273.6</ele>
        <time>2019-05-30T10:28:05Z</time>
      </trkpt>
      <trkpt lat="48.06236" lon="5.89706">
        <ele>273.6</ele>
        <time>2019-05-30T10:28:09Z</time>
      </trkpt>
      <trkpt lat="48.06236" lon="5.89706">
        <ele>273.6</ele>
        <time>2019-05-30T10:28:13Z</time>
      </trkpt>
      <trkpt lat="48.06236" lon="5.89706">
        <ele>273.6</ele>
        <time>2019-05-30T10:28:17Z</time>
      </trkpt>
      <trkpt lat="48.06236" lon="5.89706">
        <ele>273.6</ele>
        <time>2019-05-30T10:28:21Z</time>
      </trkpt>
      <trkpt lat="48.06236" lon="5.89706">
        <ele>273.6</ele>
        <time>2019-05-30T10:28:25Z</time>
      </trkpt>
      <trkpt lat="48.06236" lon="5.89706">
        <ele>273.6</ele>
        <time>2019-05-30T10:28:29Z</time>
      </trkpt>
      <trkpt lat="48.06236" lon="5.89706">
        <ele>273.6</ele>
        <time>2019-05-30T10:28:33Z</time>
      </trkpt>
      <trkpt lat="48.06236" lon="5.89706">
        <ele>273.6</ele>
        <time>2019-05-30T10:28:37Z</time>
      </trkpt>
      <trkpt lat="48.06236" lon="5.89706">
        <ele>273.6</ele>
        <time>2019-05-30T10:28:41Z</time>
      </trkpt>
      <trkpt lat="48.06236" lon="5.89706">
        <ele>273.6</ele>
        <time>2019-05-30T10:28:45Z</time>
      </trkpt>
      <trkpt lat="48.06236" lon="5.89706">
        <ele>273.6</ele>
        <time>2019-05-30T10:28:49Z</time>
      </trkpt>
      <trkpt lat="48.06236" lon="5.89706">
        <ele>273.6</ele>
        <time>2019-05-30T10:28:53Z</time>
      </trkpt>
      <trkpt lat="48.06236" lon="5.89706">
        <ele>273.6</ele>
        <time>2019-05-30T10:28:57Z</time>
      </trkpt>
      <trkpt lat="48.06236" lon="5.89706">
        <ele>273.6</ele>
        <time>2019-05-30T10:29:01Z</time>
      </trkpt>
      <trkpt lat="48.06236" lon="5.89706">
        <ele>273.6</ele>
        <time>2019-05-30T10:29:05Z</time>
      </trkpt>
      <trkpt lat="48.06236" lon="5.89706">
        <ele>273.6</ele>
        <time>2019-05-30T10:29:09Z</time>
      </trkpt>
      <trkpt lat="48.06236" lon="5.89706">
        <ele>273.6</ele>
        <time>2019-05-30T10:29:13Z</time>
      </trkpt>
      <trkpt lat="48.06236" lon="5.89706">
        <ele>273.6</ele>
        <time>2019-05-30T10:29:17Z</time>
      </trkpt>
      <trkpt lat="48.06236" lon="5.89706">
        <ele>273.6</ele>
        <time>2019-05-30T10:29:21Z</time>
      </trkpt>
      <trkpt lat="48.06236" lon="5.89706">
        <ele>273.6</ele>
        <time>2019-05-30T10:29:25Z</time>
      </trkpt>
      <trkpt lat="48.06236" lon="5.89706">
        <ele>273.6</ele>
        <time>2019-05-30T10:29:29Z</time>
      </trkpt>
      <trkpt lat="48.06236" lon="5.89706">
        <ele>273.6</ele>
        <time>2019-05-30T10:29:33Z</time>
      </trkpt>
      <trkpt lat="48.06236" lon="5.89706">
        <ele>273.6</ele>
        <time>2019-05-30T10:29:37Z</time>
      </trkpt>
      <trkpt lat="48.06236" lon="5.89706">
        <ele>273.6</ele>
        <time>2019-05-30T10:29:41Z</time>
      </trkpt>
      <trkpt lat="48.06236" lon="5.89706">
        <ele>273.6</ele>
        <time>2019-05-30T10:29:45Z</time>
      </trkpt>
      <trkpt lat="48.06236" lon="5.89706">
        <ele>273.6</ele>
        <time>2019-05-30T10:29:49Z</time>
      </trkpt>
      <trkpt lat="48.06236" lon="5.89706">
        <ele>273.6</ele>
        <time>2019-05-30T10:29:53Z</time>
      </trkpt>
      <trkpt lat="48.06236" lon="5.89706">
        <ele>273.6</ele>
        <time>2019-05-30T10:29:57Z</time>
      </trkpt>
      <trkpt lat="48.06236" lon="5.89706">
        <ele>273.6</ele>
        <time>2019-05-30T10:30:01Z</time>
      </trkpt>
      <trkpt lat="48.06236" lon="5.89706">
        <ele>273.6</ele>
        <time>2019-05-30T10:30:05Z</time>
      </trkpt>
      <trkpt lat="48.06236" lon="5.89706">
        <ele>273.6</ele>
        <time>2019-05-30T10:30:09Z</time>
      </trkpt>
      <trkpt lat="48.06236" lon="5.89706">
        <ele>273.6</ele>
        <time>2019-05-30T10:30:13Z</time>
      </trkpt>
      <trkpt lat="48.06236" lon="5.89706">
        <ele>273.6</ele>
        <time>2019-05-30T10:30:17Z</time>
      </trkpt>
      <trkpt lat="48.06236" lon="5.89706">
        <ele>273.6</ele>
        <time>2019-05-30T10:30:21Z</time>
      </trkpt>
      <trkpt lat="48.06236" lon="5.89706">
        <ele>273.6</ele>
        <time>2019-05-30T10:30:25Z</time>
      </trkpt>
      <trkpt lat="48.06236" lon="5.89706">
        <ele>273.6</ele>
        <time>2019-05-30T10:30:29Z</time>
      </trkpt>
      <trkpt lat="48.06236" lon="5.89706">
        <ele>273.6</ele>
        <time>2019-05-30T10:30:33Z</time>
      </trkpt>
      <trkpt lat="48.06236" lon="5.89706">
        <ele>273.6</ele>
        <time>2019-05-30T10:30:37Z</time>
      </trkpt>
      <trkpt lat="48.06236" lon="5.89706">
        <ele>273.6</ele>
        <time>2019-05-30T10:30:41Z</time>
      </trkpt>
      <trkpt lat="48.06236" lon="5.89706">
        <ele>273.6</ele>
        <time>2019-05-30T10:30:45Z</time>
      </trkpt>
      <trkpt lat="48.06236" lon="5.89706">
        <ele>273.6</ele>
        <time>2019-05-30T10:30:49Z</time>
      </trkpt>
      <trkpt lat="48.06236" lon="5.89706">
        <ele>273.6</ele>
        <time>2019-05-30T10:30:53Z</time>
      </trkpt>
      <trkpt lat="48.06236" lon="5.89706">
        <ele>273.6</ele>
        <time>2019-05-30T10:30:57Z</time>
      </trkpt>
      <trkpt lat="48.06236" lon="5.89706">
        <ele>273.6</ele>
        <time>2019-05-30T10:31:01Z</time>
      </trkpt>
      <trkpt lat="48.06236" lon="5.89706">
        <ele>273.6</ele>
        <time>2019-05-30T10:31:05Z</time>
      </trkpt>
      <trkpt lat="48.06236" lon="5.89706">
        <ele>273.6</ele>
        <time>2019-05-30T10:31:09Z</time>
      </trkpt>
      <trkpt lat="48.06236" lon="5.89706">
        <ele>273.6</ele>
        <time>2019-05-30T10:31:13Z</time>
      </trkpt>
      <trkpt lat="48.06236" lon="5.89706">
        <ele>273.6</ele>
        <time>2019-05-30T10:31:17Z</time>
      </trkpt>
      <trkpt lat="48.06236" lon="5.89706">
        <ele>273.6</ele>
        <time>2019-05-30T10:31:21Z</time>
      </trkpt>
      <trkpt lat="48.06236" lon="5.89706">
        <ele>273.6</ele>
        <time>2019-05-30T10:31:25Z</time>
      </trkpt>
      <trkpt lat="48.06236" lon="5.89706">
        <ele>273.6</ele>
        <time>2019-05-30T10:31:29Z</time>
      </trkpt>
      <trkpt lat="48.06236" lon="5.89706">
        <ele>273.6</ele>
        <time>2019-05-30T10:31:33Z</time>
      </trkpt>
      <trkpt lat="48.06236" lon="5.89706">
        <ele>273.6</ele>
        <time>2019-05-30T10:31:37Z</time>
      </trkpt>
      <trkpt lat="48.06236" lon="5.89706">
        <ele>273.6</ele>
        <time>2019-05-30T10:31:41Z</time>
      </trkpt>
      <trkpt lat="48.06236" lon="5.89706">
        <ele>273.6</ele>
        <time>2019-05-30T10:31:45Z</time>
      </trkpt>
      <trkpt lat="48.06236" lon="5.89706">
        <ele>273.6</ele>
        <time>2019-05-30T10:31:49Z</time>
      </trkpt>
      <trkpt lat="48.06236" lon="5.89706">
        <ele>273.6</ele>
        <time>2019-05-30T10:31:53Z</time>
      </trkpt>
      <trkpt lat="48.06236" lon="5.89706">
        <ele>273.6</ele>
        <time>2019-05-30T10:31:57Z</time>
      </trkpt>
      <trkpt lat="48.06236" lon="5.89706">
        <ele>273.6</ele>
        <time>2019-05-30T10:32:01Z</time>
      </trkpt>
      <trkpt lat="48.06236" lon="5.89706">
        <ele>273.6</ele>
        <time>2019-05-30T10:32:05Z</time>
      </trkpt>
      <trkpt lat="48.06236" lon="5.89706">
        <ele>273.6</ele>
        <time>2019-05-30T10:32:09Z</time>
      </trkpt>
      <trkpt lat="48.06236" lon="5.89706">
        <ele>273.6</ele>
        <time>2019-05-30T10:32:13Z</time>
      </trkpt>
      <trkpt lat="48.06236" lon="5.89706">
        <ele>273.6</ele>
        <time>2019-05-30T10:32:17Z</time>
      </trkpt>
      <trkpt lat="48.06236" lon="5.89706">
        <ele>273.6</ele>
        <time>2019-05-30T10:32:21Z</time>
      </trkpt>
      <trkpt lat="48.06236" lon="5.89706">
        <ele>273.6</ele>
        <time>2019-05-30T10:32:25Z</time>
      </trkpt>
      <trkpt lat="48.06236" lon="5.89706">
        <ele>273.6</ele>
        <time>2019-05-30T10:32:29Z</time>
      </trkpt>
      <trkpt lat="48.06236" lon="5.89706">
        <ele>273.6</ele>
        <time>2019-05-30T10:32:33Z</time>
      </trkpt>
      <trkpt lat="48.06236" lon="5.89706">
        <ele>273.6</ele>
        <time>2019-05-30T10:32:37Z</time>
      </trkpt>
      <trkpt lat="48.06236" lon="5.89706">
        <ele>273.6</ele>
        <time>2019-05-30T10:32:41Z</time>
      </trkpt>
      <trkpt lat="48.06236" lon="5.89706">
        <ele>273.6</ele>
        <time>2019-05-30T10:32:45Z</time>
      </trkpt>
      <trkpt lat="48.06236" lon="5.89706">
        <ele>273.6</ele>
        <time>2019-05-30T10:32:49Z</time>
      </trkpt>
      <trkpt lat="48.06236" lon="5.89706">
        <ele>273.6</ele>
        <time>2019-05-30T10:32:53Z</time>
      </trkpt>
      <trkpt lat="48.06236" lon="5.89706">
        <ele>273.6</ele>
        <time>2019-05-30T10:32:57Z</time>
      </trkpt>
      <trkpt lat="48.06236" lon="5.89706">
        <ele>273.6</ele>
        <time>2019-05-30T10:33:01Z</time>
      </trkpt>
      <trkpt lat="48.06236" lon="5.89706">
        <ele>273.6</ele>
        <time>2019-05-30T10:33:05Z</time>
      </trkpt>
      <trkpt lat="48.06236" lon="5.89706">
        <ele>273.6</ele>
        <time>2019-05-30T10:33:09Z</time>
      </trkpt>
      <trkpt lat="48.06236" lon="5.89706">
        <ele>273.6</ele>
        <time>2019-05-30T10:33:13Z</time>
      </trkpt>
      <trkpt lat="48.06236" lon="5.89706">
        <ele>273.6</ele>
        <time>2019-05-30T10:33:17Z</time>
      </trkpt>
      <trkpt lat="48.06236" lon="5.89706">
        <ele>273.6</ele>
        <time>2019-05-30T10:33:21Z</time>
      </trkpt>
      <trkpt lat="48.06236" lon="5.89706">
        <ele>273.6</ele>
        <time>2019-05-30T10:33:25Z</time>
      </trkpt>
      <trkpt lat="48.06236" lon="5.89706">
        <ele>273.6</ele>
        <time>2019-05-30T10:33:29Z</time>
      </trkpt>
      <trkpt lat="48.06236" lon="5.89706">
        <ele>273.6</ele>
        <time>2019-05-30T10:33:33Z</time>
      </trkpt>
      <trkpt lat="48.06236" lon="5.89706">
        <ele>273.6</ele>
        <time>2019-05-30T10:33:37Z</time>
      </trkpt>
      <trkpt lat="48.06236" lon="5.89706">
        <ele>273.6</ele>
        <time>2019-05-30T10:33:41Z</time>
      </trkpt>
      <trkpt lat="48.06236" lon="5.89706">
        <ele>273.6</ele>
        <time>2019-05-30T10:33:45Z</time>
      </trkpt>
      <trkpt lat="48.06236" lon="5.89706">
        <ele>273.6</ele>
        <time>2019-05-30T10:33:49Z</time>
      </trkpt>
      <trkpt lat="48.06236" lon="5.89706">
        <ele>273.6</ele>
        <time>2019-05-30T10:33:53Z</time>
      </trkpt>
      <trkpt lat="48.06236" lon="5.89706">
        <ele>273.6</ele>
        <time>2019-05-30T10:33:57Z</time>
      </trkpt>
      <trkpt lat="48.06236" lon="5.89706">
        <ele>273.6</ele>
        <time>2019-05-30T10:34:01Z</time>
      </trkpt>
      <trkpt lat="48.06236" lon="5.89706">
        <ele>273.6</ele>
        <time>2019-05-30T10:34:05Z</time>
      </trkpt>
      <trkpt lat="48.06236" lon="5.89706">
        <ele>273.6</ele>
        <time>2019-05-30T10:34:09Z</time>
      </trkpt>
      <trkpt lat="48.06236" lon="5.89706">
        <ele>273.6</ele>
        <time>2019-05-30T10:34:13Z</time>
      </trkpt>
      <trkpt lat="48.06236" lon="5.89706">
        <ele>273.6</ele>
        <time>2019-05-30T10:34:17Z</time>
      </trkpt>
      <trkpt lat="48.06234" lon="5.89708">
        <ele>273.2</ele>
        <time>2019-05-30T10:34:21Z</time>
      </trkpt>
      <trkpt lat="48.06234" lon="5.89708">
        <ele>273.2</ele>
        <time>2019-05-30T10:34:25Z</time>
      </trkpt>
      <trkpt lat="48.06234" lon="5.89708">
        <ele>273.2</ele>
        <time>2019-05-30T10:34:29Z</time>
      </trkpt>
      <trkpt lat="48.06234" lon="5.89708">
        <ele>273.2</ele>
        <time>2019-05-30T10:34:33Z</time>
      </trkpt>
      <trkpt lat="48.06228" lon="5.89706">
        <ele>273</ele>
        <time>2019-05-30T10:34:37Z</time>
      </trkpt>
      <trkpt lat="48.06224" lon="5.89698">
        <ele>274</ele>
        <time>2019-05-30T10:34:41Z</time>
      </trkpt>
      <trkpt lat="48.06215" lon="5.89695">
        <ele>274</ele>
        <time>2019-05-30T10:34:45Z</time>
      </trkpt>
      <trkpt lat="48.06207" lon="5.89693">
        <ele>274</ele>
        <time>2019-05-30T10:34:49Z</time>
      </trkpt>
      <trkpt lat="48.06203" lon="5.89683">
        <ele>274.6</ele>
        <time>2019-05-30T10:34:53Z</time>
      </trkpt>
      <trkpt lat="48.06196" lon="5.89671">
        <ele>276.2</ele>
        <time>2019-05-30T10:34:57Z</time>
      </trkpt>
      <trkpt lat="48.06186" lon="5.8966">
        <ele>276.2</ele>
        <time>2019-05-30T10:35:01Z</time>
      </trkpt>
      <trkpt lat="48.06174" lon="5.89652">
        <ele>277.2</ele>
        <time>2019-05-30T10:35:05Z</time>
      </trkpt>
      <trkpt lat="48.06163" lon="5.89642">
        <ele>277.4</ele>
        <time>2019-05-30T10:35:09Z</time>
      </trkpt>
      <trkpt lat="48.06153" lon="5.89632">
        <ele>278</ele>
        <time>2019-05-30T10:35:13Z</time>
      </trkpt>
      <trkpt lat="48.06144" lon="5.89623">
        <ele>278</ele>
        <time>2019-05-30T10:35:17Z</time>
      </trkpt>
      <trkpt lat="48.06133" lon="5.89614">
        <ele>279</ele>
        <time>2019-05-30T10:35:21Z</time>
      </trkpt>
      <trkpt lat="48.06125" lon="5.89605">
        <ele>279.2</ele>
        <time>2019-05-30T10:35:25Z</time>
      </trkpt>
      <trkpt lat="48.06118" lon="5.896">
        <ele>279.4</ele>
        <time>2019-05-30T10:35:29Z</time>
      </trkpt>
      <trkpt lat="48.06108" lon="5.896">
        <ele>280</ele>
        <time>2019-05-30T10:35:33Z</time>
      </trkpt>
      <trkpt lat="48.06096" lon="5.89601">
        <ele>278</ele>
        <time>2019-05-30T10:35:37Z</time>
      </trkpt>
      <trkpt lat="48.06085" lon="5.896">
        <ele>279.8</ele>
        <time>2019-05-30T10:35:41Z</time>
      </trkpt>
      <trkpt lat="48.06072" lon="5.89602">
        <ele>280</ele>
        <time>2019-05-30T10:35:45Z</time>
      </trkpt>
      <trkpt lat="48.06057" lon="5.89605">
        <ele>280.6</ele>
        <time>2019-05-30T10:35:49Z</time>
      </trkpt>
      <trkpt lat="48.06041" lon="5.8961">
        <ele>280.2</ele>
        <time>2019-05-30T10:35:53Z</time>
      </trkpt>
      <trkpt lat="48.06029" lon="5.89613">
        <ele>280.2</ele>
        <time>2019-05-30T10:35:57Z</time>
      </trkpt>
      <trkpt lat="48.06013" lon="5.89611">
        <ele>280.4</ele>
        <time>2019-05-30T10:36:01Z</time>
      </trkpt>
      <trkpt lat="48.05997" lon="5.8961">
        <ele>280.6</ele>
        <time>2019-05-30T10:36:05Z</time>
      </trkpt>
      <trkpt lat="48.05982" lon="5.89609">
        <ele>280.2</ele>
        <time>2019-05-30T10:36:09Z</time>
      </trkpt>
      <trkpt lat="48.05964" lon="5.8961">
        <ele>280.4</ele>
        <time>2019-05-30T10:36:13Z</time>
      </trkpt>
      <trkpt lat="48.05944" lon="5.89611">
        <ele>280.2</ele>
        <time>2019-05-30T10:36:17Z</time>
      </trkpt>
      <trkpt lat="48.05926" lon="5.89614">
        <ele>279</ele>
        <time>2019-05-30T10:36:21Z</time>
      </trkpt>
      <trkpt lat="48.05905" lon="5.89619">
        <ele>279.2</ele>
        <time>2019-05-30T10:36:25Z</time>
      </trkpt>
      <trkpt lat="48.05886" lon="5.8962">
        <ele>279</ele>
        <time>2019-05-30T10:36:29Z</time>
      </trkpt>
      <trkpt lat="48.05862" lon="5.89623">
        <ele>278.8</ele>
        <time>2019-05-30T10:36:33Z</time>
      </trkpt>
      <trkpt lat="48.05841" lon="5.89627">
        <ele>278.4</ele>
        <time>2019-05-30T10:36:37Z</time>
      </trkpt>
      <trkpt lat="48.05816" lon="5.89635">
        <ele>278</ele>
        <time>2019-05-30T10:36:41Z</time>
      </trkpt>
      <trkpt lat="48.05793" lon="5.89632">
        <ele>277.6</ele>
        <time>2019-05-30T10:36:45Z</time>
      </trkpt>
      <trkpt lat="48.05771" lon="5.8962">
        <ele>275.2</ele>
        <time>2019-05-30T10:36:49Z</time>
      </trkpt>
      <trkpt lat="48.05742" lon="5.89605">
        <ele>273.8</ele>
        <time>2019-05-30T10:36:53Z</time>
      </trkpt>
      <trkpt lat="48.05717" lon="5.89583">
        <ele>273</ele>
        <time>2019-05-30T10:36:57Z</time>
      </trkpt>
      <trkpt lat="48.0569" lon="5.89566">
        <ele>269.6</ele>
        <time>2019-05-30T10:37:01Z</time>
      </trkpt>
      <trkpt lat="48.05677" lon="5.8954">
        <ele>267.2</ele>
        <time>2019-05-30T10:37:05Z</time>
      </trkpt>
      <trkpt lat="48.05658" lon="5.89519">
        <ele>266</ele>
        <time>2019-05-30T10:37:09Z</time>
      </trkpt>
      <trkpt lat="48.05634" lon="5.89504">
        <ele>268.2</ele>
        <time>2019-05-30T10:37:13Z</time>
      </trkpt>
      <trkpt lat="48.05619" lon="5.89497">
        <ele>267.8</ele>
        <time>2019-05-30T10:37:17Z</time>
      </trkpt>
      <trkpt lat="48.05605" lon="5.89492">
        <ele>268.6</ele>
        <time>2019-05-30T10:37:21Z</time>
      </trkpt>
      <trkpt lat="48.05589" lon="5.89485">
        <ele>271</ele>
        <time>2019-05-30T10:37:25Z</time>
      </trkpt>
      <trkpt lat="48.05577" lon="5.8948">
        <ele>271</ele>
        <time>2019-05-30T10:37:29Z</time>
      </trkpt>
      <trkpt lat="48.05577" lon="5.8948">
        <ele>271</ele>
        <time>2019-05-30T10:37:33Z</time>
      </trkpt>
      <trkpt lat="48.05577" lon="5.8948">
        <ele>271</ele>
        <time>2019-05-30T10:37:37Z</time>
      </trkpt>
      <trkpt lat="48.05567" lon="5.89478">
        <ele>271.4</ele>
        <time>2019-05-30T10:37:41Z</time>
      </trkpt>
      <trkpt lat="48.05563" lon="5.89476">
        <ele>271.8</ele>
        <time>2019-05-30T10:37:45Z</time>
      </trkpt>
      <trkpt lat="48.05563" lon="5.89476">
        <ele>271.8</ele>
        <time>2019-05-30T10:37:49Z</time>
      </trkpt>
      <trkpt lat="48.05563" lon="5.89476">
        <ele>271.8</ele>
        <time>2019-05-30T10:37:53Z</time>
      </trkpt>
      <trkpt lat="48.0556" lon="5.89471">
        <ele>271.8</ele>
        <time>2019-05-30T10:37:57Z</time>
      </trkpt>
      <trkpt lat="48.05556" lon="5.8947">
        <ele>272.2</ele>
        <time>2019-05-30T10:38:01Z</time>
      </trkpt>
      <trkpt lat="48.0555" lon="5.89466">
        <ele>272.6</ele>
        <time>2019-05-30T10:38:05Z</time>
      </trkpt>
      <trkpt lat="48.05539" lon="5.89463">
        <ele>273.6</ele>
        <time>2019-05-30T10:38:09Z</time>
      </trkpt>
      <trkpt lat="48.05531" lon="5.89462">
        <ele>273.8</ele>
        <time>2019-05-30T10:38:13Z</time>
      </trkpt>
      <trkpt lat="48.05524" lon="5.8947">
        <ele>273.6</ele>
        <time>2019-05-30T10:38:17Z</time>
      </trkpt>
      <trkpt lat="48.05516" lon="5.89469">
        <ele>273.8</ele>
        <time>2019-05-30T10:38:21Z</time>
      </trkpt>
      <trkpt lat="48.05509" lon="5.89463">
        <ele>274.6</ele>
        <time>2019-05-30T10:38:25Z</time>
      </trkpt>
      <trkpt lat="48.05502" lon="5.89457">
        <ele>274.6</ele>
        <time>2019-05-30T10:38:29Z</time>
      </trkpt>
      <trkpt lat="48.05495" lon="5.89449">
        <ele>276</ele>
        <time>2019-05-30T10:38:33Z</time>
      </trkpt>
      <trkpt lat="48.05487" lon="5.89441">
        <ele>276.4</ele>
        <time>2019-05-30T10:38:37Z</time>
      </trkpt>
      <trkpt lat="48.0548" lon="5.89434">
        <ele>277.4</ele>
        <time>2019-05-30T10:38:41Z</time>
      </trkpt>
      <trkpt lat="48.05473" lon="5.89429">
        <ele>277.4</ele>
        <time>2019-05-30T10:38:45Z</time>
      </trkpt>
      <trkpt lat="48.05465" lon="5.89424">
        <ele>277.8</ele>
        <time>2019-05-30T10:38:49Z</time>
      </trkpt>
      <trkpt lat="48.05457" lon="5.89419">
        <ele>278.4</ele>
        <time>2019-05-30T10:38:53Z</time>
      </trkpt>
      <trkpt lat="48.0545" lon="5.89412">
        <ele>279</ele>
        <time>2019-05-30T10:38:57Z</time>
      </trkpt>
      <trkpt lat="48.05442" lon="5.89405">
        <ele>279</ele>
        <time>2019-05-30T10:39:01Z</time>
      </trkpt>
      <trkpt lat="48.05432" lon="5.894">
        <ele>279</ele>
        <time>2019-05-30T10:39:05Z</time>
      </trkpt>
      <trkpt lat="48.05421" lon="5.89392">
        <ele>279.4</ele>
        <time>2019-05-30T10:39:09Z</time>
      </trkpt>
      <trkpt lat="48.05411" lon="5.89384">
        <ele>280.2</ele>
        <time>2019-05-30T10:39:13Z</time>
      </trkpt>
      <trkpt lat="48.054" lon="5.89375">
        <ele>280.2</ele>
        <time>2019-05-30T10:39:17Z</time>
      </trkpt>
      <trkpt lat="48.05388" lon="5.89364">
        <ele>280.2</ele>
        <time>2019-05-30T10:39:21Z</time>
      </trkpt>
      <trkpt lat="48.05375" lon="5.89358">
        <ele>279.6</ele>
        <time>2019-05-30T10:39:25Z</time>
      </trkpt>
      <trkpt lat="48.05361" lon="5.89351">
        <ele>279.4</ele>
        <time>2019-05-30T10:39:29Z</time>
      </trkpt>
      <trkpt lat="48.05346" lon="5.89343">
        <ele>279</ele>
        <time>2019-05-30T10:39:33Z</time>
      </trkpt>
      <trkpt lat="48.05335" lon="5.89331">
        <ele>279</ele>
        <time>2019-05-30T10:39:37Z</time>
      </trkpt>
      <trkpt lat="48.05324" lon="5.89316">
        <ele>278.8</ele>
        <time>2019-05-30T10:39:41Z</time>
      </trkpt>
      <trkpt lat="48.0531" lon="5.893">
        <ele>277</ele>
        <time>2019-05-30T10:39:45Z</time>
      </trkpt>
      <trkpt lat="48.05295" lon="5.89282">
        <ele>278.2</ele>
        <time>2019-05-30T10:39:49Z</time>
      </trkpt>
      <trkpt lat="48.05283" lon="5.89265">
        <ele>278.2</ele>
        <time>2019-05-30T10:39:53Z</time>
      </trkpt>
      <trkpt lat="48.05271" lon="5.89253">
        <ele>274.4</ele>
        <time>2019-05-30T10:39:57Z</time>
      </trkpt>
      <trkpt lat="48.05258" lon="5.89234">
        <ele>275.8</ele>
        <time>2019-05-30T10:40:01Z</time>
      </trkpt>
      <trkpt lat="48.05248" lon="5.89209">
        <ele>276.4</ele>
        <time>2019-05-30T10:40:05Z</time>
      </trkpt>
      <trkpt lat="48.05238" lon="5.89196">
        <ele>276</ele>
        <time>2019-05-30T10:40:09Z</time>
      </trkpt>
      <trkpt lat="48.05223" lon="5.89176">
        <ele>275.4</ele>
        <time>2019-05-30T10:40:13Z</time>
      </trkpt>
      <trkpt lat="48.05207" lon="5.89157">
        <ele>276</ele>
        <time>2019-05-30T10:40:17Z</time>
      </trkpt>
      <trkpt lat="48.05194" lon="5.89137">
        <ele>275</ele>
        <time>2019-05-30T10:40:21Z</time>
      </trkpt>
      <trkpt lat="48.05179" lon="5.89126">
        <ele>274.2</ele>
        <time>2019-05-30T10:40:25Z</time>
      </trkpt>
      <trkpt lat="48.0517" lon="5.89107">
        <ele>274.4</ele>
        <time>2019-05-30T10:40:29Z</time>
      </trkpt>
      <trkpt lat="48.05154" lon="5.89081">
        <ele>275</ele>
        <time>2019-05-30T10:40:33Z</time>
      </trkpt>
      <trkpt lat="48.05138" lon="5.89062">
        <ele>273.2</ele>
        <time>2019-05-30T10:40:37Z</time>
      </trkpt>
      <trkpt lat="48.05135" lon="5.89053">
        <ele>273</ele>
        <time>2019-05-30T10:40:41Z</time>
      </trkpt>
      <trkpt lat="48.05127" lon="5.89045">
        <ele>272.6</ele>
        <time>2019-05-30T10:40:45Z</time>
      </trkpt>
      <trkpt lat="48.05117" lon="5.89031">
        <ele>273</ele>
        <time>2019-05-30T10:40:49Z</time>
      </trkpt>
      <trkpt lat="48.05107" lon="5.89017">
        <ele>272.4</ele>
        <time>2019-05-30T10:40:53Z</time>
      </trkpt>
      <trkpt lat="48.05094" lon="5.89006">
        <ele>272.8</ele>
        <time>2019-05-30T10:40:57Z</time>
      </trkpt>
      <trkpt lat="48.05086" lon="5.88998">
        <ele>272.6</ele>
        <time>2019-05-30T10:41:01Z</time>
      </trkpt>
      <trkpt lat="48.05075" lon="5.88985">
        <ele>272.4</ele>
        <time>2019-05-30T10:41:05Z</time>
      </trkpt>
      <trkpt lat="48.05067" lon="5.8897">
        <ele>271.8</ele>
        <time>2019-05-30T10:41:09Z</time>
      </trkpt>
      <trkpt lat="48.0506" lon="5.88961">
        <ele>272</ele>
        <time>2019-05-30T10:41:13Z</time>
      </trkpt>
      <trkpt lat="48.05056" lon="5.88948">
        <ele>272.4</ele>
        <time>2019-05-30T10:41:17Z</time>
      </trkpt>
      <trkpt lat="48.05052" lon="5.88934">
        <ele>273</ele>
        <time>2019-05-30T10:41:21Z</time>
      </trkpt>
      <trkpt lat="48.05044" lon="5.88921">
        <ele>273</ele>
        <time>2019-05-30T10:41:25Z</time>
      </trkpt>
      <trkpt lat="48.05038" lon="5.88909">
        <ele>273.6</ele>
        <time>2019-05-30T10:41:29Z</time>
      </trkpt>
      <trkpt lat="48.05023" lon="5.88895">
        <ele>274</ele>
        <time>2019-05-30T10:41:33Z</time>
      </trkpt>
      <trkpt lat="48.05011" lon="5.88875">
        <ele>273.8</ele>
        <time>2019-05-30T10:41:37Z</time>
      </trkpt>
      <trkpt lat="48.05001" lon="5.88854">
        <ele>274.2</ele>
        <time>2019-05-30T10:41:41Z</time>
      </trkpt>
      <trkpt lat="48.04997" lon="5.88836">
        <ele>273.2</ele>
        <time>2019-05-30T10:41:45Z</time>
      </trkpt>
      <trkpt lat="48.04993" lon="5.88818">
        <ele>272.8</ele>
        <time>2019-05-30T10:41:49Z</time>
      </trkpt>
      <trkpt lat="48.04985" lon="5.88794">
        <ele>272.8</ele>
        <time>2019-05-30T10:41:53Z</time>
      </trkpt>
      <trkpt lat="48.04977" lon="5.88772">
        <ele>272.6</ele>
        <time>2019-05-30T10:41:57Z</time>
      </trkpt>
      <trkpt lat="48.04959" lon="5.88752">
        <ele>273</ele>
        <time>2019-05-30T10:42:01Z</time>
      </trkpt>
      <trkpt lat="48.04944" lon="5.88733">
        <ele>271.4</ele>
        <time>2019-05-30T10:42:05Z</time>
      </trkpt>
      <trkpt lat="48.04932" lon="5.8871">
        <ele>271.6</ele>
        <time>2019-05-30T10:42:09Z</time>
      </trkpt>
      <trkpt lat="48.04922" lon="5.88692">
        <ele>270.6</ele>
        <time>2019-05-30T10:42:13Z</time>
      </trkpt>
      <trkpt lat="48.04918" lon="5.88667">
        <ele>271</ele>
        <time>2019-05-30T10:42:17Z</time>
      </trkpt>
      <trkpt lat="48.04911" lon="5.88647">
        <ele>270.2</ele>
        <time>2019-05-30T10:42:21Z</time>
      </trkpt>
      <trkpt lat="48.04905" lon="5.88619">
        <ele>269.6</ele>
        <time>2019-05-30T10:42:25Z</time>
      </trkpt>
      <trkpt lat="48.04889" lon="5.88593">
        <ele>269.4</ele>
        <time>2019-05-30T10:42:29Z</time>
      </trkpt>
      <trkpt lat="48.04881" lon="5.88566">
        <ele>268.8</ele>
        <time>2019-05-30T10:42:33Z</time>
      </trkpt>
      <trkpt lat="48.04867" lon="5.88539">
        <ele>267.2</ele>
        <time>2019-05-30T10:42:37Z</time>
      </trkpt>
      <trkpt lat="48.04859" lon="5.8851">
        <ele>265.6</ele>
        <time>2019-05-30T10:42:41Z</time>
      </trkpt>
      <trkpt lat="48.04848" lon="5.88481">
        <ele>265</ele>
        <time>2019-05-30T10:42:45Z</time>
      </trkpt>
      <trkpt lat="48.0484" lon="5.88455">
        <ele>262.6</ele>
        <time>2019-05-30T10:42:49Z</time>
      </trkpt>
      <trkpt lat="48.04829" lon="5.88433">
        <ele>262.4</ele>
        <time>2019-05-30T10:42:53Z</time>
      </trkpt>
      <trkpt lat="48.04833" lon="5.88403">
        <ele>260.2</ele>
        <time>2019-05-30T10:42:57Z</time>
      </trkpt>
      <trkpt lat="48.04834" lon="5.88375">
        <ele>259</ele>
        <time>2019-05-30T10:43:01Z</time>
      </trkpt>
      <trkpt lat="48.0485" lon="5.88357">
        <ele>260</ele>
        <time>2019-05-30T10:43:05Z</time>
      </trkpt>
      <trkpt lat="48.04866" lon="5.88345">
        <ele>259</ele>
        <time>2019-05-30T10:43:09Z</time>
      </trkpt>
      <trkpt lat="48.04881" lon="5.88327">
        <ele>258.4</ele>
        <time>2019-05-30T10:43:13Z</time>
      </trkpt>
      <trkpt lat="48.04891" lon="5.88315">
        <ele>258.8</ele>
        <time>2019-05-30T10:43:17Z</time>
      </trkpt>
      <trkpt lat="48.04903" lon="5.88307">
        <ele>259.4</ele>
        <time>2019-05-30T10:43:21Z</time>
      </trkpt>
      <trkpt lat="48.04914" lon="5.88297">
        <ele>260.6</ele>
        <time>2019-05-30T10:43:25Z</time>
      </trkpt>
      <trkpt lat="48.04925" lon="5.88287">
        <ele>261</ele>
        <time>2019-05-30T10:43:29Z</time>
      </trkpt>
      <trkpt lat="48.04934" lon="5.8828">
        <ele>262</ele>
        <time>2019-05-30T10:43:33Z</time>
      </trkpt>
      <trkpt lat="48.04945" lon="5.8827">
        <ele>261.6</ele>
        <time>2019-05-30T10:43:37Z</time>
      </trkpt>
      <trkpt lat="48.04953" lon="5.88263">
        <ele>261.2</ele>
        <time>2019-05-30T10:43:41Z</time>
      </trkpt>
      <trkpt lat="48.04962" lon="5.88252">
        <ele>260.6</ele>
        <time>2019-05-30T10:43:45Z</time>
      </trkpt>
      <trkpt lat="48.04973" lon="5.88238">
        <ele>262.6</ele>
        <time>2019-05-30T10:43:49Z</time>
      </trkpt>
      <trkpt lat="48.04986" lon="5.88222">
        <ele>263.4</ele>
        <time>2019-05-30T10:43:53Z</time>
      </trkpt>
      <trkpt lat="48.04995" lon="5.88211">
        <ele>264</ele>
        <time>2019-05-30T10:43:57Z</time>
      </trkpt>
      <trkpt lat="48.05006" lon="5.88197">
        <ele>264.4</ele>
        <time>2019-05-30T10:44:01Z</time>
      </trkpt>
      <trkpt lat="48.05015" lon="5.88184">
        <ele>264.6</ele>
        <time>2019-05-30T10:44:05Z</time>
      </trkpt>
      <trkpt lat="48.05022" lon="5.88168">
        <ele>264</ele>
        <time>2019-05-30T10:44:09Z</time>
      </trkpt>
      <trkpt lat="48.05029" lon="5.88151">
        <ele>265.4</ele>
        <time>2019-05-30T10:44:13Z</time>
      </trkpt>
      <trkpt lat="48.05034" lon="5.88135">
        <ele>265.4</ele>
        <time>2019-05-30T10:44:17Z</time>
      </trkpt>
      <trkpt lat="48.05039" lon="5.88115">
        <ele>265.4</ele>
        <time>2019-05-30T10:44:21Z</time>
      </trkpt>
      <trkpt lat="48.05037" lon="5.88096">
        <ele>264.2</ele>
        <time>2019-05-30T10:44:25Z</time>
      </trkpt>
      <trkpt lat="48.05033" lon="5.88079">
        <ele>263.6</ele>
        <time>2019-05-30T10:44:29Z</time>
      </trkpt>
      <trkpt lat="48.0503" lon="5.88057">
        <ele>263.6</ele>
        <time>2019-05-30T10:44:33Z</time>
      </trkpt>
      <trkpt lat="48.05029" lon="5.8804">
        <ele>262.2</ele>
        <time>2019-05-30T10:44:37Z</time>
      </trkpt>
      <trkpt lat="48.05023" lon="5.88017">
        <ele>261.4</ele>
        <time>2019-05-30T10:44:41Z</time>
      </trkpt>
      <trkpt lat="48.05011" lon="5.87991">
        <ele>260.2</ele>
        <time>2019-05-30T10:44:45Z</time>
      </trkpt>
      <trkpt lat="48.05011" lon="5.87967">
        <ele>257.8</ele>
        <time>2019-05-30T10:44:49Z</time>
      </trkpt>
      <trkpt lat="48.05016" lon="5.87941">
        <ele>255.2</ele>
        <time>2019-05-30T10:44:53Z</time>
      </trkpt>
      <trkpt lat="48.05016" lon="5.87914">
        <ele>254.4</ele>
        <time>2019-05-30T10:44:57Z</time>
      </trkpt>
      <trkpt lat="48.05026" lon="5.87882">
        <ele>251.6</ele>
        <time>2019-05-30T10:45:01Z</time>
      </trkpt>
      <trkpt lat="48.05026" lon="5.87855">
        <ele>245</ele>
        <time>2019-05-30T10:45:05Z</time>
      </trkpt>
      <trkpt lat="48.05037" lon="5.87821">
        <ele>242.6</ele>
        <time>2019-05-30T10:45:09Z</time>
      </trkpt>
      <trkpt lat="48.05056" lon="5.87776">
        <ele>240.2</ele>
        <time>2019-05-30T10:45:13Z</time>
      </trkpt>
      <trkpt lat="48.05068" lon="5.87735">
        <ele>237</ele>
        <time>2019-05-30T10:45:17Z</time>
      </trkpt>
      <trkpt lat="48.05064" lon="5.877">
        <ele>238</ele>
        <time>2019-05-30T10:45:21Z</time>
      </trkpt>
      <trkpt lat="48.05059" lon="5.87671">
        <ele>238</ele>
        <time>2019-05-30T10:45:25Z</time>
      </trkpt>
      <trkpt lat="48.05059" lon="5.8765">
        <ele>238.6</ele>
        <time>2019-05-30T10:45:29Z</time>
      </trkpt>
      <trkpt lat="48.05051" lon="5.87649">
        <ele>238.6</ele>
        <time>2019-05-30T10:45:33Z</time>
      </trkpt>
      <trkpt lat="48.0504" lon="5.87656">
        <ele>238.6</ele>
        <time>2019-05-30T10:45:37Z</time>
      </trkpt>
      <trkpt lat="48.0503" lon="5.87661">
        <ele>239.4</ele>
        <time>2019-05-30T10:45:41Z</time>
      </trkpt>
      <trkpt lat="48.05021" lon="5.87668">
        <ele>239.6</ele>
        <time>2019-05-30T10:45:45Z</time>
      </trkpt>
      <trkpt lat="48.05013" lon="5.8768">
        <ele>239.6</ele>
        <time>2019-05-30T10:45:49Z</time>
      </trkpt>
      <trkpt lat="48.05005" lon="5.87694">
        <ele>239.6</ele>
        <time>2019-05-30T10:45:53Z</time>
      </trkpt>
      <trkpt lat="48.04998" lon="5.87708">
        <ele>240.2</ele>
        <time>2019-05-30T10:45:57Z</time>
      </trkpt>
      <trkpt lat="48.04988" lon="5.87723">
        <ele>240.4</ele>
        <time>2019-05-30T10:46:01Z</time>
      </trkpt>
      <trkpt lat="48.04976" lon="5.87739">
        <ele>240.4</ele>
        <time>2019-05-30T10:46:05Z</time>
      </trkpt>
      <trkpt lat="48.04965" lon="5.87757">
        <ele>240.4</ele>
        <time>2019-05-30T10:46:09Z</time>
      </trkpt>
      <trkpt lat="48.04954" lon="5.87773">
        <ele>240.6</ele>
        <time>2019-05-30T10:46:13Z</time>
      </trkpt>
      <trkpt lat="48.04943" lon="5.87791">
        <ele>240.6</ele>
        <time>2019-05-30T10:46:17Z</time>
      </trkpt>
      <trkpt lat="48.04931" lon="5.87812">
        <ele>240.8</ele>
        <time>2019-05-30T10:46:21Z</time>
      </trkpt>
      <trkpt lat="48.0492" lon="5.87838">
        <ele>239.8</ele>
        <time>2019-05-30T10:46:25Z</time>
      </trkpt>
      <trkpt lat="48.04912" lon="5.8787">
        <ele>239.6</ele>
        <time>2019-05-30T10:46:29Z</time>
      </trkpt>
      <trkpt lat="48.04904" lon="5.879">
        <ele>239</ele>
        <time>2019-05-30T10:46:33Z</time>
      </trkpt>
      <trkpt lat="48.04898" lon="5.87927">
        <ele>238.2</ele>
        <time>2019-05-30T10:46:37Z</time>
      </trkpt>
      <trkpt lat="48.04888" lon="5.87946">
        <ele>238</ele>
        <time>2019-05-30T10:46:41Z</time>
      </trkpt>
      <trkpt lat="48.04875" lon="5.87956">
        <ele>239.2</ele>
        <time>2019-05-30T10:46:45Z</time>
      </trkpt>
      <trkpt lat="48.04867" lon="5.87962">
        <ele>240.8</ele>
        <time>2019-05-30T10:46:49Z</time>
      </trkpt>
      <trkpt lat="48.0486" lon="5.87968">
        <ele>242.2</ele>
        <time>2019-05-30T10:46:53Z</time>
      </trkpt>
      <trkpt lat="48.04856" lon="5.87974">
        <ele>244</ele>
        <time>2019-05-30T10:46:57Z</time>
      </trkpt>
      <trkpt lat="48.04851" lon="5.8798">
        <ele>245.2</ele>
        <time>2019-05-30T10:47:01Z</time>
      </trkpt>
      <trkpt lat="48.04843" lon="5.87986">
        <ele>246.6</ele>
        <time>2019-05-30T10:47:05Z</time>
      </trkpt>
      <trkpt lat="48.04836" lon="5.87992">
        <ele>248.6</ele>
        <time>2019-05-30T10:47:09Z</time>
      </trkpt>
      <trkpt lat="48.04831" lon="5.87997">
        <ele>249.4</ele>
        <time>2019-05-30T10:47:13Z</time>
      </trkpt>
      <trkpt lat="48.04826" lon="5.87998">
        <ele>251.4</ele>
        <time>2019-05-30T10:47:17Z</time>
      </trkpt>
      <trkpt lat="48.04818" lon="5.87993">
        <ele>252.4</ele>
        <time>2019-05-30T10:47:21Z</time>
      </trkpt>
      <trkpt lat="48.04816" lon="5.87988">
        <ele>252.8</ele>
        <time>2019-05-30T10:47:25Z</time>
      </trkpt>
      <trkpt lat="48.04816" lon="5.87984">
        <ele>252.4</ele>
        <time>2019-05-30T10:47:29Z</time>
      </trkpt>
      <trkpt lat="48.04817" lon="5.8798">
        <ele>252.4</ele>
        <time>2019-05-30T10:47:33Z</time>
      </trkpt>
      <trkpt lat="48.0482" lon="5.87976">
        <ele>252.6</ele>
        <time>2019-05-30T10:47:37Z</time>
      </trkpt>
      <trkpt lat="48.04823" lon="5.87971">
        <ele>252.6</ele>
        <time>2019-05-30T10:47:41Z</time>
      </trkpt>
      <trkpt lat="48.04827" lon="5.87963">
        <ele>253</ele>
        <time>2019-05-30T10:47:45Z</time>
      </trkpt>
      <trkpt lat="48.04831" lon="5.87953">
        <ele>253.6</ele>
        <time>2019-05-30T10:47:49Z</time>
      </trkpt>
      <trkpt lat="48.04832" lon="5.87941">
        <ele>255.4</ele>
        <time>2019-05-30T10:47:53Z</time>
      </trkpt>
      <trkpt lat="48.04829" lon="5.87934">
        <ele>255.8</ele>
        <time>2019-05-30T10:47:57Z</time>
      </trkpt>
      <trkpt lat="48.04824" lon="5.87929">
        <ele>257</ele>
        <time>2019-05-30T10:48:01Z</time>
      </trkpt>
      <trkpt lat="48.0482" lon="5.87931">
        <ele>258.2</ele>
        <time>2019-05-30T10:48:05Z</time>
      </trkpt>
      <trkpt lat="48.04821" lon="5.87933">
        <ele>259.4</ele>
        <time>2019-05-30T10:48:09Z</time>
      </trkpt>
      <trkpt lat="48.04821" lon="5.87933">
        <ele>259.4</ele>
        <time>2019-05-30T10:48:13Z</time>
      </trkpt>
      <trkpt lat="48.04816" lon="5.87938">
        <ele>261.2</ele>
        <time>2019-05-30T10:48:17Z</time>
      </trkpt>
      <trkpt lat="48.04816" lon="5.87938">
        <ele>261.2</ele>
        <time>2019-05-30T10:48:21Z</time>
      </trkpt>
      <trkpt lat="48.04816" lon="5.87938">
        <ele>261.2</ele>
        <time>2019-05-30T10:48:25Z</time>
      </trkpt>
      <trkpt lat="48.04816" lon="5.87938">
        <ele>261.2</ele>
        <time>2019-05-30T10:48:29Z</time>
      </trkpt>
      <trkpt lat="48.04816" lon="5.87938">
        <ele>261.2</ele>
        <time>2019-05-30T10:48:33Z</time>
      </trkpt>
      <trkpt lat="48.04816" lon="5.87938">
        <ele>261.2</ele>
        <time>2019-05-30T10:48:37Z</time>
      </trkpt>
      <trkpt lat="48.04816" lon="5.87938">
        <ele>261.2</ele>
        <time>2019-05-30T10:48:41Z</time>
      </trkpt>
      <trkpt lat="48.04816" lon="5.87938">
        <ele>261.2</ele>
        <time>2019-05-30T10:48:45Z</time>
      </trkpt>
      <trkpt lat="48.04816" lon="5.87938">
        <ele>261.2</ele>
        <time>2019-05-30T10:48:49Z</time>
      </trkpt>
      <trkpt lat="48.04804" lon="5.87937">
        <ele>261.2</ele>
        <time>2019-05-30T10:48:53Z</time>
      </trkpt>
      <trkpt lat="48.04802" lon="5.87939">
        <ele>261.4</ele>
        <time>2019-05-30T10:48:57Z</time>
      </trkpt>
      <trkpt lat="48.04798" lon="5.87937">
        <ele>262.6</ele>
        <time>2019-05-30T10:49:01Z</time>
      </trkpt>
      <trkpt lat="48.04793" lon="5.87935">
        <ele>264.2</ele>
        <time>2019-05-30T10:49:05Z</time>
      </trkpt>
      <trkpt lat="48.04786" lon="5.87934">
        <ele>265.2</ele>
        <time>2019-05-30T10:49:09Z</time>
      </trkpt>
      <trkpt lat="48.04778" lon="5.87931">
        <ele>266.8</ele>
        <time>2019-05-30T10:49:13Z</time>
      </trkpt>
      <trkpt lat="48.04771" lon="5.87929">
        <ele>267.2</ele>
        <time>2019-05-30T10:49:17Z</time>
      </trkpt>
      <trkpt lat="48.04765" lon="5.87927">
        <ele>267.4</ele>
        <time>2019-05-30T10:49:21Z</time>
      </trkpt>
      <trkpt lat="48.04761" lon="5.87925">
        <ele>267.8</ele>
        <time>2019-05-30T10:49:25Z</time>
      </trkpt>
      <trkpt lat="48.04755" lon="5.87922">
        <ele>267.4</ele>
        <time>2019-05-30T10:49:29Z</time>
      </trkpt>
      <trkpt lat="48.0475" lon="5.8792">
        <ele>268</ele>
        <time>2019-05-30T10:49:33Z</time>
      </trkpt>
      <trkpt lat="48.04745" lon="5.87917">
        <ele>268</ele>
        <time>2019-05-30T10:49:37Z</time>
      </trkpt>
      <trkpt lat="48.04743" lon="5.8791">
        <ele>268.6</ele>
        <time>2019-05-30T10:49:41Z</time>
      </trkpt>
      <trkpt lat="48.04746" lon="5.87903">
        <ele>268.6</ele>
        <time>2019-05-30T10:49:45Z</time>
      </trkpt>
      <trkpt lat="48.0475" lon="5.87893">
        <ele>268.6</ele>
        <time>2019-05-30T10:49:49Z</time>
      </trkpt>
      <trkpt lat="48.04753" lon="5.87883">
        <ele>269.4</ele>
        <time>2019-05-30T10:49:53Z</time>
      </trkpt>
      <trkpt lat="48.04751" lon="5.87872">
        <ele>269.2</ele>
        <time>2019-05-30T10:49:57Z</time>
      </trkpt>
      <trkpt lat="48.04754" lon="5.87859">
        <ele>269.6</ele>
        <time>2019-05-30T10:50:01Z</time>
      </trkpt>
      <trkpt lat="48.04751" lon="5.8785">
        <ele>270.2</ele>
        <time>2019-05-30T10:50:05Z</time>
      </trkpt>
      <trkpt lat="48.0475" lon="5.87837">
        <ele>270.6</ele>
        <time>2019-05-30T10:50:09Z</time>
      </trkpt>
      <trkpt lat="48.04749" lon="5.87826">
        <ele>270.8</ele>
        <time>2019-05-30T10:50:13Z</time>
      </trkpt>
      <trkpt lat="48.0475" lon="5.87815">
        <ele>271.4</ele>
        <time>2019-05-30T10:50:17Z</time>
      </trkpt>
      <trkpt lat="48.04756" lon="5.87804">
        <ele>271</ele>
        <time>2019-05-30T10:50:21Z</time>
      </trkpt>
      <trkpt lat="48.04754" lon="5.87795">
        <ele>271</ele>
        <time>2019-05-30T10:50:25Z</time>
      </trkpt>
      <trkpt lat="48.04758" lon="5.87784">
        <ele>272</ele>
        <time>2019-05-30T10:50:29Z</time>
      </trkpt>
      <trkpt lat="48.04766" lon="5.87767">
        <ele>271.8</ele>
        <time>2019-05-30T10:50:33Z</time>
      </trkpt>
      <trkpt lat="48.04764" lon="5.8775">
        <ele>272.4</ele>
        <time>2019-05-30T10:50:37Z</time>
      </trkpt>
      <trkpt lat="48.04763" lon="5.87734">
        <ele>272.8</ele>
        <time>2019-05-30T10:50:41Z</time>
      </trkpt>
      <trkpt lat="48.04761" lon="5.87718">
        <ele>271.8</ele>
        <time>2019-05-30T10:50:45Z</time>
      </trkpt>
      <trkpt lat="48.04757" lon="5.877">
        <ele>272</ele>
        <time>2019-05-30T10:50:49Z</time>
      </trkpt>
      <trkpt lat="48.0475" lon="5.87684">
        <ele>272.2</ele>
        <time>2019-05-30T10:50:53Z</time>
      </trkpt>
      <trkpt lat="48.04739" lon="5.87672">
        <ele>271.8</ele>
        <time>2019-05-30T10:50:57Z</time>
      </trkpt>
      <trkpt lat="48.04723" lon="5.87663">
        <ele>271.4</ele>
        <time>2019-05-30T10:51:01Z</time>
      </trkpt>
      <trkpt lat="48.04704" lon="5.87653">
        <ele>270.8</ele>
        <time>2019-05-30T10:51:05Z</time>
      </trkpt>
      <trkpt lat="48.04682" lon="5.87644">
        <ele>270</ele>
        <time>2019-05-30T10:51:09Z</time>
      </trkpt>
      <trkpt lat="48.04659" lon="5.8763">
        <ele>269.4</ele>
        <time>2019-05-30T10:51:13Z</time>
      </trkpt>
      <trkpt lat="48.04634" lon="5.87616">
        <ele>268.2</ele>
        <time>2019-05-30T10:51:17Z</time>
      </trkpt>
      <trkpt lat="48.04606" lon="5.87601">
        <ele>266.4</ele>
        <time>2019-05-30T10:51:21Z</time>
      </trkpt>
      <trkpt lat="48.04576" lon="5.87585">
        <ele>265.8</ele>
        <time>2019-05-30T10:51:25Z</time>
      </trkpt>
      <trkpt lat="48.0455" lon="5.87569">
        <ele>264.2</ele>
        <time>2019-05-30T10:51:29Z</time>
      </trkpt>
      <trkpt lat="48.0454" lon="5.8755">
        <ele>264.2</ele>
        <time>2019-05-30T10:51:33Z</time>
      </trkpt>
      <trkpt lat="48.04536" lon="5.87531">
        <ele>265</ele>
        <time>2019-05-30T10:51:37Z</time>
      </trkpt>
      <trkpt lat="48.0453" lon="5.87505">
        <ele>264.4</ele>
        <time>2019-05-30T10:51:41Z</time>
      </trkpt>
      <trkpt lat="48.04526" lon="5.87482">
        <ele>263.6</ele>
        <time>2019-05-30T10:51:45Z</time>
      </trkpt>
      <trkpt lat="48.04516" lon="5.8746">
        <ele>263</ele>
        <time>2019-05-30T10:51:49Z</time>
      </trkpt>
      <trkpt lat="48.045" lon="5.87439">
        <ele>263</ele>
        <time>2019-05-30T10:51:53Z</time>
      </trkpt>
      <trkpt lat="48.04497" lon="5.87419">
        <ele>263.6</ele>
        <time>2019-05-30T10:51:57Z</time>
      </trkpt>
      <trkpt lat="48.04488" lon="5.87402">
        <ele>263.6</ele>
        <time>2019-05-30T10:52:01Z</time>
      </trkpt>
      <trkpt lat="48.04486" lon="5.87386">
        <ele>263.6</ele>
        <time>2019-05-30T10:52:05Z</time>
      </trkpt>
      <trkpt lat="48.04485" lon="5.87369">
        <ele>263.6</ele>
        <time>2019-05-30T10:52:09Z</time>
      </trkpt>
      <trkpt lat="48.04485" lon="5.87357">
        <ele>263.6</ele>
        <time>2019-05-30T10:52:13Z</time>
      </trkpt>
      <trkpt lat="48.04485" lon="5.87346">
        <ele>263.6</ele>
        <time>2019-05-30T10:52:17Z</time>
      </trkpt>
      <trkpt lat="48.04484" lon="5.87334">
        <ele>263.8</ele>
        <time>2019-05-30T10:52:21Z</time>
      </trkpt>
      <trkpt lat="48.04482" lon="5.87318">
        <ele>263.6</ele>
        <time>2019-05-30T10:52:25Z</time>
      </trkpt>
      <trkpt lat="48.04483" lon="5.87298">
        <ele>263.4</ele>
        <time>2019-05-30T10:52:29Z</time>
      </trkpt>
      <trkpt lat="48.04484" lon="5.87272">
        <ele>263</ele>
        <time>2019-05-30T10:52:33Z</time>
      </trkpt>
      <trkpt lat="48.04485" lon="5.87244">
        <ele>263.4</ele>
        <time>2019-05-30T10:52:37Z</time>
      </trkpt>
      <trkpt lat="48.04488" lon="5.87214">
        <ele>262.8</ele>
        <time>2019-05-30T10:52:41Z</time>
      </trkpt>
      <trkpt lat="48.04491" lon="5.87183">
        <ele>262.2</ele>
        <time>2019-05-30T10:52:45Z</time>
      </trkpt>
      <trkpt lat="48.04493" lon="5.87152">
        <ele>262.4</ele>
        <time>2019-05-30T10:52:49Z</time>
      </trkpt>
      <trkpt lat="48.04495" lon="5.87124">
        <ele>262.8</ele>
        <time>2019-05-30T10:52:53Z</time>
      </trkpt>
      <trkpt lat="48.045" lon="5.87097">
        <ele>262</ele>
        <time>2019-05-30T10:52:57Z</time>
      </trkpt>
      <trkpt lat="48.04504" lon="5.87069">
        <ele>262.4</ele>
        <time>2019-05-30T10:53:01Z</time>
      </trkpt>
      <trkpt lat="48.04508" lon="5.87041">
        <ele>260.8</ele>
        <time>2019-05-30T10:53:05Z</time>
      </trkpt>
      <trkpt lat="48.0451" lon="5.8701">
        <ele>261</ele>
        <time>2019-05-30T10:53:09Z</time>
      </trkpt>
      <trkpt lat="48.04508" lon="5.86977">
        <ele>261</ele>
        <time>2019-05-30T10:53:13Z</time>
      </trkpt>
      <trkpt lat="48.04507" lon="5.86945">
        <ele>261</ele>
        <time>2019-05-30T10:53:17Z</time>
      </trkpt>
      <trkpt lat="48.04506" lon="5.86915">
        <ele>261.2</ele>
        <time>2019-05-30T10:53:21Z</time>
      </trkpt>
      <trkpt lat="48.04506" lon="5.86885">
        <ele>261.2</ele>
        <time>2019-05-30T10:53:25Z</time>
      </trkpt>
      <trkpt lat="48.04507" lon="5.86857">
        <ele>261</ele>
        <time>2019-05-30T10:53:29Z</time>
      </trkpt>
      <trkpt lat="48.04509" lon="5.86831">
        <ele>261.4</ele>
        <time>2019-05-30T10:53:33Z</time>
      </trkpt>
      <trkpt lat="48.04512" lon="5.86807">
        <ele>261.2</ele>
        <time>2019-05-30T10:53:37Z</time>
      </trkpt>
      <trkpt lat="48.04515" lon="5.86786">
        <ele>261.8</ele>
        <time>2019-05-30T10:53:41Z</time>
      </trkpt>
      <trkpt lat="48.04514" lon="5.86758">
        <ele>262.6</ele>
        <time>2019-05-30T10:53:45Z</time>
      </trkpt>
      <trkpt lat="48.04514" lon="5.86728">
        <ele>261.4</ele>
        <time>2019-05-30T10:53:49Z</time>
      </trkpt>
      <trkpt lat="48.04515" lon="5.86699">
        <ele>261.6</ele>
        <time>2019-05-30T10:53:53Z</time>
      </trkpt>
      <trkpt lat="48.04517" lon="5.86671">
        <ele>261.8</ele>
        <time>2019-05-30T10:53:57Z</time>
      </trkpt>
      <trkpt lat="48.04517" lon="5.86671">
        <ele>261.8</ele>
        <time>2019-05-30T10:54:01Z</time>
      </trkpt>
      <trkpt lat="48.0452" lon="5.86635">
        <ele>261.6</ele>
        <time>2019-05-30T10:54:05Z</time>
      </trkpt>
      <trkpt lat="48.04522" lon="5.8661">
        <ele>261.2</ele>
        <time>2019-05-30T10:54:09Z</time>
      </trkpt>
      <trkpt lat="48.04514" lon="5.86594">
        <ele>260.2</ele>
        <time>2019-05-30T10:54:13Z</time>
      </trkpt>
      <trkpt lat="48.04495" lon="5.86587">
        <ele>259</ele>
        <time>2019-05-30T10:54:17Z</time>
      </trkpt>
      <trkpt lat="48.04474" lon="5.86584">
        <ele>258.8</ele>
        <time>2019-05-30T10:54:21Z</time>
      </trkpt>
      <trkpt lat="48.04456" lon="5.86586">
        <ele>259</ele>
        <time>2019-05-30T10:54:25Z</time>
      </trkpt>
      <trkpt lat="48.0444" lon="5.86593">
        <ele>258.4</ele>
        <time>2019-05-30T10:54:29Z</time>
      </trkpt>
      <trkpt lat="48.04418" lon="5.86599">
        <ele>258.2</ele>
        <time>2019-05-30T10:54:33Z</time>
      </trkpt>
      <trkpt lat="48.04396" lon="5.86602">
        <ele>257.4</ele>
        <time>2019-05-30T10:54:37Z</time>
      </trkpt>
      <trkpt lat="48.04372" lon="5.86605">
        <ele>256.8</ele>
        <time>2019-05-30T10:54:41Z</time>
      </trkpt>
      <trkpt lat="48.04349" lon="5.86611">
        <ele>256.2</ele>
        <time>2019-05-30T10:54:45Z</time>
      </trkpt>
      <trkpt lat="48.04332" lon="5.86606">
        <ele>255</ele>
        <time>2019-05-30T10:54:49Z</time>
      </trkpt>
      <trkpt lat="48.04326" lon="5.86579">
        <ele>254.4</ele>
        <time>2019-05-30T10:54:53Z</time>
      </trkpt>
      <trkpt lat="48.04326" lon="5.86548">
        <ele>255.8</ele>
        <time>2019-05-30T10:54:57Z</time>
      </trkpt>
      <trkpt lat="48.04327" lon="5.86521">
        <ele>255.6</ele>
        <time>2019-05-30T10:55:01Z</time>
      </trkpt>
      <trkpt lat="48.04328" lon="5.86492">
        <ele>255.6</ele>
        <time>2019-05-30T10:55:05Z</time>
      </trkpt>
      <trkpt lat="48.04329" lon="5.86464">
        <ele>256</ele>
        <time>2019-05-30T10:55:09Z</time>
      </trkpt>
      <trkpt lat="48.0433" lon="5.86437">
        <ele>255.4</ele>
        <time>2019-05-30T10:55:13Z</time>
      </trkpt>
      <trkpt lat="48.04332" lon="5.86409">
        <ele>256</ele>
        <time>2019-05-30T10:55:17Z</time>
      </trkpt>
      <trkpt lat="48.04334" lon="5.86384">
        <ele>255.8</ele>
        <time>2019-05-30T10:55:21Z</time>
      </trkpt>
      <trkpt lat="48.04337" lon="5.86357">
        <ele>256</ele>
        <time>2019-05-30T10:55:25Z</time>
      </trkpt>
      <trkpt lat="48.04337" lon="5.86331">
        <ele>256.6</ele>
        <time>2019-05-30T10:55:29Z</time>
      </trkpt>
      <trkpt lat="48.04338" lon="5.86306">
        <ele>256.8</ele>
        <time>2019-05-30T10:55:33Z</time>
      </trkpt>
      <trkpt lat="48.0434" lon="5.86281">
        <ele>257</ele>
        <time>2019-05-30T10:55:37Z</time>
      </trkpt>
      <trkpt lat="48.04341" lon="5.86257">
        <ele>257.6</ele>
        <time>2019-05-30T10:55:41Z</time>
      </trkpt>
      <trkpt lat="48.04343" lon="5.86233">
        <ele>258</ele>
        <time>2019-05-30T10:55:45Z</time>
      </trkpt>
      <trkpt lat="48.04342" lon="5.86208">
        <ele>258.8</ele>
        <time>2019-05-30T10:55:49Z</time>
      </trkpt>
      <trkpt lat="48.04335" lon="5.86192">
        <ele>257.2</ele>
        <time>2019-05-30T10:55:53Z</time>
      </trkpt>
      <trkpt lat="48.0432" lon="5.86188">
        <ele>257</ele>
        <time>2019-05-30T10:55:57Z</time>
      </trkpt>
      <trkpt lat="48.04298" lon="5.86171">
        <ele>256.6</ele>
        <time>2019-05-30T10:56:02Z</time>
      </trkpt>
      <trkpt lat="48.04298" lon="5.86171">
        <ele>256.6</ele>
        <time>2019-05-30T10:56:05Z</time>
      </trkpt>
      <trkpt lat="48.04281" lon="5.86167">
        <ele>257.2</ele>
        <time>2019-05-30T10:56:09Z</time>
      </trkpt>
      <trkpt lat="48.0427" lon="5.8616">
        <ele>258.2</ele>
        <time>2019-05-30T10:56:13Z</time>
      </trkpt>
      <trkpt lat="48.04257" lon="5.86152">
        <ele>258.2</ele>
        <time>2019-05-30T10:56:17Z</time>
      </trkpt>
      <trkpt lat="48.04245" lon="5.8615">
        <ele>258.4</ele>
        <time>2019-05-30T10:56:21Z</time>
      </trkpt>
      <trkpt lat="48.04233" lon="5.86149">
        <ele>259.2</ele>
        <time>2019-05-30T10:56:25Z</time>
      </trkpt>
      <trkpt lat="48.0422" lon="5.86146">
        <ele>259.2</ele>
        <time>2019-05-30T10:56:29Z</time>
      </trkpt>
      <trkpt lat="48.04208" lon="5.86144">
        <ele>259.2</ele>
        <time>2019-05-30T10:56:33Z</time>
      </trkpt>
      <trkpt lat="48.04197" lon="5.86141">
        <ele>259.2</ele>
        <time>2019-05-30T10:56:37Z</time>
      </trkpt>
      <trkpt lat="48.04185" lon="5.86139">
        <ele>260</ele>
        <time>2019-05-30T10:56:41Z</time>
      </trkpt>
      <trkpt lat="48.04172" lon="5.86137">
        <ele>260.4</ele>
        <time>2019-05-30T10:56:45Z</time>
      </trkpt>
      <trkpt lat="48.04162" lon="5.86134">
        <ele>261</ele>
        <time>2019-05-30T10:56:49Z</time>
      </trkpt>
      <trkpt lat="48.04152" lon="5.86133">
        <ele>261</ele>
        <time>2019-05-30T10:56:53Z</time>
      </trkpt>
      <trkpt lat="48.0414" lon="5.86134">
        <ele>261.4</ele>
        <time>2019-05-30T10:56:57Z</time>
      </trkpt>
      <trkpt lat="48.04129" lon="5.86132">
        <ele>261</ele>
        <time>2019-05-30T10:57:01Z</time>
      </trkpt>
      <trkpt lat="48.04118" lon="5.86128">
        <ele>261.4</ele>
        <time>2019-05-30T10:57:05Z</time>
      </trkpt>
      <trkpt lat="48.04108" lon="5.86127">
        <ele>261.4</ele>
        <time>2019-05-30T10:57:09Z</time>
      </trkpt>
      <trkpt lat="48.04097" lon="5.86126">
        <ele>261.4</ele>
        <time>2019-05-30T10:57:13Z</time>
      </trkpt>
      <trkpt lat="48.04087" lon="5.86119">
        <ele>262</ele>
        <time>2019-05-30T10:57:17Z</time>
      </trkpt>
      <trkpt lat="48.04087" lon="5.8611">
        <ele>261.8</ele>
        <time>2019-05-30T10:57:21Z</time>
      </trkpt>
      <trkpt lat="48.04093" lon="5.86101">
        <ele>262.4</ele>
        <time>2019-05-30T10:57:25Z</time>
      </trkpt>
      <trkpt lat="48.041" lon="5.86089">
        <ele>262.2</ele>
        <time>2019-05-30T10:57:29Z</time>
      </trkpt>
      <trkpt lat="48.04102" lon="5.86074">
        <ele>262.6</ele>
        <time>2019-05-30T10:57:33Z</time>
      </trkpt>
      <trkpt lat="48.04105" lon="5.8606">
        <ele>263</ele>
        <time>2019-05-30T10:57:37Z</time>
      </trkpt>
      <trkpt lat="48.04104" lon="5.86043">
        <ele>262.8</ele>
        <time>2019-05-30T10:57:41Z</time>
      </trkpt>
      <trkpt lat="48.04104" lon="5.86025">
        <ele>262</ele>
        <time>2019-05-30T10:57:45Z</time>
      </trkpt>
      <trkpt lat="48.04103" lon="5.86007">
        <ele>262.6</ele>
        <time>2019-05-30T10:57:49Z</time>
      </trkpt>
      <trkpt lat="48.04103" lon="5.8599">
        <ele>263.6</ele>
        <time>2019-05-30T10:57:53Z</time>
      </trkpt>
      <trkpt lat="48.041" lon="5.85972">
        <ele>264.4</ele>
        <time>2019-05-30T10:57:57Z</time>
      </trkpt>
      <trkpt lat="48.04098" lon="5.85951">
        <ele>264.2</ele>
        <time>2019-05-30T10:58:01Z</time>
      </trkpt>
      <trkpt lat="48.04095" lon="5.8593">
        <ele>263.8</ele>
        <time>2019-05-30T10:58:05Z</time>
      </trkpt>
      <trkpt lat="48.04093" lon="5.85909">
        <ele>265.4</ele>
        <time>2019-05-30T10:58:09Z</time>
      </trkpt>
      <trkpt lat="48.0409" lon="5.85889">
        <ele>265.2</ele>
        <time>2019-05-30T10:58:13Z</time>
      </trkpt>
      <trkpt lat="48.04088" lon="5.85868">
        <ele>265.8</ele>
        <time>2019-05-30T10:58:17Z</time>
      </trkpt>
      <trkpt lat="48.04087" lon="5.85848">
        <ele>266.6</ele>
        <time>2019-05-30T10:58:21Z</time>
      </trkpt>
      <trkpt lat="48.04086" lon="5.85827">
        <ele>267</ele>
        <time>2019-05-30T10:58:25Z</time>
      </trkpt>
      <trkpt lat="48.04084" lon="5.85808">
        <ele>268</ele>
        <time>2019-05-30T10:58:29Z</time>
      </trkpt>
      <trkpt lat="48.04082" lon="5.85789">
        <ele>267.6</ele>
        <time>2019-05-30T10:58:33Z</time>
      </trkpt>
      <trkpt lat="48.04081" lon="5.85772">
        <ele>269.2</ele>
        <time>2019-05-30T10:58:37Z</time>
      </trkpt>
      <trkpt lat="48.04081" lon="5.85757">
        <ele>270.2</ele>
        <time>2019-05-30T10:58:41Z</time>
      </trkpt>
      <trkpt lat="48.04081" lon="5.85743">
        <ele>270.6</ele>
        <time>2019-05-30T10:58:45Z</time>
      </trkpt>
      <trkpt lat="48.04083" lon="5.8573">
        <ele>270.2</ele>
        <time>2019-05-30T10:58:49Z</time>
      </trkpt>
      <trkpt lat="48.04083" lon="5.8573">
        <ele>270.2</ele>
        <time>2019-05-30T10:58:53Z</time>
      </trkpt>
      <trkpt lat="48.04085" lon="5.85727">
        <ele>270.4</ele>
        <time>2019-05-30T10:58:57Z</time>
      </trkpt>
      <trkpt lat="48.04091" lon="5.85718">
        <ele>269.8</ele>
        <time>2019-05-30T10:59:01Z</time>
      </trkpt>
      <trkpt lat="48.04102" lon="5.85701">
        <ele>270.4</ele>
        <time>2019-05-30T10:59:05Z</time>
      </trkpt>
      <trkpt lat="48.04111" lon="5.8568">
        <ele>270</ele>
        <time>2019-05-30T10:59:09Z</time>
      </trkpt>
      <trkpt lat="48.04121" lon="5.85659">
        <ele>269.4</ele>
        <time>2019-05-30T10:59:13Z</time>
      </trkpt>
      <trkpt lat="48.04117" lon="5.85641">
        <ele>269.4</ele>
        <time>2019-05-30T10:59:17Z</time>
      </trkpt>
      <trkpt lat="48.04117" lon="5.85641">
        <ele>269.4</ele>
        <time>2019-05-30T10:59:21Z</time>
      </trkpt>
      <trkpt lat="48.04117" lon="5.85641">
        <ele>269.4</ele>
        <time>2019-05-30T10:59:25Z</time>
      </trkpt>
      <trkpt lat="48.04117" lon="5.85641">
        <ele>269.4</ele>
        <time>2019-05-30T10:59:29Z</time>
      </trkpt>
      <trkpt lat="48.04117" lon="5.85641">
        <ele>269.4</ele>
        <time>2019-05-30T10:59:33Z</time>
      </trkpt>
      <trkpt lat="48.04117" lon="5.85641">
        <ele>269.4</ele>
        <time>2019-05-30T10:59:37Z</time>
      </trkpt>
      <trkpt lat="48.04106" lon="5.8563">
        <ele>269.6</ele>
        <time>2019-05-30T10:59:41Z</time>
      </trkpt>
      <trkpt lat="48.04103" lon="5.85624">
        <ele>270</ele>
        <time>2019-05-30T10:59:45Z</time>
      </trkpt>
      <trkpt lat="48.041" lon="5.85619">
        <ele>270.6</ele>
        <time>2019-05-30T10:59:49Z</time>
      </trkpt>
      <trkpt lat="48.04098" lon="5.85615">
        <ele>270.8</ele>
        <time>2019-05-30T10:59:53Z</time>
      </trkpt>
      <trkpt lat="48.04098" lon="5.85615">
        <ele>270.8</ele>
        <time>2019-05-30T10:59:57Z</time>
      </trkpt>
      <trkpt lat="48.04098" lon="5.85615">
        <ele>270.8</ele>
        <time>2019-05-30T11:00:01Z</time>
      </trkpt>
      <trkpt lat="48.04098" lon="5.85615">
        <ele>270.8</ele>
        <time>2019-05-30T11:00:05Z</time>
      </trkpt>
      <trkpt lat="48.04098" lon="5.85615">
        <ele>270.8</ele>
        <time>2019-05-30T11:00:09Z</time>
      </trkpt>
      <trkpt lat="48.04098" lon="5.85615">
        <ele>270.8</ele>
        <time>2019-05-30T11:00:13Z</time>
      </trkpt>
      <trkpt lat="48.04098" lon="5.85615">
        <ele>270.8</ele>
        <time>2019-05-30T11:00:17Z</time>
      </trkpt>
      <trkpt lat="48.04098" lon="5.85615">
        <ele>270.8</ele>
        <time>2019-05-30T11:00:21Z</time>
      </trkpt>
      <trkpt lat="48.04098" lon="5.85615">
        <ele>270.8</ele>
        <time>2019-05-30T11:00:25Z</time>
      </trkpt>
      <trkpt lat="48.04098" lon="5.85615">
        <ele>270.8</ele>
        <time>2019-05-30T11:00:29Z</time>
      </trkpt>
      <trkpt lat="48.04098" lon="5.85615">
        <ele>270.8</ele>
        <time>2019-05-30T11:00:33Z</time>
      </trkpt>
      <trkpt lat="48.04098" lon="5.85615">
        <ele>270.8</ele>
        <time>2019-05-30T11:00:37Z</time>
      </trkpt>
      <trkpt lat="48.04098" lon="5.85615">
        <ele>270.8</ele>
        <time>2019-05-30T11:00:41Z</time>
      </trkpt>
      <trkpt lat="48.04098" lon="5.85615">
        <ele>270.8</ele>
        <time>2019-05-30T11:00:45Z</time>
      </trkpt>
      <trkpt lat="48.04098" lon="5.85615">
        <ele>270.8</ele>
        <time>2019-05-30T11:00:49Z</time>
      </trkpt>
      <trkpt lat="48.04098" lon="5.85615">
        <ele>270.8</ele>
        <time>2019-05-30T11:00:53Z</time>
      </trkpt>
      <trkpt lat="48.04098" lon="5.85615">
        <ele>270.8</ele>
        <time>2019-05-30T11:00:57Z</time>
      </trkpt>
      <trkpt lat="48.04098" lon="5.85615">
        <ele>270.8</ele>
        <time>2019-05-30T11:01:01Z</time>
      </trkpt>
      <trkpt lat="48.04098" lon="5.85615">
        <ele>270.8</ele>
        <time>2019-05-30T11:01:05Z</time>
      </trkpt>
      <trkpt lat="48.04098" lon="5.85615">
        <ele>270.8</ele>
        <time>2019-05-30T11:01:09Z</time>
      </trkpt>
      <trkpt lat="48.04098" lon="5.85615">
        <ele>270.8</ele>
        <time>2019-05-30T11:01:13Z</time>
      </trkpt>
      <trkpt lat="48.04098" lon="5.85615">
        <ele>270.8</ele>
        <time>2019-05-30T11:01:17Z</time>
      </trkpt>
      <trkpt lat="48.04098" lon="5.85615">
        <ele>270.8</ele>
        <time>2019-05-30T11:01:21Z</time>
      </trkpt>
      <trkpt lat="48.04098" lon="5.85615">
        <ele>270.8</ele>
        <time>2019-05-30T11:01:25Z</time>
      </trkpt>
      <trkpt lat="48.04098" lon="5.85615">
        <ele>270.8</ele>
        <time>2019-05-30T11:01:29Z</time>
      </trkpt>
      <trkpt lat="48.04098" lon="5.85615">
        <ele>270.8</ele>
        <time>2019-05-30T11:01:33Z</time>
      </trkpt>
      <trkpt lat="48.04098" lon="5.85615">
        <ele>270.8</ele>
        <time>2019-05-30T11:01:37Z</time>
      </trkpt>
      <trkpt lat="48.04098" lon="5.85615">
        <ele>270.8</ele>
        <time>2019-05-30T11:01:41Z</time>
      </trkpt>
      <trkpt lat="48.04098" lon="5.85615">
        <ele>270.8</ele>
        <time>2019-05-30T11:01:45Z</time>
      </trkpt>
      <trkpt lat="48.04098" lon="5.85615">
        <ele>270.8</ele>
        <time>2019-05-30T11:01:49Z</time>
      </trkpt>
      <trkpt lat="48.04098" lon="5.85615">
        <ele>270.8</ele>
        <time>2019-05-30T11:01:53Z</time>
      </trkpt>
      <trkpt lat="48.04098" lon="5.85615">
        <ele>270.8</ele>
        <time>2019-05-30T11:01:57Z</time>
      </trkpt>
      <trkpt lat="48.04098" lon="5.85615">
        <ele>270.8</ele>
        <time>2019-05-30T11:02:01Z</time>
      </trkpt>
      <trkpt lat="48.04098" lon="5.85615">
        <ele>270.8</ele>
        <time>2019-05-30T11:02:05Z</time>
      </trkpt>
      <trkpt lat="48.04098" lon="5.85615">
        <ele>270.8</ele>
        <time>2019-05-30T11:02:09Z</time>
      </trkpt>
      <trkpt lat="48.04098" lon="5.85615">
        <ele>270.8</ele>
        <time>2019-05-30T11:02:13Z</time>
      </trkpt>
      <trkpt lat="48.04098" lon="5.85615">
        <ele>270.8</ele>
        <time>2019-05-30T11:02:17Z</time>
      </trkpt>
      <trkpt lat="48.04098" lon="5.85615">
        <ele>270.8</ele>
        <time>2019-05-30T11:02:21Z</time>
      </trkpt>
      <trkpt lat="48.04098" lon="5.85615">
        <ele>270.8</ele>
        <time>2019-05-30T11:02:25Z</time>
      </trkpt>
      <trkpt lat="48.04098" lon="5.85615">
        <ele>270.8</ele>
        <time>2019-05-30T11:02:29Z</time>
      </trkpt>
      <trkpt lat="48.04098" lon="5.85615">
        <ele>270.8</ele>
        <time>2019-05-30T11:02:33Z</time>
      </trkpt>
      <trkpt lat="48.04098" lon="5.85615">
        <ele>270.8</ele>
        <time>2019-05-30T11:02:37Z</time>
      </trkpt>
      <trkpt lat="48.04098" lon="5.85615">
        <ele>270.8</ele>
        <time>2019-05-30T11:02:41Z</time>
      </trkpt>
      <trkpt lat="48.04098" lon="5.85615">
        <ele>270.8</ele>
        <time>2019-05-30T11:02:46Z</time>
      </trkpt>
      <trkpt lat="48.04098" lon="5.85615">
        <ele>270.8</ele>
        <time>2019-05-30T11:02:49Z</time>
      </trkpt>
      <trkpt lat="48.04098" lon="5.85615">
        <ele>270.8</ele>
        <time>2019-05-30T11:02:53Z</time>
      </trkpt>
      <trkpt lat="48.04098" lon="5.85615">
        <ele>270.8</ele>
        <time>2019-05-30T11:02:57Z</time>
      </trkpt>
      <trkpt lat="48.04098" lon="5.85615">
        <ele>270.8</ele>
        <time>2019-05-30T11:03:01Z</time>
      </trkpt>
      <trkpt lat="48.04098" lon="5.85615">
        <ele>270.8</ele>
        <time>2019-05-30T11:03:05Z</time>
      </trkpt>
      <trkpt lat="48.04098" lon="5.85615">
        <ele>270.8</ele>
        <time>2019-05-30T11:03:09Z</time>
      </trkpt>
      <trkpt lat="48.04098" lon="5.85615">
        <ele>270.8</ele>
        <time>2019-05-30T11:03:13Z</time>
      </trkpt>
      <trkpt lat="48.04098" lon="5.85615">
        <ele>270.8</ele>
        <time>2019-05-30T11:03:17Z</time>
      </trkpt>
      <trkpt lat="48.04098" lon="5.85615">
        <ele>270.8</ele>
        <time>2019-05-30T11:03:21Z</time>
      </trkpt>
      <trkpt lat="48.04098" lon="5.85615">
        <ele>270.8</ele>
        <time>2019-05-30T11:03:25Z</time>
      </trkpt>
      <trkpt lat="48.04098" lon="5.85615">
        <ele>270.8</ele>
        <time>2019-05-30T11:03:29Z</time>
      </trkpt>
      <trkpt lat="48.04098" lon="5.85615">
        <ele>270.8</ele>
        <time>2019-05-30T11:03:33Z</time>
      </trkpt>
      <trkpt lat="48.04098" lon="5.85615">
        <ele>270.8</ele>
        <time>2019-05-30T11:03:37Z</time>
      </trkpt>
      <trkpt lat="48.04098" lon="5.85615">
        <ele>270.8</ele>
        <time>2019-05-30T11:03:41Z</time>
      </trkpt>
      <trkpt lat="48.04098" lon="5.85615">
        <ele>270.8</ele>
        <time>2019-05-30T11:03:45Z</time>
      </trkpt>
      <trkpt lat="48.04098" lon="5.85615">
        <ele>270.8</ele>
        <time>2019-05-30T11:03:49Z</time>
      </trkpt>
      <trkpt lat="48.04098" lon="5.85615">
        <ele>270.8</ele>
        <time>2019-05-30T11:03:53Z</time>
      </trkpt>
      <trkpt lat="48.04098" lon="5.85615">
        <ele>270.8</ele>
        <time>2019-05-30T11:03:57Z</time>
      </trkpt>
      <trkpt lat="48.04098" lon="5.85615">
        <ele>270.8</ele>
        <time>2019-05-30T11:04:01Z</time>
      </trkpt>
      <trkpt lat="48.04098" lon="5.85615">
        <ele>270.8</ele>
        <time>2019-05-30T11:04:05Z</time>
      </trkpt>
      <trkpt lat="48.04098" lon="5.85615">
        <ele>270.8</ele>
        <time>2019-05-30T11:04:09Z</time>
      </trkpt>
      <trkpt lat="48.04098" lon="5.85615">
        <ele>270.8</ele>
        <time>2019-05-30T11:04:13Z</time>
      </trkpt>
      <trkpt lat="48.04098" lon="5.85615">
        <ele>270.8</ele>
        <time>2019-05-30T11:04:17Z</time>
      </trkpt>
      <trkpt lat="48.04098" lon="5.85615">
        <ele>270.8</ele>
        <time>2019-05-30T11:04:21Z</time>
      </trkpt>
      <trkpt lat="48.04098" lon="5.85615">
        <ele>270.8</ele>
        <time>2019-05-30T11:04:25Z</time>
      </trkpt>
      <trkpt lat="48.04098" lon="5.85615">
        <ele>270.8</ele>
        <time>2019-05-30T11:04:29Z</time>
      </trkpt>
      <trkpt lat="48.04098" lon="5.85615">
        <ele>270.8</ele>
        <time>2019-05-30T11:04:33Z</time>
      </trkpt>
      <trkpt lat="48.04098" lon="5.85615">
        <ele>270.8</ele>
        <time>2019-05-30T11:04:37Z</time>
      </trkpt>
      <trkpt lat="48.04098" lon="5.85615">
        <ele>270.8</ele>
        <time>2019-05-30T11:04:41Z</time>
      </trkpt>
      <trkpt lat="48.04098" lon="5.85615">
        <ele>270.8</ele>
        <time>2019-05-30T11:04:45Z</time>
      </trkpt>
      <trkpt lat="48.04098" lon="5.85615">
        <ele>270.8</ele>
        <time>2019-05-30T11:04:49Z</time>
      </trkpt>
      <trkpt lat="48.04098" lon="5.85615">
        <ele>270.8</ele>
        <time>2019-05-30T11:04:53Z</time>
      </trkpt>
      <trkpt lat="48.04098" lon="5.85615">
        <ele>270.8</ele>
        <time>2019-05-30T11:04:57Z</time>
      </trkpt>
      <trkpt lat="48.04098" lon="5.85615">
        <ele>270.8</ele>
        <time>2019-05-30T11:05:01Z</time>
      </trkpt>
      <trkpt lat="48.04098" lon="5.85615">
        <ele>270.8</ele>
        <time>2019-05-30T11:05:05Z</time>
      </trkpt>
      <trkpt lat="48.04098" lon="5.85615">
        <ele>270.8</ele>
        <time>2019-05-30T11:05:09Z</time>
      </trkpt>
      <trkpt lat="48.04098" lon="5.85615">
        <ele>270.8</ele>
        <time>2019-05-30T11:05:13Z</time>
      </trkpt>
      <trkpt lat="48.04089" lon="5.85614">
        <ele>272</ele>
        <time>2019-05-30T11:05:17Z</time>
      </trkpt>
      <trkpt lat="48.04089" lon="5.85609">
        <ele>272.4</ele>
        <time>2019-05-30T11:05:21Z</time>
      </trkpt>
      <trkpt lat="48.04089" lon="5.85609">
        <ele>272.4</ele>
        <time>2019-05-30T11:05:25Z</time>
      </trkpt>
      <trkpt lat="48.04089" lon="5.85609">
        <ele>272.4</ele>
        <time>2019-05-30T11:05:29Z</time>
      </trkpt>
      <trkpt lat="48.04089" lon="5.85609">
        <ele>272.4</ele>
        <time>2019-05-30T11:05:33Z</time>
      </trkpt>
      <trkpt lat="48.04089" lon="5.85609">
        <ele>272.4</ele>
        <time>2019-05-30T11:05:37Z</time>
      </trkpt>
      <trkpt lat="48.04091" lon="5.85602">
        <ele>272.4</ele>
        <time>2019-05-30T11:05:41Z</time>
      </trkpt>
      <trkpt lat="48.04091" lon="5.85593">
        <ele>272</ele>
        <time>2019-05-30T11:05:45Z</time>
      </trkpt>
      <trkpt lat="48.04093" lon="5.8558">
        <ele>272.8</ele>
        <time>2019-05-30T11:05:49Z</time>
      </trkpt>
      <trkpt lat="48.0409" lon="5.85565">
        <ele>273.2</ele>
        <time>2019-05-30T11:05:53Z</time>
      </trkpt>
      <trkpt lat="48.04081" lon="5.85566">
        <ele>274</ele>
        <time>2019-05-30T11:05:57Z</time>
      </trkpt>
      <trkpt lat="48.04076" lon="5.85574">
        <ele>274.2</ele>
        <time>2019-05-30T11:06:01Z</time>
      </trkpt>
      <trkpt lat="48.04065" lon="5.85583">
        <ele>274.6</ele>
        <time>2019-05-30T11:06:05Z</time>
      </trkpt>
      <trkpt lat="48.04056" lon="5.85596">
        <ele>275.6</ele>
        <time>2019-05-30T11:06:09Z</time>
      </trkpt>
      <trkpt lat="48.04046" lon="5.85605">
        <ele>275.6</ele>
        <time>2019-05-30T11:06:13Z</time>
      </trkpt>
      <trkpt lat="48.04036" lon="5.85612">
        <ele>276.4</ele>
        <time>2019-05-30T11:06:17Z</time>
      </trkpt>
      <trkpt lat="48.04027" lon="5.8562">
        <ele>276.6</ele>
        <time>2019-05-30T11:06:21Z</time>
      </trkpt>
      <trkpt lat="48.04021" lon="5.85627">
        <ele>278</ele>
        <time>2019-05-30T11:06:25Z</time>
      </trkpt>
      <trkpt lat="48.04012" lon="5.85636">
        <ele>278.4</ele>
        <time>2019-05-30T11:06:29Z</time>
      </trkpt>
      <trkpt lat="48.04008" lon="5.85645">
        <ele>278.6</ele>
        <time>2019-05-30T11:06:33Z</time>
      </trkpt>
      <trkpt lat="48.04" lon="5.85655">
        <ele>278.4</ele>
        <time>2019-05-30T11:06:37Z</time>
      </trkpt>
      <trkpt lat="48.0399" lon="5.85666">
        <ele>279.4</ele>
        <time>2019-05-30T11:06:41Z</time>
      </trkpt>
      <trkpt lat="48.0398" lon="5.85674">
        <ele>279.4</ele>
        <time>2019-05-30T11:06:45Z</time>
      </trkpt>
      <trkpt lat="48.03973" lon="5.85681">
        <ele>279.6</ele>
        <time>2019-05-30T11:06:49Z</time>
      </trkpt>
      <trkpt lat="48.03964" lon="5.85688">
        <ele>278.8</ele>
        <time>2019-05-30T11:06:53Z</time>
      </trkpt>
      <trkpt lat="48.03953" lon="5.85698">
        <ele>278.4</ele>
        <time>2019-05-30T11:06:57Z</time>
      </trkpt>
      <trkpt lat="48.03938" lon="5.85708">
        <ele>277.6</ele>
        <time>2019-05-30T11:07:01Z</time>
      </trkpt>
      <trkpt lat="48.03922" lon="5.85717">
        <ele>276.8</ele>
        <time>2019-05-30T11:07:05Z</time>
      </trkpt>
      <trkpt lat="48.03902" lon="5.85729">
        <ele>276</ele>
        <time>2019-05-30T11:07:09Z</time>
      </trkpt>
      <trkpt lat="48.03881" lon="5.85734">
        <ele>275.8</ele>
        <time>2019-05-30T11:07:13Z</time>
      </trkpt>
      <trkpt lat="48.03868" lon="5.85742">
        <ele>276.4</ele>
        <time>2019-05-30T11:07:17Z</time>
      </trkpt>
      <trkpt lat="48.03859" lon="5.85751">
        <ele>275.4</ele>
        <time>2019-05-30T11:07:21Z</time>
      </trkpt>
      <trkpt lat="48.03852" lon="5.85756">
        <ele>275.8</ele>
        <time>2019-05-30T11:07:25Z</time>
      </trkpt>
      <trkpt lat="48.0384" lon="5.8576">
        <ele>275.4</ele>
        <time>2019-05-30T11:07:29Z</time>
      </trkpt>
      <trkpt lat="48.0383" lon="5.85765">
        <ele>274.8</ele>
        <time>2019-05-30T11:07:33Z</time>
      </trkpt>
      <trkpt lat="48.03817" lon="5.85772">
        <ele>275.8</ele>
        <time>2019-05-30T11:07:37Z</time>
      </trkpt>
      <trkpt lat="48.03802" lon="5.85778">
        <ele>275.8</ele>
        <time>2019-05-30T11:07:41Z</time>
      </trkpt>
      <trkpt lat="48.03789" lon="5.85784">
        <ele>275.2</ele>
        <time>2019-05-30T11:07:45Z</time>
      </trkpt>
      <trkpt lat="48.03777" lon="5.8579">
        <ele>274.6</ele>
        <time>2019-05-30T11:07:49Z</time>
      </trkpt>
      <trkpt lat="48.03758" lon="5.85794">
        <ele>275.4</ele>
        <time>2019-05-30T11:07:53Z</time>
      </trkpt>
      <trkpt lat="48.03741" lon="5.85797">
        <ele>274.8</ele>
        <time>2019-05-30T11:07:57Z</time>
      </trkpt>
      <trkpt lat="48.03722" lon="5.85798">
        <ele>275.2</ele>
        <time>2019-05-30T11:08:01Z</time>
      </trkpt>
      <trkpt lat="48.03704" lon="5.85791">
        <ele>275.2</ele>
        <time>2019-05-30T11:08:05Z</time>
      </trkpt>
      <trkpt lat="48.037" lon="5.85782">
        <ele>276.2</ele>
        <time>2019-05-30T11:08:09Z</time>
      </trkpt>
      <trkpt lat="48.03696" lon="5.85767">
        <ele>277.4</ele>
        <time>2019-05-30T11:08:13Z</time>
      </trkpt>
      <trkpt lat="48.0369" lon="5.85755">
        <ele>279.2</ele>
        <time>2019-05-30T11:08:17Z</time>
      </trkpt>
      <trkpt lat="48.03686" lon="5.85746">
        <ele>279</ele>
        <time>2019-05-30T11:08:21Z</time>
      </trkpt>
      <trkpt lat="48.0368" lon="5.8574">
        <ele>279.6</ele>
        <time>2019-05-30T11:08:25Z</time>
      </trkpt>
      <trkpt lat="48.03661" lon="5.85736">
        <ele>279.8</ele>
        <time>2019-05-30T11:08:29Z</time>
      </trkpt>
      <trkpt lat="48.03655" lon="5.85733">
        <ele>279.8</ele>
        <time>2019-05-30T11:08:33Z</time>
      </trkpt>
      <trkpt lat="48.03644" lon="5.85729">
        <ele>280.4</ele>
        <time>2019-05-30T11:08:37Z</time>
      </trkpt>
      <trkpt lat="48.03633" lon="5.85725">
        <ele>280.8</ele>
        <time>2019-05-30T11:08:41Z</time>
      </trkpt>
      <trkpt lat="48.03623" lon="5.85719">
        <ele>281.8</ele>
        <time>2019-05-30T11:08:45Z</time>
      </trkpt>
      <trkpt lat="48.03602" lon="5.85715">
        <ele>282.8</ele>
        <time>2019-05-30T11:08:49Z</time>
      </trkpt>
      <trkpt lat="48.03594" lon="5.85712">
        <ele>283.8</ele>
        <time>2019-05-30T11:08:53Z</time>
      </trkpt>
      <trkpt lat="48.03583" lon="5.85711">
        <ele>285.2</ele>
        <time>2019-05-30T11:08:57Z</time>
      </trkpt>
      <trkpt lat="48.03575" lon="5.85709">
        <ele>286.2</ele>
        <time>2019-05-30T11:09:01Z</time>
      </trkpt>
      <trkpt lat="48.03566" lon="5.85708">
        <ele>287.4</ele>
        <time>2019-05-30T11:09:05Z</time>
      </trkpt>
      <trkpt lat="48.03551" lon="5.85708">
        <ele>287.8</ele>
        <time>2019-05-30T11:09:09Z</time>
      </trkpt>
      <trkpt lat="48.03542" lon="5.85704">
        <ele>289</ele>
        <time>2019-05-30T11:09:13Z</time>
      </trkpt>
      <trkpt lat="48.03535" lon="5.85705">
        <ele>289.2</ele>
        <time>2019-05-30T11:09:17Z</time>
      </trkpt>
      <trkpt lat="48.0353" lon="5.85705">
        <ele>290.6</ele>
        <time>2019-05-30T11:09:21Z</time>
      </trkpt>
      <trkpt lat="48.03525" lon="5.85706">
        <ele>291.2</ele>
        <time>2019-05-30T11:09:25Z</time>
      </trkpt>
      <trkpt lat="48.0352" lon="5.85707">
        <ele>291.8</ele>
        <time>2019-05-30T11:09:29Z</time>
      </trkpt>
      <trkpt lat="48.03516" lon="5.85708">
        <ele>292.6</ele>
        <time>2019-05-30T11:09:33Z</time>
      </trkpt>
      <trkpt lat="48.03511" lon="5.8571">
        <ele>293.6</ele>
        <time>2019-05-30T11:09:37Z</time>
      </trkpt>
      <trkpt lat="48.03507" lon="5.85709">
        <ele>294.6</ele>
        <time>2019-05-30T11:09:41Z</time>
      </trkpt>
      <trkpt lat="48.03502" lon="5.85708">
        <ele>296</ele>
        <time>2019-05-30T11:09:45Z</time>
      </trkpt>
      <trkpt lat="48.03496" lon="5.85707">
        <ele>297.2</ele>
        <time>2019-05-30T11:09:49Z</time>
      </trkpt>
      <trkpt lat="48.03491" lon="5.85707">
        <ele>297.6</ele>
        <time>2019-05-30T11:09:53Z</time>
      </trkpt>
      <trkpt lat="48.03483" lon="5.85704">
        <ele>297.8</ele>
        <time>2019-05-30T11:09:57Z</time>
      </trkpt>
      <trkpt lat="48.03478" lon="5.85698">
        <ele>298.2</ele>
        <time>2019-05-30T11:10:01Z</time>
      </trkpt>
      <trkpt lat="48.03475" lon="5.85692">
        <ele>299</ele>
        <time>2019-05-30T11:10:05Z</time>
      </trkpt>
      <trkpt lat="48.03472" lon="5.85687">
        <ele>299</ele>
        <time>2019-05-30T11:10:09Z</time>
      </trkpt>
      <trkpt lat="48.03469" lon="5.85679">
        <ele>299.8</ele>
        <time>2019-05-30T11:10:13Z</time>
      </trkpt>
      <trkpt lat="48.03466" lon="5.85671">
        <ele>299.6</ele>
        <time>2019-05-30T11:10:17Z</time>
      </trkpt>
      <trkpt lat="48.03463" lon="5.85663">
        <ele>299.6</ele>
        <time>2019-05-30T11:10:21Z</time>
      </trkpt>
      <trkpt lat="48.0346" lon="5.85656">
        <ele>299.8</ele>
        <time>2019-05-30T11:10:25Z</time>
      </trkpt>
      <trkpt lat="48.03457" lon="5.85648">
        <ele>300.2</ele>
        <time>2019-05-30T11:10:29Z</time>
      </trkpt>
      <trkpt lat="48.03453" lon="5.8564">
        <ele>300.4</ele>
        <time>2019-05-30T11:10:33Z</time>
      </trkpt>
      <trkpt lat="48.03451" lon="5.8563">
        <ele>300.2</ele>
        <time>2019-05-30T11:10:37Z</time>
      </trkpt>
      <trkpt lat="48.03455" lon="5.85618">
        <ele>300.2</ele>
        <time>2019-05-30T11:10:41Z</time>
      </trkpt>
      <trkpt lat="48.03462" lon="5.85606">
        <ele>300</ele>
        <time>2019-05-30T11:10:45Z</time>
      </trkpt>
      <trkpt lat="48.0347" lon="5.85595">
        <ele>300.2</ele>
        <time>2019-05-30T11:10:49Z</time>
      </trkpt>
      <trkpt lat="48.03479" lon="5.85586">
        <ele>300.2</ele>
        <time>2019-05-30T11:10:53Z</time>
      </trkpt>
      <trkpt lat="48.03489" lon="5.85578">
        <ele>300.2</ele>
        <time>2019-05-30T11:10:57Z</time>
      </trkpt>
      <trkpt lat="48.035" lon="5.85574">
        <ele>301.2</ele>
        <time>2019-05-30T11:11:01Z</time>
      </trkpt>
      <trkpt lat="48.03511" lon="5.85571">
        <ele>300.4</ele>
        <time>2019-05-30T11:11:05Z</time>
      </trkpt>
      <trkpt lat="48.03523" lon="5.85568">
        <ele>300.2</ele>
        <time>2019-05-30T11:11:09Z</time>
      </trkpt>
      <trkpt lat="48.03535" lon="5.85563">
        <ele>300.2</ele>
        <time>2019-05-30T11:11:13Z</time>
      </trkpt>
      <trkpt lat="48.03549" lon="5.85557">
        <ele>300.2</ele>
        <time>2019-05-30T11:11:17Z</time>
      </trkpt>
      <trkpt lat="48.03563" lon="5.85552">
        <ele>300</ele>
        <time>2019-05-30T11:11:21Z</time>
      </trkpt>
      <trkpt lat="48.03579" lon="5.85546">
        <ele>300.4</ele>
        <time>2019-05-30T11:11:25Z</time>
      </trkpt>
      <trkpt lat="48.03595" lon="5.8554">
        <ele>300.6</ele>
        <time>2019-05-30T11:11:29Z</time>
      </trkpt>
      <trkpt lat="48.0361" lon="5.85536">
        <ele>300.2</ele>
        <time>2019-05-30T11:11:33Z</time>
      </trkpt>
      <trkpt lat="48.03625" lon="5.8553">
        <ele>300.4</ele>
        <time>2019-05-30T11:11:37Z</time>
      </trkpt>
      <trkpt lat="48.03639" lon="5.85525">
        <ele>301.2</ele>
        <time>2019-05-30T11:11:41Z</time>
      </trkpt>
      <trkpt lat="48.03653" lon="5.8552">
        <ele>301.2</ele>
        <time>2019-05-30T11:11:45Z</time>
      </trkpt>
      <trkpt lat="48.03667" lon="5.85513">
        <ele>301.2</ele>
        <time>2019-05-30T11:11:49Z</time>
      </trkpt>
      <trkpt lat="48.03679" lon="5.85501">
        <ele>301.2</ele>
        <time>2019-05-30T11:11:53Z</time>
      </trkpt>
      <trkpt lat="48.0369" lon="5.85487">
        <ele>301.2</ele>
        <time>2019-05-30T11:11:57Z</time>
      </trkpt>
      <trkpt lat="48.03701" lon="5.85473">
        <ele>301.4</ele>
        <time>2019-05-30T11:12:01Z</time>
      </trkpt>
      <trkpt lat="48.03711" lon="5.8546">
        <ele>301.8</ele>
        <time>2019-05-30T11:12:05Z</time>
      </trkpt>
      <trkpt lat="48.03723" lon="5.85446">
        <ele>301.8</ele>
        <time>2019-05-30T11:12:09Z</time>
      </trkpt>
      <trkpt lat="48.03734" lon="5.85431">
        <ele>301.4</ele>
        <time>2019-05-30T11:12:13Z</time>
      </trkpt>
      <trkpt lat="48.03745" lon="5.85417">
        <ele>302</ele>
        <time>2019-05-30T11:12:17Z</time>
      </trkpt>
      <trkpt lat="48.03756" lon="5.85403">
        <ele>302.4</ele>
        <time>2019-05-30T11:12:21Z</time>
      </trkpt>
      <trkpt lat="48.03766" lon="5.8539">
        <ele>302.4</ele>
        <time>2019-05-30T11:12:25Z</time>
      </trkpt>
      <trkpt lat="48.03777" lon="5.85376">
        <ele>303</ele>
        <time>2019-05-30T11:12:29Z</time>
      </trkpt>
      <trkpt lat="48.03787" lon="5.85362">
        <ele>303</ele>
        <time>2019-05-30T11:12:33Z</time>
      </trkpt>
      <trkpt lat="48.03799" lon="5.85349">
        <ele>303.2</ele>
        <time>2019-05-30T11:12:37Z</time>
      </trkpt>
      <trkpt lat="48.03809" lon="5.85335">
        <ele>303.4</ele>
        <time>2019-05-30T11:12:41Z</time>
      </trkpt>
      <trkpt lat="48.0382" lon="5.85321">
        <ele>303.4</ele>
        <time>2019-05-30T11:12:45Z</time>
      </trkpt>
      <trkpt lat="48.03832" lon="5.85307">
        <ele>304.2</ele>
        <time>2019-05-30T11:12:49Z</time>
      </trkpt>
      <trkpt lat="48.03843" lon="5.85294">
        <ele>304.4</ele>
        <time>2019-05-30T11:12:53Z</time>
      </trkpt>
      <trkpt lat="48.03854" lon="5.85281">
        <ele>305</ele>
        <time>2019-05-30T11:12:57Z</time>
      </trkpt>
      <trkpt lat="48.03865" lon="5.85267">
        <ele>305.4</ele>
        <time>2019-05-30T11:13:01Z</time>
      </trkpt>
      <trkpt lat="48.03876" lon="5.85253">
        <ele>305.8</ele>
        <time>2019-05-30T11:13:05Z</time>
      </trkpt>
      <trkpt lat="48.03887" lon="5.85239">
        <ele>306.4</ele>
        <time>2019-05-30T11:13:09Z</time>
      </trkpt>
      <trkpt lat="48.03899" lon="5.85225">
        <ele>306.2</ele>
        <time>2019-05-30T11:13:13Z</time>
      </trkpt>
      <trkpt lat="48.0391" lon="5.85211">
        <ele>306.8</ele>
        <time>2019-05-30T11:13:17Z</time>
      </trkpt>
      <trkpt lat="48.03921" lon="5.85197">
        <ele>306.6</ele>
        <time>2019-05-30T11:13:21Z</time>
      </trkpt>
      <trkpt lat="48.03934" lon="5.85182">
        <ele>307</ele>
        <time>2019-05-30T11:13:25Z</time>
      </trkpt>
      <trkpt lat="48.03947" lon="5.85167">
        <ele>306.8</ele>
        <time>2019-05-30T11:13:29Z</time>
      </trkpt>
      <trkpt lat="48.0396" lon="5.85152">
        <ele>306.8</ele>
        <time>2019-05-30T11:13:33Z</time>
      </trkpt>
      <trkpt lat="48.03972" lon="5.85137">
        <ele>307.2</ele>
        <time>2019-05-30T11:13:37Z</time>
      </trkpt>
      <trkpt lat="48.03985" lon="5.85121">
        <ele>307.4</ele>
        <time>2019-05-30T11:13:41Z</time>
      </trkpt>
      <trkpt lat="48.03998" lon="5.85106">
        <ele>307</ele>
        <time>2019-05-30T11:13:45Z</time>
      </trkpt>
      <trkpt lat="48.0401" lon="5.85092">
        <ele>307.4</ele>
        <time>2019-05-30T11:13:49Z</time>
      </trkpt>
      <trkpt lat="48.04021" lon="5.85077">
        <ele>307.4</ele>
        <time>2019-05-30T11:13:53Z</time>
      </trkpt>
      <trkpt lat="48.04033" lon="5.85063">
        <ele>307.6</ele>
        <time>2019-05-30T11:13:57Z</time>
      </trkpt>
      <trkpt lat="48.04045" lon="5.85048">
        <ele>307.8</ele>
        <time>2019-05-30T11:14:01Z</time>
      </trkpt>
      <trkpt lat="48.04057" lon="5.85033">
        <ele>307.8</ele>
        <time>2019-05-30T11:14:05Z</time>
      </trkpt>
      <trkpt lat="48.04069" lon="5.85019">
        <ele>308.2</ele>
        <time>2019-05-30T11:14:09Z</time>
      </trkpt>
      <trkpt lat="48.04081" lon="5.85004">
        <ele>308.2</ele>
        <time>2019-05-30T11:14:13Z</time>
      </trkpt>
      <trkpt lat="48.04092" lon="5.8499">
        <ele>309.2</ele>
        <time>2019-05-30T11:14:17Z</time>
      </trkpt>
      <trkpt lat="48.04102" lon="5.84978">
        <ele>309.2</ele>
        <time>2019-05-30T11:14:21Z</time>
      </trkpt>
      <trkpt lat="48.04113" lon="5.84964">
        <ele>310</ele>
        <time>2019-05-30T11:14:25Z</time>
      </trkpt>
      <trkpt lat="48.04123" lon="5.84952">
        <ele>309.8</ele>
        <time>2019-05-30T11:14:29Z</time>
      </trkpt>
      <trkpt lat="48.04133" lon="5.8494">
        <ele>310</ele>
        <time>2019-05-30T11:14:33Z</time>
      </trkpt>
      <trkpt lat="48.04143" lon="5.84929">
        <ele>311.4</ele>
        <time>2019-05-30T11:14:37Z</time>
      </trkpt>
      <trkpt lat="48.04152" lon="5.84918">
        <ele>311.6</ele>
        <time>2019-05-30T11:14:41Z</time>
      </trkpt>
      <trkpt lat="48.04159" lon="5.84904">
        <ele>312.2</ele>
        <time>2019-05-30T11:14:45Z</time>
      </trkpt>
      <trkpt lat="48.04153" lon="5.84889">
        <ele>312.6</ele>
        <time>2019-05-30T11:14:49Z</time>
      </trkpt>
      <trkpt lat="48.04142" lon="5.84879">
        <ele>312.4</ele>
        <time>2019-05-30T11:14:53Z</time>
      </trkpt>
      <trkpt lat="48.04129" lon="5.84868">
        <ele>312</ele>
        <time>2019-05-30T11:14:57Z</time>
      </trkpt>
      <trkpt lat="48.04116" lon="5.84856">
        <ele>311.4</ele>
        <time>2019-05-30T11:15:01Z</time>
      </trkpt>
      <trkpt lat="48.04102" lon="5.84843">
        <ele>310.4</ele>
        <time>2019-05-30T11:15:05Z</time>
      </trkpt>
      <trkpt lat="48.04088" lon="5.84831">
        <ele>309.8</ele>
        <time>2019-05-30T11:15:09Z</time>
      </trkpt>
      <trkpt lat="48.04074" lon="5.84817">
        <ele>309.4</ele>
        <time>2019-05-30T11:15:13Z</time>
      </trkpt>
      <trkpt lat="48.04076" lon="5.84796">
        <ele>308.6</ele>
        <time>2019-05-30T11:15:17Z</time>
      </trkpt>
      <trkpt lat="48.04083" lon="5.84778">
        <ele>309.6</ele>
        <time>2019-05-30T11:15:21Z</time>
      </trkpt>
      <trkpt lat="48.04091" lon="5.84761">
        <ele>310.2</ele>
        <time>2019-05-30T11:15:25Z</time>
      </trkpt>
      <trkpt lat="48.04097" lon="5.84745">
        <ele>310.4</ele>
        <time>2019-05-30T11:15:29Z</time>
      </trkpt>
      <trkpt lat="48.04104" lon="5.84729">
        <ele>310.8</ele>
        <time>2019-05-30T11:15:33Z</time>
      </trkpt>
      <trkpt lat="48.04112" lon="5.84715">
        <ele>311.2</ele>
        <time>2019-05-30T11:15:37Z</time>
      </trkpt>
      <trkpt lat="48.04123" lon="5.8471">
        <ele>310.8</ele>
        <time>2019-05-30T11:15:41Z</time>
      </trkpt>
      <trkpt lat="48.04134" lon="5.84714">
        <ele>311.4</ele>
        <time>2019-05-30T11:15:45Z</time>
      </trkpt>
      <trkpt lat="48.04144" lon="5.84719">
        <ele>312</ele>
        <time>2019-05-30T11:15:49Z</time>
      </trkpt>
      <trkpt lat="48.04154" lon="5.84723">
        <ele>312.6</ele>
        <time>2019-05-30T11:15:53Z</time>
      </trkpt>
      <trkpt lat="48.04164" lon="5.84727">
        <ele>313.4</ele>
        <time>2019-05-30T11:15:57Z</time>
      </trkpt>
      <trkpt lat="48.04174" lon="5.84732">
        <ele>313.8</ele>
        <time>2019-05-30T11:16:01Z</time>
      </trkpt>
      <trkpt lat="48.04185" lon="5.84736">
        <ele>314.8</ele>
        <time>2019-05-30T11:16:05Z</time>
      </trkpt>
      <trkpt lat="48.04195" lon="5.8474">
        <ele>315.4</ele>
        <time>2019-05-30T11:16:09Z</time>
      </trkpt>
      <trkpt lat="48.04206" lon="5.84744">
        <ele>315</ele>
        <time>2019-05-30T11:16:13Z</time>
      </trkpt>
      <trkpt lat="48.04219" lon="5.84749">
        <ele>314.8</ele>
        <time>2019-05-30T11:16:17Z</time>
      </trkpt>
      <trkpt lat="48.04232" lon="5.84754">
        <ele>314.8</ele>
        <time>2019-05-30T11:16:21Z</time>
      </trkpt>
      <trkpt lat="48.04247" lon="5.84756">
        <ele>313.6</ele>
        <time>2019-05-30T11:16:25Z</time>
      </trkpt>
      <trkpt lat="48.04261" lon="5.84753">
        <ele>313.6</ele>
        <time>2019-05-30T11:16:29Z</time>
      </trkpt>
      <trkpt lat="48.04275" lon="5.84747">
        <ele>313.4</ele>
        <time>2019-05-30T11:16:33Z</time>
      </trkpt>
      <trkpt lat="48.04291" lon="5.84741">
        <ele>313.2</ele>
        <time>2019-05-30T11:16:37Z</time>
      </trkpt>
      <trkpt lat="48.04305" lon="5.84734">
        <ele>312.6</ele>
        <time>2019-05-30T11:16:41Z</time>
      </trkpt>
      <trkpt lat="48.0432" lon="5.84728">
        <ele>313</ele>
        <time>2019-05-30T11:16:45Z</time>
      </trkpt>
      <trkpt lat="48.04333" lon="5.84724">
        <ele>313.2</ele>
        <time>2019-05-30T11:16:49Z</time>
      </trkpt>
      <trkpt lat="48.04346" lon="5.8472">
        <ele>314.2</ele>
        <time>2019-05-30T11:16:53Z</time>
      </trkpt>
      <trkpt lat="48.04357" lon="5.84715">
        <ele>314.8</ele>
        <time>2019-05-30T11:16:57Z</time>
      </trkpt>
      <trkpt lat="48.04369" lon="5.84711">
        <ele>315.4</ele>
        <time>2019-05-30T11:17:01Z</time>
      </trkpt>
      <trkpt lat="48.04379" lon="5.84706">
        <ele>315.2</ele>
        <time>2019-05-30T11:17:05Z</time>
      </trkpt>
      <trkpt lat="48.0439" lon="5.84702">
        <ele>316</ele>
        <time>2019-05-30T11:17:09Z</time>
      </trkpt>
      <trkpt lat="48.044" lon="5.84697">
        <ele>316.4</ele>
        <time>2019-05-30T11:17:13Z</time>
      </trkpt>
      <trkpt lat="48.04409" lon="5.84693">
        <ele>317</ele>
        <time>2019-05-30T11:17:17Z</time>
      </trkpt>
      <trkpt lat="48.04419" lon="5.84689">
        <ele>318</ele>
        <time>2019-05-30T11:17:21Z</time>
      </trkpt>
      <trkpt lat="48.04428" lon="5.84685">
        <ele>318.6</ele>
        <time>2019-05-30T11:17:25Z</time>
      </trkpt>
      <trkpt lat="48.04437" lon="5.84682">
        <ele>318.6</ele>
        <time>2019-05-30T11:17:29Z</time>
      </trkpt>
      <trkpt lat="48.04446" lon="5.84678">
        <ele>319</ele>
        <time>2019-05-30T11:17:33Z</time>
      </trkpt>
      <trkpt lat="48.04456" lon="5.84674">
        <ele>319.4</ele>
        <time>2019-05-30T11:17:37Z</time>
      </trkpt>
      <trkpt lat="48.04465" lon="5.8467">
        <ele>320</ele>
        <time>2019-05-30T11:17:41Z</time>
      </trkpt>
      <trkpt lat="48.04475" lon="5.84666">
        <ele>320.2</ele>
        <time>2019-05-30T11:17:45Z</time>
      </trkpt>
      <trkpt lat="48.04484" lon="5.84661">
        <ele>321.4</ele>
        <time>2019-05-30T11:17:49Z</time>
      </trkpt>
      <trkpt lat="48.04493" lon="5.84657">
        <ele>321.6</ele>
        <time>2019-05-30T11:17:53Z</time>
      </trkpt>
      <trkpt lat="48.04502" lon="5.84651">
        <ele>322.8</ele>
        <time>2019-05-30T11:17:57Z</time>
      </trkpt>
      <trkpt lat="48.04511" lon="5.84643">
        <ele>323.8</ele>
        <time>2019-05-30T11:18:01Z</time>
      </trkpt>
      <trkpt lat="48.04518" lon="5.84634">
        <ele>324.2</ele>
        <time>2019-05-30T11:18:05Z</time>
      </trkpt>
      <trkpt lat="48.04525" lon="5.84624">
        <ele>324.6</ele>
        <time>2019-05-30T11:18:09Z</time>
      </trkpt>
      <trkpt lat="48.04532" lon="5.84614">
        <ele>325.8</ele>
        <time>2019-05-30T11:18:13Z</time>
      </trkpt>
      <trkpt lat="48.04539" lon="5.84604">
        <ele>325.6</ele>
        <time>2019-05-30T11:18:17Z</time>
      </trkpt>
      <trkpt lat="48.04546" lon="5.84595">
        <ele>327</ele>
        <time>2019-05-30T11:18:21Z</time>
      </trkpt>
      <trkpt lat="48.04552" lon="5.84585">
        <ele>327.8</ele>
        <time>2019-05-30T11:18:25Z</time>
      </trkpt>
      <trkpt lat="48.04559" lon="5.84575">
        <ele>329.2</ele>
        <time>2019-05-30T11:18:29Z</time>
      </trkpt>
      <trkpt lat="48.04561" lon="5.84564">
        <ele>330.4</ele>
        <time>2019-05-30T11:18:33Z</time>
      </trkpt>
      <trkpt lat="48.04552" lon="5.84556">
        <ele>329.6</ele>
        <time>2019-05-30T11:18:37Z</time>
      </trkpt>
      <trkpt lat="48.04542" lon="5.84546">
        <ele>329.8</ele>
        <time>2019-05-30T11:18:41Z</time>
      </trkpt>
      <trkpt lat="48.04531" lon="5.84534">
        <ele>329.8</ele>
        <time>2019-05-30T11:18:45Z</time>
      </trkpt>
      <trkpt lat="48.04521" lon="5.84523">
        <ele>329.2</ele>
        <time>2019-05-30T11:18:49Z</time>
      </trkpt>
      <trkpt lat="48.0451" lon="5.84511">
        <ele>329.2</ele>
        <time>2019-05-30T11:18:53Z</time>
      </trkpt>
      <trkpt lat="48.04499" lon="5.84498">
        <ele>329.4</ele>
        <time>2019-05-30T11:18:57Z</time>
      </trkpt>
      <trkpt lat="48.04488" lon="5.84487">
        <ele>329.8</ele>
        <time>2019-05-30T11:19:01Z</time>
      </trkpt>
      <trkpt lat="48.04478" lon="5.84475">
        <ele>330.4</ele>
        <time>2019-05-30T11:19:05Z</time>
      </trkpt>
      <trkpt lat="48.04468" lon="5.84465">
        <ele>330</ele>
        <time>2019-05-30T11:19:09Z</time>
      </trkpt>
      <trkpt lat="48.04459" lon="5.84454">
        <ele>330.8</ele>
        <time>2019-05-30T11:19:13Z</time>
      </trkpt>
      <trkpt lat="48.0445" lon="5.84445">
        <ele>331.4</ele>
        <time>2019-05-30T11:19:17Z</time>
      </trkpt>
      <trkpt lat="48.04442" lon="5.84434">
        <ele>331.6</ele>
        <time>2019-05-30T11:19:21Z</time>
      </trkpt>
      <trkpt lat="48.04433" lon="5.84425">
        <ele>332.2</ele>
        <time>2019-05-30T11:19:25Z</time>
      </trkpt>
      <trkpt lat="48.04425" lon="5.84415">
        <ele>332.4</ele>
        <time>2019-05-30T11:19:29Z</time>
      </trkpt>
      <trkpt lat="48.04416" lon="5.84405">
        <ele>333.2</ele>
        <time>2019-05-30T11:19:33Z</time>
      </trkpt>
      <trkpt lat="48.04407" lon="5.84395">
        <ele>332.8</ele>
        <time>2019-05-30T11:19:37Z</time>
      </trkpt>
      <trkpt lat="48.04398" lon="5.84385">
        <ele>333.4</ele>
        <time>2019-05-30T11:19:41Z</time>
      </trkpt>
      <trkpt lat="48.04388" lon="5.84374">
        <ele>333.4</ele>
        <time>2019-05-30T11:19:45Z</time>
      </trkpt>
      <trkpt lat="48.04376" lon="5.84361">
        <ele>334</ele>
        <time>2019-05-30T11:19:49Z</time>
      </trkpt>
      <trkpt lat="48.04365" lon="5.84349">
        <ele>334.2</ele>
        <time>2019-05-30T11:19:53Z</time>
      </trkpt>
      <trkpt lat="48.04353" lon="5.84337">
        <ele>334</ele>
        <time>2019-05-30T11:19:57Z</time>
      </trkpt>
      <trkpt lat="48.04338" lon="5.84326">
        <ele>333.6</ele>
        <time>2019-05-30T11:20:01Z</time>
      </trkpt>
      <trkpt lat="48.04319" lon="5.84315">
        <ele>332.4</ele>
        <time>2019-05-30T11:20:05Z</time>
      </trkpt>
      <trkpt lat="48.04296" lon="5.84304">
        <ele>332</ele>
        <time>2019-05-30T11:20:09Z</time>
      </trkpt>
      <trkpt lat="48.0427" lon="5.84292">
        <ele>330.4</ele>
        <time>2019-05-30T11:20:13Z</time>
      </trkpt>
      <trkpt lat="48.04242" lon="5.84279">
        <ele>329.2</ele>
        <time>2019-05-30T11:20:17Z</time>
      </trkpt>
      <trkpt lat="48.04213" lon="5.84267">
        <ele>328.4</ele>
        <time>2019-05-30T11:20:21Z</time>
      </trkpt>
      <trkpt lat="48.04186" lon="5.84254">
        <ele>328.2</ele>
        <time>2019-05-30T11:20:25Z</time>
      </trkpt>
      <trkpt lat="48.0416" lon="5.84242">
        <ele>327.8</ele>
        <time>2019-05-30T11:20:29Z</time>
      </trkpt>
      <trkpt lat="48.04135" lon="5.84231">
        <ele>327.8</ele>
        <time>2019-05-30T11:20:33Z</time>
      </trkpt>
      <trkpt lat="48.04112" lon="5.8422">
        <ele>327</ele>
        <time>2019-05-30T11:20:37Z</time>
      </trkpt>
      <trkpt lat="48.04087" lon="5.84209">
        <ele>325.6</ele>
        <time>2019-05-30T11:20:41Z</time>
      </trkpt>
      <trkpt lat="48.0406" lon="5.84197">
        <ele>324.4</ele>
        <time>2019-05-30T11:20:45Z</time>
      </trkpt>
      <trkpt lat="48.04032" lon="5.84184">
        <ele>323</ele>
        <time>2019-05-30T11:20:49Z</time>
      </trkpt>
      <trkpt lat="48.04003" lon="5.84171">
        <ele>321.4</ele>
        <time>2019-05-30T11:20:53Z</time>
      </trkpt>
      <trkpt lat="48.03974" lon="5.84158">
        <ele>320.4</ele>
        <time>2019-05-30T11:20:57Z</time>
      </trkpt>
      <trkpt lat="48.03944" lon="5.84145">
        <ele>318.6</ele>
        <time>2019-05-30T11:21:01Z</time>
      </trkpt>
      <trkpt lat="48.03914" lon="5.84133">
        <ele>317.2</ele>
        <time>2019-05-30T11:21:05Z</time>
      </trkpt>
      <trkpt lat="48.03881" lon="5.8413">
        <ele>316.4</ele>
        <time>2019-05-30T11:21:09Z</time>
      </trkpt>
      <trkpt lat="48.03846" lon="5.84127">
        <ele>314</ele>
        <time>2019-05-30T11:21:13Z</time>
      </trkpt>
      <trkpt lat="48.03812" lon="5.84122">
        <ele>312.2</ele>
        <time>2019-05-30T11:21:17Z</time>
      </trkpt>
      <trkpt lat="48.03777" lon="5.84115">
        <ele>307.8</ele>
        <time>2019-05-30T11:21:21Z</time>
      </trkpt>
      <trkpt lat="48.03745" lon="5.84106">
        <ele>308</ele>
        <time>2019-05-30T11:21:25Z</time>
      </trkpt>
      <trkpt lat="48.03715" lon="5.84099">
        <ele>308.2</ele>
        <time>2019-05-30T11:21:29Z</time>
      </trkpt>
      <trkpt lat="48.03684" lon="5.84092">
        <ele>305.8</ele>
        <time>2019-05-30T11:21:33Z</time>
      </trkpt>
      <trkpt lat="48.03659" lon="5.84087">
        <ele>302</ele>
        <time>2019-05-30T11:21:37Z</time>
      </trkpt>
      <trkpt lat="48.03633" lon="5.84071">
        <ele>297.2</ele>
        <time>2019-05-30T11:21:41Z</time>
      </trkpt>
      <trkpt lat="48.03606" lon="5.84045">
        <ele>296.8</ele>
        <time>2019-05-30T11:21:45Z</time>
      </trkpt>
      <trkpt lat="48.0358" lon="5.8402">
        <ele>293.6</ele>
        <time>2019-05-30T11:21:49Z</time>
      </trkpt>
      <trkpt lat="48.03554" lon="5.83992">
        <ele>289.6</ele>
        <time>2019-05-30T11:21:53Z</time>
      </trkpt>
      <trkpt lat="48.03528" lon="5.83965">
        <ele>288.6</ele>
        <time>2019-05-30T11:21:57Z</time>
      </trkpt>
      <trkpt lat="48.03504" lon="5.83944">
        <ele>285.2</ele>
        <time>2019-05-30T11:22:01Z</time>
      </trkpt>
      <trkpt lat="48.03479" lon="5.83922">
        <ele>282.8</ele>
        <time>2019-05-30T11:22:05Z</time>
      </trkpt>
      <trkpt lat="48.03457" lon="5.83889">
        <ele>274.6</ele>
        <time>2019-05-30T11:22:09Z</time>
      </trkpt>
      <trkpt lat="48.03436" lon="5.83855">
        <ele>271.6</ele>
        <time>2019-05-30T11:22:13Z</time>
      </trkpt>
      <trkpt lat="48.03414" lon="5.83814">
        <ele>270.6</ele>
        <time>2019-05-30T11:22:17Z</time>
      </trkpt>
      <trkpt lat="48.0339" lon="5.83792">
        <ele>269.2</ele>
        <time>2019-05-30T11:22:21Z</time>
      </trkpt>
      <trkpt lat="48.03371" lon="5.8378">
        <ele>271.6</ele>
        <time>2019-05-30T11:22:25Z</time>
      </trkpt>
      <trkpt lat="48.03348" lon="5.83777">
        <ele>271.8</ele>
        <time>2019-05-30T11:22:29Z</time>
      </trkpt>
      <trkpt lat="48.03329" lon="5.83779">
        <ele>272.8</ele>
        <time>2019-05-30T11:22:33Z</time>
      </trkpt>
      <trkpt lat="48.03313" lon="5.83781">
        <ele>272.6</ele>
        <time>2019-05-30T11:22:37Z</time>
      </trkpt>
      <trkpt lat="48.033" lon="5.83783">
        <ele>274</ele>
        <time>2019-05-30T11:22:41Z</time>
      </trkpt>
      <trkpt lat="48.03288" lon="5.83783">
        <ele>274.6</ele>
        <time>2019-05-30T11:22:45Z</time>
      </trkpt>
      <trkpt lat="48.03278" lon="5.83784">
        <ele>275.4</ele>
        <time>2019-05-30T11:22:49Z</time>
      </trkpt>
      <trkpt lat="48.03271" lon="5.83785">
        <ele>276</ele>
        <time>2019-05-30T11:22:53Z</time>
      </trkpt>
      <trkpt lat="48.03263" lon="5.83786">
        <ele>277.8</ele>
        <time>2019-05-30T11:22:57Z</time>
      </trkpt>
      <trkpt lat="48.03256" lon="5.83787">
        <ele>278.2</ele>
        <time>2019-05-30T11:23:01Z</time>
      </trkpt>
      <trkpt lat="48.03248" lon="5.83787">
        <ele>279.2</ele>
        <time>2019-05-30T11:23:05Z</time>
      </trkpt>
      <trkpt lat="48.03241" lon="5.83785">
        <ele>280.4</ele>
        <time>2019-05-30T11:23:09Z</time>
      </trkpt>
      <trkpt lat="48.03234" lon="5.83784">
        <ele>281.8</ele>
        <time>2019-05-30T11:23:13Z</time>
      </trkpt>
      <trkpt lat="48.03227" lon="5.83781">
        <ele>282.6</ele>
        <time>2019-05-30T11:23:17Z</time>
      </trkpt>
      <trkpt lat="48.03222" lon="5.83776">
        <ele>282.6</ele>
        <time>2019-05-30T11:23:21Z</time>
      </trkpt>
      <trkpt lat="48.03214" lon="5.83772">
        <ele>283.4</ele>
        <time>2019-05-30T11:23:25Z</time>
      </trkpt>
      <trkpt lat="48.03206" lon="5.83766">
        <ele>284</ele>
        <time>2019-05-30T11:23:29Z</time>
      </trkpt>
      <trkpt lat="48.03198" lon="5.83761">
        <ele>284.8</ele>
        <time>2019-05-30T11:23:33Z</time>
      </trkpt>
      <trkpt lat="48.0319" lon="5.83755">
        <ele>284.4</ele>
        <time>2019-05-30T11:23:37Z</time>
      </trkpt>
      <trkpt lat="48.03181" lon="5.83749">
        <ele>285.2</ele>
        <time>2019-05-30T11:23:41Z</time>
      </trkpt>
      <trkpt lat="48.03172" lon="5.83744">
        <ele>285.6</ele>
        <time>2019-05-30T11:23:45Z</time>
      </trkpt>
      <trkpt lat="48.03162" lon="5.83738">
        <ele>285.6</ele>
        <time>2019-05-30T11:23:49Z</time>
      </trkpt>
      <trkpt lat="48.03154" lon="5.83732">
        <ele>285.6</ele>
        <time>2019-05-30T11:23:53Z</time>
      </trkpt>
      <trkpt lat="48.03142" lon="5.83726">
        <ele>285.6</ele>
        <time>2019-05-30T11:23:57Z</time>
      </trkpt>
      <trkpt lat="48.03131" lon="5.8372">
        <ele>286</ele>
        <time>2019-05-30T11:24:01Z</time>
      </trkpt>
      <trkpt lat="48.0312" lon="5.83714">
        <ele>286.2</ele>
        <time>2019-05-30T11:24:05Z</time>
      </trkpt>
      <trkpt lat="48.03108" lon="5.83707">
        <ele>286.4</ele>
        <time>2019-05-30T11:24:09Z</time>
      </trkpt>
      <trkpt lat="48.03095" lon="5.83698">
        <ele>286.8</ele>
        <time>2019-05-30T11:24:13Z</time>
      </trkpt>
      <trkpt lat="48.03084" lon="5.8369">
        <ele>287.6</ele>
        <time>2019-05-30T11:24:17Z</time>
      </trkpt>
      <trkpt lat="48.03073" lon="5.83682">
        <ele>288</ele>
        <time>2019-05-30T11:24:21Z</time>
      </trkpt>
      <trkpt lat="48.03063" lon="5.83675">
        <ele>288.4</ele>
        <time>2019-05-30T11:24:25Z</time>
      </trkpt>
      <trkpt lat="48.03052" lon="5.8367">
        <ele>289</ele>
        <time>2019-05-30T11:24:29Z</time>
      </trkpt>
      <trkpt lat="48.03042" lon="5.83665">
        <ele>289.6</ele>
        <time>2019-05-30T11:24:33Z</time>
      </trkpt>
      <trkpt lat="48.03034" lon="5.83661">
        <ele>289.8</ele>
        <time>2019-05-30T11:24:37Z</time>
      </trkpt>
      <trkpt lat="48.03026" lon="5.83658">
        <ele>290.6</ele>
        <time>2019-05-30T11:24:41Z</time>
      </trkpt>
      <trkpt lat="48.03017" lon="5.83654">
        <ele>291.4</ele>
        <time>2019-05-30T11:24:45Z</time>
      </trkpt>
      <trkpt lat="48.03008" lon="5.83651">
        <ele>292.4</ele>
        <time>2019-05-30T11:24:49Z</time>
      </trkpt>
      <trkpt lat="48.02998" lon="5.83648">
        <ele>292.8</ele>
        <time>2019-05-30T11:24:53Z</time>
      </trkpt>
      <trkpt lat="48.0299" lon="5.83643">
        <ele>294.2</ele>
        <time>2019-05-30T11:24:57Z</time>
      </trkpt>
      <trkpt lat="48.02981" lon="5.8364">
        <ele>295.2</ele>
        <time>2019-05-30T11:25:01Z</time>
      </trkpt>
      <trkpt lat="48.02974" lon="5.83637">
        <ele>296</ele>
        <time>2019-05-30T11:25:05Z</time>
      </trkpt>
      <trkpt lat="48.02966" lon="5.83633">
        <ele>296.8</ele>
        <time>2019-05-30T11:25:09Z</time>
      </trkpt>
      <trkpt lat="48.02959" lon="5.83628">
        <ele>297.2</ele>
        <time>2019-05-30T11:25:13Z</time>
      </trkpt>
      <trkpt lat="48.02952" lon="5.83623">
        <ele>298</ele>
        <time>2019-05-30T11:25:17Z</time>
      </trkpt>
      <trkpt lat="48.02945" lon="5.83618">
        <ele>298.2</ele>
        <time>2019-05-30T11:25:21Z</time>
      </trkpt>
      <trkpt lat="48.02938" lon="5.83612">
        <ele>298.6</ele>
        <time>2019-05-30T11:25:25Z</time>
      </trkpt>
      <trkpt lat="48.02931" lon="5.83606">
        <ele>299</ele>
        <time>2019-05-30T11:25:29Z</time>
      </trkpt>
      <trkpt lat="48.02924" lon="5.836">
        <ele>299.2</ele>
        <time>2019-05-30T11:25:33Z</time>
      </trkpt>
      <trkpt lat="48.02917" lon="5.83595">
        <ele>299.4</ele>
        <time>2019-05-30T11:25:37Z</time>
      </trkpt>
      <trkpt lat="48.0291" lon="5.83589">
        <ele>300</ele>
        <time>2019-05-30T11:25:41Z</time>
      </trkpt>
      <trkpt lat="48.02901" lon="5.83583">
        <ele>300.4</ele>
        <time>2019-05-30T11:25:45Z</time>
      </trkpt>
      <trkpt lat="48.02892" lon="5.83577">
        <ele>300.4</ele>
        <time>2019-05-30T11:25:49Z</time>
      </trkpt>
      <trkpt lat="48.02883" lon="5.83571">
        <ele>300.8</ele>
        <time>2019-05-30T11:25:53Z</time>
      </trkpt>
      <trkpt lat="48.02874" lon="5.83565">
        <ele>301.2</ele>
        <time>2019-05-30T11:25:57Z</time>
      </trkpt>
      <trkpt lat="48.02864" lon="5.83559">
        <ele>301.4</ele>
        <time>2019-05-30T11:26:01Z</time>
      </trkpt>
      <trkpt lat="48.02854" lon="5.83552">
        <ele>301.8</ele>
        <time>2019-05-30T11:26:05Z</time>
      </trkpt>
      <trkpt lat="48.02843" lon="5.83544">
        <ele>301.6</ele>
        <time>2019-05-30T11:26:09Z</time>
      </trkpt>
      <trkpt lat="48.02833" lon="5.83537">
        <ele>301.2</ele>
        <time>2019-05-30T11:26:13Z</time>
      </trkpt>
      <trkpt lat="48.02822" lon="5.8353">
        <ele>301.4</ele>
        <time>2019-05-30T11:26:17Z</time>
      </trkpt>
      <trkpt lat="48.02811" lon="5.83522">
        <ele>301.8</ele>
        <time>2019-05-30T11:26:21Z</time>
      </trkpt>
      <trkpt lat="48.02799" lon="5.83514">
        <ele>302</ele>
        <time>2019-05-30T11:26:25Z</time>
      </trkpt>
      <trkpt lat="48.02787" lon="5.83507">
        <ele>301.8</ele>
        <time>2019-05-30T11:26:29Z</time>
      </trkpt>
      <trkpt lat="48.02774" lon="5.835">
        <ele>301.8</ele>
        <time>2019-05-30T11:26:33Z</time>
      </trkpt>
      <trkpt lat="48.02761" lon="5.83494">
        <ele>302.6</ele>
        <time>2019-05-30T11:26:37Z</time>
      </trkpt>
      <trkpt lat="48.02748" lon="5.83487">
        <ele>302.4</ele>
        <time>2019-05-30T11:26:41Z</time>
      </trkpt>
      <trkpt lat="48.02736" lon="5.8348">
        <ele>302.6</ele>
        <time>2019-05-30T11:26:45Z</time>
      </trkpt>
      <trkpt lat="48.02723" lon="5.83471">
        <ele>303</ele>
        <time>2019-05-30T11:26:49Z</time>
      </trkpt>
      <trkpt lat="48.02709" lon="5.83461">
        <ele>303.4</ele>
        <time>2019-05-30T11:26:53Z</time>
      </trkpt>
      <trkpt lat="48.02695" lon="5.8345">
        <ele>303.6</ele>
        <time>2019-05-30T11:26:57Z</time>
      </trkpt>
      <trkpt lat="48.0268" lon="5.83436">
        <ele>304.2</ele>
        <time>2019-05-30T11:27:01Z</time>
      </trkpt>
      <trkpt lat="48.02662" lon="5.83419">
        <ele>304.8</ele>
        <time>2019-05-30T11:27:05Z</time>
      </trkpt>
      <trkpt lat="48.02652" lon="5.83411">
        <ele>304</ele>
        <time>2019-05-30T11:27:09Z</time>
      </trkpt>
      <trkpt lat="48.02652" lon="5.83411">
        <ele>304</ele>
        <time>2019-05-30T11:27:13Z</time>
      </trkpt>
      <trkpt lat="48.02652" lon="5.83411">
        <ele>304</ele>
        <time>2019-05-30T11:27:17Z</time>
      </trkpt>
      <trkpt lat="48.02652" lon="5.83411">
        <ele>304</ele>
        <time>2019-05-30T11:27:21Z</time>
      </trkpt>
      <trkpt lat="48.02652" lon="5.83411">
        <ele>304</ele>
        <time>2019-05-30T11:27:25Z</time>
      </trkpt>
      <trkpt lat="48.02652" lon="5.83411">
        <ele>304</ele>
        <time>2019-05-30T11:27:29Z</time>
      </trkpt>
      <trkpt lat="48.02652" lon="5.83411">
        <ele>304</ele>
        <time>2019-05-30T11:27:33Z</time>
      </trkpt>
      <trkpt lat="48.02652" lon="5.83411">
        <ele>304</ele>
        <time>2019-05-30T11:27:37Z</time>
      </trkpt>
      <trkpt lat="48.02652" lon="5.83411">
        <ele>304</ele>
        <time>2019-05-30T11:27:41Z</time>
      </trkpt>
      <trkpt lat="48.02652" lon="5.83411">
        <ele>304</ele>
        <time>2019-05-30T11:27:45Z</time>
      </trkpt>
      <trkpt lat="48.02652" lon="5.83411">
        <ele>304</ele>
        <time>2019-05-30T11:27:49Z</time>
      </trkpt>
      <trkpt lat="48.02652" lon="5.83411">
        <ele>304</ele>
        <time>2019-05-30T11:27:53Z</time>
      </trkpt>
      <trkpt lat="48.02652" lon="5.83411">
        <ele>304</ele>
        <time>2019-05-30T11:27:57Z</time>
      </trkpt>
      <trkpt lat="48.02652" lon="5.83411">
        <ele>304</ele>
        <time>2019-05-30T11:28:01Z</time>
      </trkpt>
      <trkpt lat="48.02652" lon="5.83411">
        <ele>304</ele>
        <time>2019-05-30T11:28:05Z</time>
      </trkpt>
      <trkpt lat="48.02652" lon="5.83411">
        <ele>304</ele>
        <time>2019-05-30T11:28:09Z</time>
      </trkpt>
      <trkpt lat="48.02652" lon="5.83411">
        <ele>304</ele>
        <time>2019-05-30T11:28:13Z</time>
      </trkpt>
      <trkpt lat="48.02652" lon="5.83411">
        <ele>304</ele>
        <time>2019-05-30T11:28:17Z</time>
      </trkpt>
      <trkpt lat="48.02652" lon="5.83411">
        <ele>304</ele>
        <time>2019-05-30T11:28:21Z</time>
      </trkpt>
      <trkpt lat="48.02652" lon="5.83411">
        <ele>304</ele>
        <time>2019-05-30T11:28:25Z</time>
      </trkpt>
      <trkpt lat="48.02652" lon="5.83411">
        <ele>304</ele>
        <time>2019-05-30T11:28:29Z</time>
      </trkpt>
      <trkpt lat="48.0265" lon="5.83411">
        <ele>304.2</ele>
        <time>2019-05-30T11:28:33Z</time>
      </trkpt>
      <trkpt lat="48.0264" lon="5.83403">
        <ele>304</ele>
        <time>2019-05-30T11:28:37Z</time>
      </trkpt>
      <trkpt lat="48.02626" lon="5.8339">
        <ele>304</ele>
        <time>2019-05-30T11:28:41Z</time>
      </trkpt>
      <trkpt lat="48.02611" lon="5.83376">
        <ele>303.2</ele>
        <time>2019-05-30T11:28:45Z</time>
      </trkpt>
      <trkpt lat="48.02594" lon="5.83358">
        <ele>302.4</ele>
        <time>2019-05-30T11:28:49Z</time>
      </trkpt>
      <trkpt lat="48.02575" lon="5.83338">
        <ele>301.2</ele>
        <time>2019-05-30T11:28:53Z</time>
      </trkpt>
      <trkpt lat="48.02554" lon="5.8332">
        <ele>299.8</ele>
        <time>2019-05-30T11:28:57Z</time>
      </trkpt>
      <trkpt lat="48.02525" lon="5.83315">
        <ele>297.4</ele>
        <time>2019-05-30T11:29:01Z</time>
      </trkpt>
      <trkpt lat="48.02492" lon="5.83318">
        <ele>295.8</ele>
        <time>2019-05-30T11:29:05Z</time>
      </trkpt>
      <trkpt lat="48.02457" lon="5.83321">
        <ele>294.4</ele>
        <time>2019-05-30T11:29:09Z</time>
      </trkpt>
      <trkpt lat="48.02424" lon="5.83323">
        <ele>293.6</ele>
        <time>2019-05-30T11:29:13Z</time>
      </trkpt>
      <trkpt lat="48.02394" lon="5.83323">
        <ele>293.2</ele>
        <time>2019-05-30T11:29:17Z</time>
      </trkpt>
      <trkpt lat="48.02366" lon="5.83319">
        <ele>292.8</ele>
        <time>2019-05-30T11:29:21Z</time>
      </trkpt>
      <trkpt lat="48.02338" lon="5.83314">
        <ele>292.4</ele>
        <time>2019-05-30T11:29:25Z</time>
      </trkpt>
      <trkpt lat="48.02312" lon="5.83306">
        <ele>292.4</ele>
        <time>2019-05-30T11:29:29Z</time>
      </trkpt>
      <trkpt lat="48.02287" lon="5.83302">
        <ele>292.2</ele>
        <time>2019-05-30T11:29:33Z</time>
      </trkpt>
      <trkpt lat="48.02264" lon="5.83302">
        <ele>292.4</ele>
        <time>2019-05-30T11:29:37Z</time>
      </trkpt>
      <trkpt lat="48.02242" lon="5.83302">
        <ele>292.8</ele>
        <time>2019-05-30T11:29:41Z</time>
      </trkpt>
      <trkpt lat="48.02222" lon="5.83297">
        <ele>293</ele>
        <time>2019-05-30T11:29:45Z</time>
      </trkpt>
      <trkpt lat="48.02205" lon="5.83287">
        <ele>293.8</ele>
        <time>2019-05-30T11:29:49Z</time>
      </trkpt>
      <trkpt lat="48.02188" lon="5.83275">
        <ele>293.4</ele>
        <time>2019-05-30T11:29:53Z</time>
      </trkpt>
      <trkpt lat="48.0217" lon="5.83261">
        <ele>292.2</ele>
        <time>2019-05-30T11:29:57Z</time>
      </trkpt>
      <trkpt lat="48.02152" lon="5.83244">
        <ele>292.2</ele>
        <time>2019-05-30T11:30:01Z</time>
      </trkpt>
      <trkpt lat="48.02132" lon="5.83225">
        <ele>291.2</ele>
        <time>2019-05-30T11:30:05Z</time>
      </trkpt>
      <trkpt lat="48.02112" lon="5.83204">
        <ele>289.6</ele>
        <time>2019-05-30T11:30:09Z</time>
      </trkpt>
      <trkpt lat="48.02092" lon="5.83178">
        <ele>288.8</ele>
        <time>2019-05-30T11:30:13Z</time>
      </trkpt>
      <trkpt lat="48.02071" lon="5.83148">
        <ele>286.4</ele>
        <time>2019-05-30T11:30:17Z</time>
      </trkpt>
      <trkpt lat="48.0205" lon="5.83116">
        <ele>284.6</ele>
        <time>2019-05-30T11:30:21Z</time>
      </trkpt>
      <trkpt lat="48.02029" lon="5.83081">
        <ele>283.2</ele>
        <time>2019-05-30T11:30:25Z</time>
      </trkpt>
      <trkpt lat="48.02008" lon="5.83048">
        <ele>282.2</ele>
        <time>2019-05-30T11:30:29Z</time>
      </trkpt>
      <trkpt lat="48.01986" lon="5.83018">
        <ele>280.8</ele>
        <time>2019-05-30T11:30:33Z</time>
      </trkpt>
      <trkpt lat="48.01967" lon="5.82985">
        <ele>280</ele>
        <time>2019-05-30T11:30:37Z</time>
      </trkpt>
      <trkpt lat="48.01974" lon="5.82972">
        <ele>280.6</ele>
        <time>2019-05-30T11:30:41Z</time>
      </trkpt>
      <trkpt lat="48.01984" lon="5.82964">
        <ele>280.8</ele>
        <time>2019-05-30T11:30:45Z</time>
      </trkpt>
      <trkpt lat="48.01993" lon="5.82951">
        <ele>281.8</ele>
        <time>2019-05-30T11:30:49Z</time>
      </trkpt>
      <trkpt lat="48.02005" lon="5.8294">
        <ele>282.4</ele>
        <time>2019-05-30T11:30:53Z</time>
      </trkpt>
      <trkpt lat="48.02017" lon="5.82928">
        <ele>282.8</ele>
        <time>2019-05-30T11:30:57Z</time>
      </trkpt>
      <trkpt lat="48.0203" lon="5.82915">
        <ele>283</ele>
        <time>2019-05-30T11:31:01Z</time>
      </trkpt>
      <trkpt lat="48.02044" lon="5.82902">
        <ele>283</ele>
        <time>2019-05-30T11:31:05Z</time>
      </trkpt>
      <trkpt lat="48.02057" lon="5.82888">
        <ele>283.2</ele>
        <time>2019-05-30T11:31:09Z</time>
      </trkpt>
      <trkpt lat="48.0207" lon="5.82873">
        <ele>282.6</ele>
        <time>2019-05-30T11:31:13Z</time>
      </trkpt>
      <trkpt lat="48.02085" lon="5.82856">
        <ele>281.8</ele>
        <time>2019-05-30T11:31:17Z</time>
      </trkpt>
      <trkpt lat="48.02104" lon="5.82839">
        <ele>279.8</ele>
        <time>2019-05-30T11:31:21Z</time>
      </trkpt>
      <trkpt lat="48.02127" lon="5.82818">
        <ele>278.8</ele>
        <time>2019-05-30T11:31:25Z</time>
      </trkpt>
      <trkpt lat="48.02153" lon="5.82797">
        <ele>279.2</ele>
        <time>2019-05-30T11:31:29Z</time>
      </trkpt>
      <trkpt lat="48.02177" lon="5.82774">
        <ele>279</ele>
        <time>2019-05-30T11:31:33Z</time>
      </trkpt>
      <trkpt lat="48.02198" lon="5.82753">
        <ele>279.8</ele>
        <time>2019-05-30T11:31:37Z</time>
      </trkpt>
      <trkpt lat="48.02216" lon="5.82734">
        <ele>280.4</ele>
        <time>2019-05-30T11:31:41Z</time>
      </trkpt>
      <trkpt lat="48.02231" lon="5.82718">
        <ele>281.6</ele>
        <time>2019-05-30T11:31:45Z</time>
      </trkpt>
      <trkpt lat="48.02246" lon="5.82705">
        <ele>282</ele>
        <time>2019-05-30T11:31:49Z</time>
      </trkpt>
      <trkpt lat="48.02261" lon="5.82691">
        <ele>282.4</ele>
        <time>2019-05-30T11:31:53Z</time>
      </trkpt>
      <trkpt lat="48.02278" lon="5.82681">
        <ele>283</ele>
        <time>2019-05-30T11:31:57Z</time>
      </trkpt>
      <trkpt lat="48.02293" lon="5.82674">
        <ele>282.6</ele>
        <time>2019-05-30T11:32:01Z</time>
      </trkpt>
      <trkpt lat="48.02311" lon="5.82664">
        <ele>282.2</ele>
        <time>2019-05-30T11:32:05Z</time>
      </trkpt>
      <trkpt lat="48.0233" lon="5.82645">
        <ele>281</ele>
        <time>2019-05-30T11:32:09Z</time>
      </trkpt>
      <trkpt lat="48.0235" lon="5.82619">
        <ele>279.6</ele>
        <time>2019-05-30T11:32:13Z</time>
      </trkpt>
      <trkpt lat="48.02373" lon="5.82592">
        <ele>279.8</ele>
        <time>2019-05-30T11:32:17Z</time>
      </trkpt>
      <trkpt lat="48.02394" lon="5.82569">
        <ele>279.4</ele>
        <time>2019-05-30T11:32:21Z</time>
      </trkpt>
      <trkpt lat="48.0241" lon="5.8255">
        <ele>280.4</ele>
        <time>2019-05-30T11:32:25Z</time>
      </trkpt>
      <trkpt lat="48.02422" lon="5.82536">
        <ele>280.6</ele>
        <time>2019-05-30T11:32:29Z</time>
      </trkpt>
      <trkpt lat="48.02433" lon="5.82525">
        <ele>282.2</ele>
        <time>2019-05-30T11:32:33Z</time>
      </trkpt>
      <trkpt lat="48.02443" lon="5.82519">
        <ele>283.6</ele>
        <time>2019-05-30T11:32:37Z</time>
      </trkpt>
      <trkpt lat="48.02454" lon="5.82514">
        <ele>284.4</ele>
        <time>2019-05-30T11:32:41Z</time>
      </trkpt>
      <trkpt lat="48.02463" lon="5.82512">
        <ele>285.4</ele>
        <time>2019-05-30T11:32:45Z</time>
      </trkpt>
      <trkpt lat="48.02472" lon="5.82511">
        <ele>286.2</ele>
        <time>2019-05-30T11:32:49Z</time>
      </trkpt>
      <trkpt lat="48.02482" lon="5.8251">
        <ele>286.8</ele>
        <time>2019-05-30T11:32:53Z</time>
      </trkpt>
      <trkpt lat="48.02491" lon="5.8251">
        <ele>287.4</ele>
        <time>2019-05-30T11:32:57Z</time>
      </trkpt>
      <trkpt lat="48.025" lon="5.8251">
        <ele>288.2</ele>
        <time>2019-05-30T11:33:01Z</time>
      </trkpt>
      <trkpt lat="48.02509" lon="5.82511">
        <ele>288.4</ele>
        <time>2019-05-30T11:33:05Z</time>
      </trkpt>
      <trkpt lat="48.02518" lon="5.82512">
        <ele>289.6</ele>
        <time>2019-05-30T11:33:09Z</time>
      </trkpt>
      <trkpt lat="48.02527" lon="5.82513">
        <ele>290.2</ele>
        <time>2019-05-30T11:33:13Z</time>
      </trkpt>
      <trkpt lat="48.02536" lon="5.82514">
        <ele>290.6</ele>
        <time>2019-05-30T11:33:17Z</time>
      </trkpt>
      <trkpt lat="48.02545" lon="5.82515">
        <ele>291.4</ele>
        <time>2019-05-30T11:33:21Z</time>
      </trkpt>
      <trkpt lat="48.02554" lon="5.82516">
        <ele>291.6</ele>
        <time>2019-05-30T11:33:25Z</time>
      </trkpt>
      <trkpt lat="48.02563" lon="5.82517">
        <ele>292.2</ele>
        <time>2019-05-30T11:33:29Z</time>
      </trkpt>
      <trkpt lat="48.02571" lon="5.82518">
        <ele>293.2</ele>
        <time>2019-05-30T11:33:33Z</time>
      </trkpt>
      <trkpt lat="48.02579" lon="5.82519">
        <ele>293.2</ele>
        <time>2019-05-30T11:33:37Z</time>
      </trkpt>
      <trkpt lat="48.02588" lon="5.82519">
        <ele>293.6</ele>
        <time>2019-05-30T11:33:41Z</time>
      </trkpt>
      <trkpt lat="48.02597" lon="5.82519">
        <ele>293.6</ele>
        <time>2019-05-30T11:33:45Z</time>
      </trkpt>
      <trkpt lat="48.02606" lon="5.8252">
        <ele>294.2</ele>
        <time>2019-05-30T11:33:49Z</time>
      </trkpt>
      <trkpt lat="48.02615" lon="5.82519">
        <ele>294.6</ele>
        <time>2019-05-30T11:33:53Z</time>
      </trkpt>
      <trkpt lat="48.02624" lon="5.82517">
        <ele>295</ele>
        <time>2019-05-30T11:33:57Z</time>
      </trkpt>
      <trkpt lat="48.02634" lon="5.82514">
        <ele>295.2</ele>
        <time>2019-05-30T11:34:01Z</time>
      </trkpt>
      <trkpt lat="48.02643" lon="5.8251">
        <ele>296.2</ele>
        <time>2019-05-30T11:34:05Z</time>
      </trkpt>
      <trkpt lat="48.02653" lon="5.82505">
        <ele>295.8</ele>
        <time>2019-05-30T11:34:09Z</time>
      </trkpt>
      <trkpt lat="48.02663" lon="5.82498">
        <ele>297.2</ele>
        <time>2019-05-30T11:34:13Z</time>
      </trkpt>
      <trkpt lat="48.02672" lon="5.82492">
        <ele>296.8</ele>
        <time>2019-05-30T11:34:17Z</time>
      </trkpt>
      <trkpt lat="48.02681" lon="5.82484">
        <ele>296.8</ele>
        <time>2019-05-30T11:34:21Z</time>
      </trkpt>
      <trkpt lat="48.02691" lon="5.82474">
        <ele>297.2</ele>
        <time>2019-05-30T11:34:25Z</time>
      </trkpt>
      <trkpt lat="48.02704" lon="5.82462">
        <ele>296.8</ele>
        <time>2019-05-30T11:34:29Z</time>
      </trkpt>
      <trkpt lat="48.0272" lon="5.82448">
        <ele>296.2</ele>
        <time>2019-05-30T11:34:33Z</time>
      </trkpt>
      <trkpt lat="48.02737" lon="5.82434">
        <ele>295.8</ele>
        <time>2019-05-30T11:34:37Z</time>
      </trkpt>
      <trkpt lat="48.02754" lon="5.8242">
        <ele>295.4</ele>
        <time>2019-05-30T11:34:41Z</time>
      </trkpt>
      <trkpt lat="48.0277" lon="5.82405">
        <ele>295.8</ele>
        <time>2019-05-30T11:34:45Z</time>
      </trkpt>
      <trkpt lat="48.02787" lon="5.8239">
        <ele>296.2</ele>
        <time>2019-05-30T11:34:49Z</time>
      </trkpt>
      <trkpt lat="48.02803" lon="5.82375">
        <ele>297</ele>
        <time>2019-05-30T11:34:53Z</time>
      </trkpt>
      <trkpt lat="48.02818" lon="5.82361">
        <ele>297.2</ele>
        <time>2019-05-30T11:34:57Z</time>
      </trkpt>
      <trkpt lat="48.02832" lon="5.82347">
        <ele>298.2</ele>
        <time>2019-05-30T11:35:01Z</time>
      </trkpt>
      <trkpt lat="48.02846" lon="5.82334">
        <ele>298</ele>
        <time>2019-05-30T11:35:05Z</time>
      </trkpt>
      <trkpt lat="48.02859" lon="5.82321">
        <ele>298.2</ele>
        <time>2019-05-30T11:35:09Z</time>
      </trkpt>
      <trkpt lat="48.02873" lon="5.82307">
        <ele>299</ele>
        <time>2019-05-30T11:35:13Z</time>
      </trkpt>
      <trkpt lat="48.02886" lon="5.82294">
        <ele>298.6</ele>
        <time>2019-05-30T11:35:17Z</time>
      </trkpt>
      <trkpt lat="48.02899" lon="5.82281">
        <ele>299</ele>
        <time>2019-05-30T11:35:21Z</time>
      </trkpt>
      <trkpt lat="48.02913" lon="5.82271">
        <ele>300</ele>
        <time>2019-05-30T11:35:25Z</time>
      </trkpt>
      <trkpt lat="48.02928" lon="5.82263">
        <ele>300</ele>
        <time>2019-05-30T11:35:29Z</time>
      </trkpt>
      <trkpt lat="48.02943" lon="5.82256">
        <ele>301</ele>
        <time>2019-05-30T11:35:33Z</time>
      </trkpt>
      <trkpt lat="48.02958" lon="5.8225">
        <ele>301.2</ele>
        <time>2019-05-30T11:35:37Z</time>
      </trkpt>
      <trkpt lat="48.02973" lon="5.82243">
        <ele>300.4</ele>
        <time>2019-05-30T11:35:41Z</time>
      </trkpt>
      <trkpt lat="48.02991" lon="5.82234">
        <ele>300</ele>
        <time>2019-05-30T11:35:45Z</time>
      </trkpt>
      <trkpt lat="48.03012" lon="5.82223">
        <ele>299</ele>
        <time>2019-05-30T11:35:49Z</time>
      </trkpt>
      <trkpt lat="48.03037" lon="5.82211">
        <ele>298</ele>
        <time>2019-05-30T11:35:53Z</time>
      </trkpt>
      <trkpt lat="48.03066" lon="5.82198">
        <ele>296.8</ele>
        <time>2019-05-30T11:35:57Z</time>
      </trkpt>
      <trkpt lat="48.03092" lon="5.82185">
        <ele>297.2</ele>
        <time>2019-05-30T11:36:01Z</time>
      </trkpt>
      <trkpt lat="48.03114" lon="5.82174">
        <ele>299.6</ele>
        <time>2019-05-30T11:36:05Z</time>
      </trkpt>
      <trkpt lat="48.0313" lon="5.82158">
        <ele>300.2</ele>
        <time>2019-05-30T11:36:09Z</time>
      </trkpt>
      <trkpt lat="48.03141" lon="5.82138">
        <ele>300.2</ele>
        <time>2019-05-30T11:36:13Z</time>
      </trkpt>
      <trkpt lat="48.0315" lon="5.82121">
        <ele>301.2</ele>
        <time>2019-05-30T11:36:17Z</time>
      </trkpt>
      <trkpt lat="48.03159" lon="5.82104">
        <ele>301.2</ele>
        <time>2019-05-30T11:36:21Z</time>
      </trkpt>
      <trkpt lat="48.03168" lon="5.82092">
        <ele>301.8</ele>
        <time>2019-05-30T11:36:25Z</time>
      </trkpt>
      <trkpt lat="48.03174" lon="5.82081">
        <ele>301.8</ele>
        <time>2019-05-30T11:36:29Z</time>
      </trkpt>
      <trkpt lat="48.03181" lon="5.82073">
        <ele>301.6</ele>
        <time>2019-05-30T11:36:33Z</time>
      </trkpt>
      <trkpt lat="48.03181" lon="5.82073">
        <ele>301.6</ele>
        <time>2019-05-30T11:36:37Z</time>
      </trkpt>
      <trkpt lat="48.03181" lon="5.82073">
        <ele>301.6</ele>
        <time>2019-05-30T11:36:41Z</time>
      </trkpt>
      <trkpt lat="48.03181" lon="5.82073">
        <ele>301.6</ele>
        <time>2019-05-30T11:36:45Z</time>
      </trkpt>
      <trkpt lat="48.03181" lon="5.82073">
        <ele>301.6</ele>
        <time>2019-05-30T11:36:49Z</time>
      </trkpt>
      <trkpt lat="48.03181" lon="5.82073">
        <ele>301.6</ele>
        <time>2019-05-30T11:36:53Z</time>
      </trkpt>
      <trkpt lat="48.03181" lon="5.82073">
        <ele>301.6</ele>
        <time>2019-05-30T11:36:57Z</time>
      </trkpt>
      <trkpt lat="48.03181" lon="5.82073">
        <ele>301.6</ele>
        <time>2019-05-30T11:37:01Z</time>
      </trkpt>
      <trkpt lat="48.03183" lon="5.82069">
        <ele>301.6</ele>
        <time>2019-05-30T11:37:05Z</time>
      </trkpt>
      <trkpt lat="48.03181" lon="5.82058">
        <ele>301.6</ele>
        <time>2019-05-30T11:37:09Z</time>
      </trkpt>
      <trkpt lat="48.03171" lon="5.82044">
        <ele>301</ele>
        <time>2019-05-30T11:37:13Z</time>
      </trkpt>
      <trkpt lat="48.03158" lon="5.82031">
        <ele>300.4</ele>
        <time>2019-05-30T11:37:17Z</time>
      </trkpt>
      <trkpt lat="48.03141" lon="5.82014">
        <ele>299</ele>
        <time>2019-05-30T11:37:21Z</time>
      </trkpt>
      <trkpt lat="48.03123" lon="5.82">
        <ele>297.4</ele>
        <time>2019-05-30T11:37:25Z</time>
      </trkpt>
      <trkpt lat="48.03103" lon="5.81981">
        <ele>296.4</ele>
        <time>2019-05-30T11:37:29Z</time>
      </trkpt>
      <trkpt lat="48.03077" lon="5.81959">
        <ele>293.4</ele>
        <time>2019-05-30T11:37:33Z</time>
      </trkpt>
      <trkpt lat="48.03049" lon="5.81931">
        <ele>290.6</ele>
        <time>2019-05-30T11:37:37Z</time>
      </trkpt>
      <trkpt lat="48.03028" lon="5.81897">
        <ele>288</ele>
        <time>2019-05-30T11:37:41Z</time>
      </trkpt>
      <trkpt lat="48.0301" lon="5.81869">
        <ele>285.6</ele>
        <time>2019-05-30T11:37:45Z</time>
      </trkpt>
      <trkpt lat="48.02998" lon="5.81848">
        <ele>283.4</ele>
        <time>2019-05-30T11:37:49Z</time>
      </trkpt>
      <trkpt lat="48.02987" lon="5.81825">
        <ele>281.6</ele>
        <time>2019-05-30T11:37:53Z</time>
      </trkpt>
      <trkpt lat="48.02981" lon="5.8181">
        <ele>280.8</ele>
        <time>2019-05-30T11:37:57Z</time>
      </trkpt>
      <trkpt lat="48.02977" lon="5.81798">
        <ele>280.4</ele>
        <time>2019-05-30T11:38:01Z</time>
      </trkpt>
      <trkpt lat="48.02977" lon="5.81791">
        <ele>280</ele>
        <time>2019-05-30T11:38:05Z</time>
      </trkpt>
      <trkpt lat="48.02974" lon="5.81775">
        <ele>279.8</ele>
        <time>2019-05-30T11:38:09Z</time>
      </trkpt>
      <trkpt lat="48.02974" lon="5.81775">
        <ele>279.8</ele>
        <time>2019-05-30T11:38:13Z</time>
      </trkpt>
      <trkpt lat="48.02974" lon="5.81775">
        <ele>279.8</ele>
        <time>2019-05-30T11:38:17Z</time>
      </trkpt>
      <trkpt lat="48.0297" lon="5.81768">
        <ele>279.4</ele>
        <time>2019-05-30T11:38:21Z</time>
      </trkpt>
      <trkpt lat="48.02971" lon="5.81757">
        <ele>279.8</ele>
        <time>2019-05-30T11:38:25Z</time>
      </trkpt>
      <trkpt lat="48.02978" lon="5.81756">
        <ele>281</ele>
        <time>2019-05-30T11:38:29Z</time>
      </trkpt>
      <trkpt lat="48.02985" lon="5.8176">
        <ele>281.6</ele>
        <time>2019-05-30T11:38:33Z</time>
      </trkpt>
      <trkpt lat="48.02992" lon="5.81763">
        <ele>282.8</ele>
        <time>2019-05-30T11:38:37Z</time>
      </trkpt>
      <trkpt lat="48.02999" lon="5.81766">
        <ele>283.4</ele>
        <time>2019-05-30T11:38:41Z</time>
      </trkpt>
      <trkpt lat="48.03005" lon="5.81768">
        <ele>283.6</ele>
        <time>2019-05-30T11:38:45Z</time>
      </trkpt>
      <trkpt lat="48.03013" lon="5.81769">
        <ele>283.8</ele>
        <time>2019-05-30T11:38:49Z</time>
      </trkpt>
      <trkpt lat="48.03022" lon="5.81769">
        <ele>284.2</ele>
        <time>2019-05-30T11:38:53Z</time>
      </trkpt>
      <trkpt lat="48.03032" lon="5.81765">
        <ele>285.6</ele>
        <time>2019-05-30T11:38:57Z</time>
      </trkpt>
      <trkpt lat="48.03044" lon="5.81762">
        <ele>286.4</ele>
        <time>2019-05-30T11:39:01Z</time>
      </trkpt>
      <trkpt lat="48.03056" lon="5.81758">
        <ele>287.4</ele>
        <time>2019-05-30T11:39:05Z</time>
      </trkpt>
      <trkpt lat="48.03068" lon="5.81753">
        <ele>288.2</ele>
        <time>2019-05-30T11:39:09Z</time>
      </trkpt>
      <trkpt lat="48.03079" lon="5.81745">
        <ele>289.4</ele>
        <time>2019-05-30T11:39:13Z</time>
      </trkpt>
      <trkpt lat="48.03088" lon="5.81735">
        <ele>290.8</ele>
        <time>2019-05-30T11:39:17Z</time>
      </trkpt>
      <trkpt lat="48.03097" lon="5.81725">
        <ele>292.2</ele>
        <time>2019-05-30T11:39:21Z</time>
      </trkpt>
      <trkpt lat="48.03104" lon="5.81713">
        <ele>293.8</ele>
        <time>2019-05-30T11:39:25Z</time>
      </trkpt>
      <trkpt lat="48.0311" lon="5.81699">
        <ele>294.6</ele>
        <time>2019-05-30T11:39:29Z</time>
      </trkpt>
      <trkpt lat="48.03116" lon="5.81686">
        <ele>295.4</ele>
        <time>2019-05-30T11:39:33Z</time>
      </trkpt>
      <trkpt lat="48.03122" lon="5.81672">
        <ele>295.8</ele>
        <time>2019-05-30T11:39:37Z</time>
      </trkpt>
      <trkpt lat="48.03117" lon="5.8166">
        <ele>296</ele>
        <time>2019-05-30T11:39:41Z</time>
      </trkpt>
      <trkpt lat="48.03109" lon="5.81649">
        <ele>296.2</ele>
        <time>2019-05-30T11:39:45Z</time>
      </trkpt>
      <trkpt lat="48.03098" lon="5.81638">
        <ele>295.2</ele>
        <time>2019-05-30T11:39:49Z</time>
      </trkpt>
      <trkpt lat="48.03088" lon="5.81625">
        <ele>295.4</ele>
        <time>2019-05-30T11:39:53Z</time>
      </trkpt>
      <trkpt lat="48.03074" lon="5.81618">
        <ele>294.6</ele>
        <time>2019-05-30T11:39:57Z</time>
      </trkpt>
      <trkpt lat="48.0306" lon="5.81633">
        <ele>293.4</ele>
        <time>2019-05-30T11:40:01Z</time>
      </trkpt>
      <trkpt lat="48.03059" lon="5.81633">
        <ele>293</ele>
        <time>2019-05-30T11:40:05Z</time>
      </trkpt>
    </trkseg>
  </trk>
</gpx>